[[{"header":{"parameterUnit":"m.s-1","parameterCategory":1,"la1":30.6,"la2":29.2853,"lo1":-89.7004,"lo2":-87.6739,"dy":0.0162,"dx":0.0183,"nx":112,"ny":82,"refTime":"2024-04-20T00:00:00:Z","depth":0,"parameterNumber":2,"parameterNumberName":"U-component_of_WINDS"},"data":[0.0,0.0,0.0,0.0,0.0,0.0,0.0,0.0,0.0,0.0,0.0,0.0,0.0,0.0,0.0,0.0,0.0,0.0,0.0,0.0,0.0,0.0,0.0,0.0,0.0,0.0,0.0,0.0,0.0,0.0,0.0,0.0,0.0,0.0,0.0,0.0,0.0,0.0,0.0,0.0,0.0,0.0,0.0,0.0,0.0,0.0,0.0,0.0,0.0,0.0,0.0,0.0,0.0,0.0,0.0,0.0,0.0,0.0,0.0,0.0,0.0,0.0,0.0,0.0,0.0,0.0,0.0,0.0,0.0,0.0,0.0,0.0,0.0,0.0,0.0,0.0,0.0,0.0,0.0,0.0,0.0,0.0,0.0,0.0,0.0,0.0,0.0,0.0,0.0,0.0,0.0,7.0141,7.2947,7.4595,7.4626,7.2158,6.9139,6.5718,0.0,0.0,0.0,0.0,0.0,0.0,0.0,0.0,0.0,0.0,0.0,0.0,0.0,0.0,0.0,0.0,0.0,0.0,0.0,0.0,0.0,0.0,0.0,0.0,0.0,0.0,0.0,0.0,0.0,0.0,0.0,0.0,0.0,0.0,0.0,0.0,0.0,0.0,0.0,0.0,0.0,0.0,0.0,0.0,0.0,0.0,0.0,0.0,0.0,0.0,0.0,0.0,0.0,0.0,0.0,0.0,0.0,0.0,0.0,0.0,0.0,0.0,0.0,0.0,0.0,0.0,0.0,0.0,0.0,0.0,0.0,0.0,0.0,0.0,0.0,0.0,0.0,0.0,0.0,0.0,0.0,0.0,0.0,0.0,0.0,0.0,0.0,0.0,0.0,0.0,0.0,0.0,0.0,0.0,0.0,0.0,0.0,0.0,0.0,0.0,0.0,0.0,0.0,0.0,6.8894,7.5168,7.5635,7.5541,7.559,7.2539,6.9155,6.5718,0.0,0.0,0.0,0.0,0.0,0.0,0.0,0.0,0.0,0.0,0.0,0.0,0.0,0.0,0.0,0.0,0.0,0.0,0.0,0.0,0.0,0.0,0.0,0.0,0.0,0.0,0.0,0.0,0.0,0.0,0.0,0.0,0.0,0.0,0.0,0.0,0.0,0.0,0.0,0.0,0.0,0.0,0.0,0.0,0.0,0.0,0.0,0.0,0.0,0.0,0.0,0.0,0.0,0.0,0.0,0.0,0.0,0.0,0.0,0.0,0.0,0.0,0.0,0.0,0.0,0.0,0.0,0.0,0.0,0.0,0.0,0.0,0.0,0.0,0.0,0.0,0.0,0.0,0.0,0.0,0.0,0.0,0.0,0.0,0.0,0.0,0.0,0.0,0.0,0.0,0.0,0.0,0.0,0.0,0.0,0.0,0.0,0.0,0.0,0.0,0.0,0.0,0.0,6.7764,7.1728,7.5806,7.6325,7.6426,7.6448,7.3729,7.0541,6.7048,6.4106,0.0,0.0,0.0,0.0,0.0,0.0,0.0,0.0,0.0,0.0,0.0,0.0,0.0,0.0,0.0,0.0,0.0,0.0,0.0,0.0,0.0,0.0,0.0,0.0,0.0,0.0,0.0,0.0,0.0,0.0,0.0,0.0,0.0,0.0,0.0,0.0,0.0,0.0,0.0,0.0,0.0,0.0,0.0,0.0,0.0,0.0,0.0,0.0,0.0,0.0,0.0,0.0,0.0,0.0,0.0,0.0,0.0,0.0,0.0,0.0,0.0,0.0,0.0,0.0,0.0,0.0,0.0,0.0,0.0,0.0,0.0,0.0,0.0,0.0,0.0,0.0,0.0,0.0,0.0,0.0,0.0,0.0,0.0,0.0,0.0,0.0,0.0,0.0,0.0,0.0,0.0,0.0,0.0,0.0,0.0,0.0,0.0,0.0,0.0,0.0,0.0,0.0,7.0676,7.3898,7.5976,7.6663,7.6987,7.7011,7.4449,7.1575,6.8505,6.5706,0.0,0.0,0.0,0.0,0.0,0.0,0.0,0.0,0.0,0.0,0.0,0.0,0.0,0.0,0.0,0.0,0.0,0.0,0.0,0.0,0.0,0.0,0.0,0.0,0.0,0.0,0.0,0.0,0.0,0.0,0.0,0.0,0.0,0.0,0.0,0.0,0.0,0.0,0.0,0.0,0.0,0.0,0.0,0.0,0.0,0.0,0.0,0.0,0.0,0.0,0.0,0.0,0.0,0.0,0.0,0.0,0.0,0.0,0.0,0.0,0.0,0.0,0.0,0.0,0.0,0.0,0.0,0.0,0.0,0.0,0.0,0.0,0.0,0.0,0.0,0.0,0.0,0.0,0.0,0.0,0.0,0.0,0.0,0.0,0.0,0.0,0.0,0.0,0.0,0.0,0.0,0.0,0.0,0.0,0.0,0.0,0.0,0.0,0.0,0.0,0.0,0.0,7.1393,7.434,7.765,7.7339,7.6936,7.6994,7.3865,7.1126,6.9323,6.5991,0.0,0.0,0.0,0.0,0.0,0.0,0.0,0.0,0.0,0.0,0.0,0.0,0.0,0.0,0.0,0.0,0.0,0.0,0.0,0.0,0.0,0.0,0.0,0.0,0.0,0.0,0.0,0.0,0.0,0.0,0.0,0.0,0.0,0.0,0.0,0.0,0.0,0.0,0.0,0.0,0.0,0.0,0.0,0.0,0.0,0.0,0.0,0.0,0.0,0.0,0.0,0.0,0.0,0.0,0.0,0.0,0.0,0.0,0.0,0.0,0.0,0.0,0.0,0.0,0.0,0.0,0.0,0.0,0.0,0.0,0.0,0.0,0.0,0.0,0.0,0.0,0.0,0.0,0.0,0.0,0.0,0.0,0.0,0.0,0.0,0.0,0.0,0.0,0.0,0.0,0.0,0.0,0.0,0.0,0.0,0.0,0.0,0.0,0.0,0.0,0.0,0.0,7.2368,7.5365,0.0,7.7092,7.7157,7.7751,7.5101,7.249,7.024,0.0,0.0,0.0,0.0,0.0,0.0,0.0,0.0,0.0,0.0,0.0,0.0,0.0,0.0,0.0,0.0,0.0,0.0,0.0,0.0,0.0,0.0,0.0,0.0,0.0,0.0,0.0,0.0,0.0,0.0,0.0,0.0,0.0,0.0,0.0,0.0,0.0,0.0,0.0,0.0,0.0,0.0,0.0,0.0,0.0,0.0,0.0,0.0,0.0,0.0,0.0,0.0,0.0,0.0,0.0,0.0,0.0,0.0,0.0,0.0,0.0,0.0,0.0,0.0,0.0,0.0,0.0,0.0,0.0,0.0,0.0,0.0,0.0,0.0,0.0,0.0,0.0,0.0,0.0,0.0,0.0,0.0,0.0,0.0,0.0,0.0,0.0,0.0,0.0,0.0,0.0,0.0,0.0,0.0,0.0,0.0,0.0,0.0,0.0,0.0,0.0,0.0,6.937,7.3066,7.6023,0.0,7.7064,7.7261,7.8183,7.5624,7.3142,7.1115,0.0,0.0,0.0,0.0,0.0,0.0,0.0,0.0,0.0,0.0,0.0,0.0,0.0,0.0,0.0,0.0,0.0,0.0,0.0,0.0,0.0,0.0,0.0,0.0,0.0,0.0,0.0,0.0,0.0,0.0,0.0,0.0,0.0,0.0,0.0,0.0,0.0,0.0,0.0,0.0,0.0,0.0,0.0,0.0,0.0,0.0,0.0,0.0,0.0,0.0,0.0,0.0,0.0,0.0,0.0,0.0,0.0,0.0,0.0,0.0,0.0,0.0,0.0,0.0,0.0,0.0,0.0,0.0,0.0,0.0,0.0,0.0,0.0,0.0,0.0,0.0,0.0,0.0,0.0,0.0,0.0,0.0,0.0,0.0,0.0,0.0,0.0,0.0,0.0,0.0,0.0,0.0,0.0,0.0,0.0,0.0,0.0,0.0,0.0,0.0,0.0,0.0,7.0187,7.3426,7.621,7.7921,7.7408,7.7258,7.8118,7.5066,7.2752,0.0,0.0,0.0,0.0,0.0,0.0,0.0,0.0,0.0,0.0,0.0,0.0,0.0,0.0,0.0,0.0,0.0,0.0,0.0,0.0,0.0,0.0,0.0,0.0,0.0,0.0,0.0,0.0,0.0,0.0,0.0,0.0,0.0,0.0,0.0,0.0,0.0,0.0,0.0,0.0,0.0,0.0,0.0,0.0,0.0,0.0,0.0,0.0,0.0,0.0,0.0,0.0,0.0,0.0,0.0,0.0,0.0,0.0,0.0,0.0,0.0,0.0,0.0,0.0,0.0,0.0,0.0,0.0,0.0,0.0,0.0,0.0,0.0,0.0,0.0,0.0,0.0,0.0,0.0,0.0,0.0,0.0,0.0,0.0,0.0,0.0,0.0,0.0,0.0,0.0,0.0,0.0,0.0,0.0,0.0,0.0,0.0,0.0,0.0,0.0,0.0,0.0,0.0,7.1086,7.4778,7.7499,7.8037,7.8442,7.8552,7.8221,7.6132,7.4002,7.1938,0.0,0.0,0.0,0.0,0.0,0.0,0.0,0.0,0.0,0.0,0.0,0.0,0.0,0.0,0.0,0.0,0.0,0.0,0.0,0.0,0.0,0.0,0.0,0.0,0.0,0.0,0.0,0.0,0.0,0.0,0.0,0.0,0.0,0.0,0.0,0.0,0.0,0.0,0.0,0.0,0.0,0.0,0.0,0.0,0.0,0.0,0.0,0.0,0.0,0.0,0.0,0.0,0.0,0.0,0.0,0.0,0.0,0.0,0.0,0.0,0.0,0.0,0.0,0.0,0.0,0.0,0.0,0.0,0.0,0.0,0.0,0.0,0.0,0.0,0.0,0.0,0.0,0.0,0.0,0.0,0.0,0.0,0.0,0.0,0.0,0.0,0.0,0.0,0.0,0.0,0.0,0.0,0.0,0.0,0.0,0.0,0.0,0.0,0.0,0.0,0.0,0.0,7.2452,7.5793,7.8297,7.9014,7.9265,7.9181,7.8713,7.7092,7.5041,7.2495,0.0,0.0,0.0,0.0,0.0,0.0,0.0,0.0,0.0,0.0,0.0,0.0,0.0,0.0,0.0,0.0,0.0,0.0,0.0,0.0,0.0,0.0,0.0,0.0,0.0,0.0,0.0,0.0,0.0,0.0,0.0,0.0,0.0,0.0,0.0,0.0,0.0,0.0,0.0,0.0,0.0,0.0,0.0,0.0,0.0,0.0,0.0,0.0,0.0,0.0,0.0,0.0,0.0,0.0,0.0,0.0,0.0,0.0,0.0,0.0,0.0,0.0,0.0,0.0,0.0,0.0,0.0,0.0,0.0,0.0,0.0,0.0,0.0,0.0,0.0,0.0,0.0,0.0,0.0,0.0,0.0,0.0,0.0,0.0,0.0,0.0,0.0,0.0,0.0,0.0,0.0,0.0,0.0,0.0,0.0,0.0,0.0,0.0,0.0,0.0,0.0,0.0,7.3967,7.6609,7.8901,8.0649,8.0258,7.9804,7.9641,7.809,7.6028,7.3414,0.0,0.0,0.0,0.0,0.0,0.0,0.0,0.0,0.0,0.0,0.0,0.0,0.0,0.0,0.0,0.0,0.0,0.0,0.0,0.0,0.0,0.0,0.0,0.0,0.0,0.0,0.0,0.0,0.0,0.0,0.0,0.0,0.0,0.0,0.0,0.0,0.0,0.0,0.0,0.0,0.0,0.0,0.0,0.0,0.0,0.0,0.0,0.0,0.0,0.0,0.0,0.0,0.0,0.0,0.0,0.0,0.0,0.0,0.0,0.0,6.1273,0.0,0.0,0.0,0.0,0.0,0.0,0.0,0.0,0.0,0.0,0.0,0.0,0.0,0.0,0.0,0.0,0.0,0.0,0.0,0.0,0.0,0.0,0.0,0.0,0.0,0.0,0.0,0.0,0.0,0.0,0.0,0.0,0.0,0.0,0.0,0.0,0.0,0.0,0.0,0.0,0.0,7.49,7.8046,8.0688,8.2398,8.3019,8.2841,8.1547,7.9851,7.7506,7.4314,7.1728,0.0,0.0,0.0,0.0,0.0,0.0,0.0,0.0,0.0,0.0,0.0,0.0,0.0,0.0,0.0,0.0,0.0,0.0,0.0,0.0,0.0,0.0,0.0,0.0,0.0,0.0,0.0,0.0,0.0,0.0,0.0,0.0,0.0,0.0,0.0,0.0,0.0,0.0,0.0,0.0,0.0,0.0,0.0,0.0,0.0,0.0,0.0,0.0,0.0,0.0,0.0,0.0,0.0,0.0,0.0,0.0,0.0,0.0,0.0,0.0,6.1488,0.0,0.0,0.0,0.0,0.0,0.0,0.0,0.0,0.0,0.0,0.0,0.0,0.0,0.0,0.0,0.0,0.0,0.0,0.0,0.0,0.0,0.0,0.0,0.0,0.0,0.0,0.0,0.0,0.0,0.0,0.0,0.0,0.0,0.0,0.0,0.0,0.0,0.0,0.0,0.0,7.6376,7.9367,8.1854,8.3563,8.4146,8.3756,8.2131,8.0785,7.8776,7.5781,7.3223,0.0,0.0,0.0,0.0,0.0,0.0,0.0,0.0,0.0,0.0,0.0,0.0,0.0,0.0,0.0,0.0,0.0,0.0,0.0,0.0,0.0,0.0,0.0,0.0,0.0,0.0,0.0,0.0,0.0,0.0,0.0,0.0,0.0,0.0,0.0,0.0,0.0,0.0,0.0,0.0,0.0,0.0,0.0,0.0,0.0,0.0,0.0,0.0,0.0,0.0,0.0,0.0,0.0,6.6661,6.7113,6.7218,6.7845,6.8098,6.7927,6.569,6.4411,6.3681,0.0,0.0,0.0,0.0,0.0,0.0,0.0,0.0,0.0,0.0,0.0,0.0,0.0,0.0,0.0,0.0,0.0,0.0,0.0,0.0,0.0,0.0,0.0,0.0,0.0,6.7019,6.6805,0.0,0.0,0.0,0.0,0.0,0.0,0.0,0.0,0.0,0.0,0.0,0.0,7.8085,8.061,8.2806,8.4631,8.4845,8.4222,8.2559,8.1625,7.9968,7.7286,7.4717,7.2225,0.0,0.0,0.0,0.0,0.0,0.0,0.0,0.0,0.0,0.0,0.0,0.0,0.0,0.0,0.0,0.0,0.0,0.0,0.0,0.0,0.0,0.0,0.0,0.0,0.0,0.0,0.0,0.0,0.0,0.0,0.0,0.0,5.2918,5.4459,0.0,0.0,0.0,0.0,0.0,0.0,0.0,0.0,0.0,0.0,0.0,0.0,0.0,6.5418,6.5599,6.7888,6.9447,7.0295,7.1193,7.2004,7.2662,7.2623,7.2635,7.2569,7.142,0.0,6.637,6.4641,0.0,0.0,0.0,0.0,0.0,0.0,0.0,0.0,0.0,0.0,0.0,0.0,0.0,0.0,0.0,0.0,0.0,0.0,0.0,0.0,0.0,0.0,6.927,6.9385,7.0032,7.0578,0.0,6.7557,6.5444,6.6838,0.0,0.0,0.0,0.0,0.0,0.0,0.0,0.0,7.966,8.1815,8.3871,8.6316,8.6612,8.5991,8.4297,8.3364,8.1476,7.8139,7.5532,7.3327,7.1524,6.8358,0.0,0.0,0.0,0.0,0.0,0.0,0.0,0.0,0.0,0.0,0.0,0.0,0.0,0.0,0.0,0.0,0.0,0.0,0.0,0.0,0.0,0.0,0.0,0.0,0.0,0.0,0.0,0.0,0.0,5.4047,5.5436,5.6162,5.7422,5.7985,0.0,0.0,0.0,0.0,0.0,0.0,0.0,0.0,0.0,6.5093,6.7031,6.8525,6.9464,7.112,7.2353,7.3189,7.4048,7.4368,7.4279,7.4572,7.4374,7.3883,7.3576,7.2609,7.0997,6.796,6.6513,6.5974,0.0,0.0,0.0,0.0,6.2752,6.3084,6.3546,6.4239,0.0,0.0,0.0,0.0,0.0,0.0,0.0,0.0,0.0,0.0,0.0,0.0,0.0,7.1902,7.2399,7.2832,7.3296,7.1236,6.9401,0.0,6.9149,6.8837,6.9207,0.0,0.0,0.0,0.0,7.7991,8.0864,8.3154,8.5113,8.6743,8.6961,8.6302,8.4629,8.3714,8.1964,7.9042,7.6864,7.4709,7.2492,7.0523,6.8553,0.0,0.0,0.0,0.0,0.0,0.0,0.0,0.0,0.0,0.0,0.0,0.0,0.0,0.0,0.0,0.0,0.0,0.0,0.0,0.0,0.0,0.0,0.0,0.0,0.0,0.0,0.0,0.0,5.6117,5.7544,5.7998,5.9318,5.9862,0.0,0.0,0.0,0.0,0.0,0.0,6.4453,6.6067,6.7432,6.8487,7.0131,7.1629,7.3034,7.4178,7.512,7.5782,7.6322,7.6284,7.5697,7.614,7.5972,7.526,7.5168,7.5156,7.4849,7.0997,6.9244,6.8859,6.7179,6.5987,6.5282,6.568,6.5564,6.532,6.591,6.6679,6.7333,6.6803,0.0,6.6576,6.5769,0.0,0.0,0.0,0.0,6.9103,7.0119,7.1686,7.3241,7.4128,7.4526,7.4924,7.5503,7.4654,7.3481,0.0,7.2014,7.188,7.2306,0.0,0.0,0.0,0.0,8.034,8.2514,8.465,8.6376,8.7442,8.7407,8.6729,8.5269,8.4124,8.2414,7.9887,7.806,7.6022,7.3657,7.2539,7.0689,6.7868,0.0,0.0,0.0,0.0,0.0,0.0,0.0,0.0,0.0,0.0,0.0,0.0,0.0,0.0,0.0,0.0,0.0,0.0,0.0,0.0,0.0,0.0,0.0,0.0,0.0,0.0,0.0,0.0,0.0,5.9589,6.0461,0.0,0.0,0.0,0.0,6.0872,6.3877,6.6112,6.6959,6.8616,7.0221,7.1794,7.3466,7.4781,7.5626,7.7339,7.8314,7.8402,7.8497,7.8497,7.8373,7.8361,7.83,7.8129,7.7259,7.6881,7.6613,7.3342,7.1514,7.0591,6.8855,6.7691,6.6859,6.6012,6.6269,6.6974,6.6973,6.7522,6.8367,6.9011,6.927,6.9145,6.8367,6.7587,0.0,0.0,6.9566,7.004,7.1749,7.3432,7.4896,7.5743,7.6646,7.7317,7.7356,7.7317,7.6739,0.0,7.3471,7.294,7.4548,0.0,7.6032,7.8668,7.9872,8.1698,8.5,8.6321,8.7544,8.9111,8.8649,8.7856,8.6941,8.5311,8.3252,8.0688,7.8901,7.7153,7.5444,7.3734,7.2375,7.1365,6.9772,0.0,0.0,0.0,0.0,0.0,0.0,0.0,0.0,0.0,0.0,0.0,0.0,0.0,0.0,0.0,0.0,0.0,0.0,0.0,0.0,0.0,0.0,0.0,0.0,0.0,0.0,0.0,0.0,6.125,6.2557,0.0,6.2144,6.2606,6.3214,6.3886,6.5128,6.6872,6.9327,7.1055,7.2716,7.4374,7.607,7.7374,7.8179,7.8929,7.96,8.0123,8.0092,7.9823,7.9254,7.9133,7.8765,7.8126,7.7816,7.7394,7.6854,7.5724,7.4482,7.3061,7.1401,7.0527,7.0153,6.9778,6.9923,7.0268,7.0754,7.1168,7.1428,7.1068,7.0954,7.0869,7.0085,7.0067,7.0459,7.1156,7.2486,7.3841,7.4514,7.5899,7.7216,7.7603,7.7968,7.8199,7.8199,7.8199,7.8006,7.7333,7.6415,7.6096,7.7316,7.8069,7.9076,8.0724,8.261,8.4495,8.6243,8.772,8.8805,8.9298,8.9172,8.8497,8.7137,8.5913,8.4146,8.1582,8.0339,7.8668,7.6376,7.5677,7.4162,7.1636,7.1015,6.9337,0.0,0.0,0.0,0.0,0.0,0.0,0.0,0.0,0.0,0.0,0.0,0.0,0.0,0.0,0.0,0.0,0.0,0.0,0.0,0.0,0.0,0.0,0.0,0.0,0.0,0.0,6.251,6.2914,6.4239,6.4806,6.4129,6.4385,6.5064,6.6375,6.7285,6.9011,7.1827,7.3552,7.5239,7.6892,7.808,7.9191,8.0267,8.0443,8.0965,8.1766,8.1431,8.097,8.0433,7.9995,7.9315,7.8441,7.8512,7.8049,7.7284,7.7352,7.6547,7.5058,7.3468,7.2656,7.2326,7.2326,7.2326,7.2402,7.2914,7.3111,7.3029,7.239,7.2357,7.2543,7.2103,7.2587,7.33,7.3389,7.4781,7.6286,7.634,7.7385,7.85,7.8892,7.8998,7.8998,7.8998,7.8998,7.8998,7.8938,7.8392,7.8219,7.9133,8.0144,8.1269,8.2551,8.4689,8.6652,8.801,8.9214,9.0125,9.0578,8.9926,8.9136,8.8361,8.6457,8.4534,8.2864,8.1116,7.9251,7.7231,7.6881,7.5521,7.2957,7.2064,7.0075,6.6983,0.0,0.0,0.0,0.0,0.0,0.0,0.0,0.0,0.0,0.0,0.0,0.0,0.0,0.0,0.0,0.0,0.0,0.0,0.0,0.0,0.0,0.0,0.0,5.99,6.137,6.3029,6.4609,6.5461,6.582,6.5685,6.6404,6.7187,6.7935,7.0304,7.2516,7.4375,7.6049,7.7735,7.9389,7.9466,8.0197,8.1805,8.2064,8.2518,8.3285,8.2441,8.2058,8.2096,8.1071,8.0231,7.9504,7.9427,7.893,7.8164,7.8164,7.7597,7.657,7.503,7.3948,7.3246,7.322,7.322,7.3284,7.3259,7.3161,7.3132,7.3132,7.3667,7.4316,7.4456,7.5064,7.5676,7.5737,7.6421,7.7073,7.7169,7.7815,7.8699,7.96,7.9862,7.9862,7.9862,7.9862,7.9862,7.9862,7.9345,7.9198,8.001,8.1159,8.2494,8.4223,8.599,0.0,9.0414,9.0785,9.1428,9.2992,9.0935,8.9814,9.0791,8.6924,8.4456,8.4456,8.131,7.9057,7.8163,7.7308,7.6454,7.556,7.2957,7.0386,6.7928,0.0,0.0,0.0,0.0,0.0,0.0,0.0,0.0,0.0,0.0,0.0,0.0,0.0,0.0,0.0,0.0,0.0,0.0,0.0,0.0,0.0,5.9436,6.1772,6.2393,6.4332,6.6051,6.6978,6.7803,6.805,6.7254,6.7973,6.8782,6.9493,7.0887,7.2945,7.585,7.6529,7.7826,8.0123,8.0811,8.1383,8.1879,8.26,8.3128,8.3389,8.3226,8.3149,8.3082,8.1987,8.1418,8.1188,8.043,7.9666,7.8976,7.8976,7.8441,7.7487,7.591,7.5107,7.4882,7.4847,7.5226,7.5761,7.5727,7.5727,7.5806,7.6418,7.6761,7.6953,7.7058,7.7245,7.7437,7.7538,7.8118,7.8769,7.8935,7.9555,8.0246,8.0638,8.0746,8.0746,8.0746,8.0746,8.0939,8.1516,8.16,8.171,8.1942,8.3367,8.488,8.6088,8.7815,0.0,9.0674,9.1374,9.1918,9.236,9.1106,9.0175,8.9916,8.7622,8.597,8.5389,8.3874,8.2359,8.0882,8.061,7.9173,7.6415,7.3301,7.1311,0.0,0.0,0.0,0.0,0.0,0.0,0.0,0.0,0.0,0.0,0.0,0.0,0.0,0.0,0.0,0.0,0.0,0.0,0.0,0.0,0.0,0.0,6.1366,6.3474,6.4715,6.6077,6.717,6.7875,6.8999,6.9437,6.8811,6.987,7.0865,7.1671,7.2543,7.4254,7.6922,7.776,7.8981,8.085,8.1728,8.2377,8.2874,8.31,8.363,8.4498,8.3802,8.3687,8.3961,8.2868,8.1994,0.0,8.1003,8.0278,7.9209,7.9591,7.9438,0.0,0.0,0.0,0.0,0.0,7.6838,7.7258,7.7258,7.7258,7.7335,7.7831,7.8022,7.8022,7.8056,7.8285,7.855,7.8279,7.8971,7.9813,7.9642,8.0179,8.0826,8.0959,8.1061,8.1093,8.1093,8.1362,8.1747,8.224,8.3123,0.0,8.4301,8.5374,8.632,8.6923,8.8844,9.0478,9.1296,9.1801,9.2343,9.3037,9.1873,9.0957,9.0591,8.8628,0.0,0.0,0.0,8.2592,8.0882,8.0491,0.0,0.0,0.0,7.2794,7.1732,0.0,0.0,0.0,6.4793,6.4491,0.0,0.0,0.0,0.0,0.0,0.0,0.0,0.0,0.0,0.0,0.0,0.0,0.0,0.0,0.0,0.0,6.3604,6.514,6.6787,6.7208,6.7531,6.8095,6.9442,7.022,7.0155,7.1634,7.2965,7.3877,7.4675,7.593,7.7759,0.0,0.0,0.0,0.0,8.3097,8.4136,8.3562,8.4169,8.5958,8.4352,8.4045,8.4806,8.3676,8.2377,8.1073,8.1538,8.0848,7.9552,8.0354,8.0659,8.0545,7.8826,7.8213,7.8252,7.8061,7.8061,7.8137,7.8137,0.0,0.0,7.8215,7.8253,7.8253,7.8253,7.8788,7.9283,7.8597,7.9436,8.039,7.9848,8.0302,8.0941,8.0893,8.1068,8.1208,8.1131,8.1747,8.2355,8.2524,8.4039,8.563,8.6674,8.6993,8.7196,8.7408,8.943,9.1199,9.1996,9.2071,9.2565,9.4063,0.0,0.0,9.1688,8.9709,8.8046,8.7059,8.3951,8.1504,7.995,7.8909,7.7968,7.7104,7.6217,7.4587,7.2237,7.2121,7.1327,6.9829,6.7881,6.6985,0.0,0.0,0.0,0.0,0.0,0.0,0.0,0.0,0.0,0.0,0.0,0.0,0.0,0.0,0.0,6.3236,6.5031,6.6656,6.8269,6.9611,7.0261,6.9801,7.003,7.0451,7.099,7.194,7.3117,7.4594,7.5547,7.6764,7.8514,7.8937,7.9588,8.0543,8.1263,8.2222,8.3371,8.3869,8.4747,8.5996,0.0,0.0,8.5791,8.4556,8.3831,8.3601,8.2713,8.2209,8.2025,8.2215,8.2335,8.2302,7.9933,7.9436,7.9856,7.8519,7.8443,7.9016,7.8942,7.8942,7.9094,7.9628,7.9857,7.9896,7.9818,7.9971,0.0,8.0774,8.0698,8.0658,8.1267,8.1643,8.1709,8.1047,8.1491,8.19,8.1246,8.177,8.2571,8.3295,8.4463,8.5785,8.741,8.7886,8.8497,8.9877,9.0576,9.1274,9.2091,9.2073,9.2148,9.2501,9.2082,9.1217,8.9911,9.0012,8.9221,8.7075,8.5019,8.3757,8.3446,8.1286,7.9709,7.8932,7.7399,7.604,7.4847,7.4209,7.3715,7.3336,7.0219,6.8788,0.0,0.0,0.0,0.0,0.0,0.0,0.0,0.0,0.0,0.0,0.0,5.6792,5.9396,0.0,6.1936,6.4856,6.7011,6.8621,6.9353,7.0875,7.1635,7.0836,7.1445,7.2054,7.2433,7.3571,7.4632,7.5425,7.6717,7.7821,7.8656,7.9533,8.0262,8.0722,8.1516,8.2482,8.3678,8.3678,8.4479,8.6065,8.5642,8.5676,8.6094,8.5355,8.4824,8.4478,8.3633,8.3129,8.2828,8.3328,8.36,8.3676,8.2413,8.1879,8.1727,8.0849,8.0736,8.1041,8.0545,8.0354,8.0354,8.0235,8.054,8.0885,8.0804,8.1189,8.1726,8.2146,8.1996,8.1843,8.2339,8.2564,8.2595,8.2203,8.2534,8.2824,8.2502,8.3072,8.3864,8.4368,8.5307,8.6558,8.836,8.8761,8.9313,9.0635,9.1295,9.1776,9.2182,9.2113,9.2343,9.3239,9.2755,9.2014,9.127,9.0066,8.87,8.7057,8.5388,8.4241,8.3834,8.182,8.0489,8.0123,7.8468,7.717,7.6313,7.5468,7.4817,7.435,7.2206,7.1204,0.0,0.0,0.0,0.0,0.0,0.0,0.0,0.0,5.7377,5.8025,5.8292,5.9159,6.1611,6.2658,6.3969,6.6521,6.8739,7.019,7.0194,7.1674,7.2472,7.1826,7.2698,7.3454,7.3606,7.497,7.5994,7.6335,7.7737,7.8685,7.8836,8.0125,8.0845,8.0889,8.1527,8.2466,8.3754,8.318,8.3943,8.5863,8.533,8.5445,8.6094,8.5887,8.5432,8.4782,8.4478,8.3977,8.3445,8.4211,8.4634,8.4819,8.4819,8.4361,8.3638,8.3181,8.295,8.2794,8.2068,8.172,8.1565,8.0839,8.1067,8.16,8.16,8.2215,8.2907,8.3059,8.295,8.2837,8.3181,8.3293,8.3285,8.3285,8.361,8.3849,8.3719,8.4404,8.5111,8.5268,8.6068,8.7265,8.9088,8.9426,8.9856,9.0966,9.1762,9.2226,9.2276,9.2113,9.2516,9.3935,9.3581,9.3253,9.3335,9.0143,8.8007,8.7545,8.5754,8.4349,8.3498,8.2036,8.1143,8.0805,7.9312,7.8129,7.7233,7.6376,7.5596,7.4895,7.3843,7.3258,5.7506,5.6844,5.679,5.8224,5.8634,5.8891,0.0,0.0,5.9627,5.9794,6.0441,6.1507,6.3328,6.4285,6.566,6.8139,6.9359,7.0195,7.0915,7.2393,7.3414,7.3257,7.2846,7.281,7.353,7.4478,7.5653,7.7131,7.8078,7.895,7.9708,7.9936,8.0055,8.0102,8.0043,8.0676,8.2145,8.2529,8.3525,8.5055,8.5604,8.595,8.6094,8.5887,8.5741,8.5552,8.5235,8.5076,8.5044,8.528,8.5475,8.5662,8.5662,8.555,8.5207,8.3601,8.295,8.283,8.2551,8.2471,8.2513,8.2266,8.2266,8.2385,8.2336,8.2461,8.2859,8.3659,8.2947,8.2264,8.3754,8.3714,8.3285,8.3285,8.4105,8.4643,8.3873,8.4551,8.5268,8.5294,8.6093,8.7313,8.9088,8.9421,8.9987,9.1721,9.2093,9.221,9.2226,9.2092,9.2083,9.2265,9.3349,9.4132,9.4227,9.0492,8.8451,8.9255,8.7019,8.5266,8.4388,8.3516,8.2323,8.0844,7.9858,7.8987,7.8168,7.7272,7.6804,7.6688,7.5012,7.3854,5.9209,5.8901,5.8911,5.9569,6.0455,6.1073,6.0836,6.1527,6.2064,6.1538,6.1728,6.2487,6.4158,6.511,6.6442,0.0,7.0343,7.1398,7.2267,7.3401,7.4119,7.4199,7.4317,7.4585,7.4926,7.5759,7.6743,7.8002,7.8874,7.9519,7.986,7.9898,7.9898,7.9816,7.9728,8.0325,8.1652,8.2414,8.3486,8.4901,8.5676,8.6026,8.6065,8.5923,8.5854,8.5705,8.5551,8.5511,8.5551,8.559,8.5742,8.5887,8.5887,8.5854,8.559,8.4748,8.4282,8.4035,8.3454,8.3259,8.3139,8.2595,8.2747,8.3171,8.3259,8.3688,8.4196,8.4167,8.4057,8.4021,8.425,8.4518,8.4742,8.4851,8.5291,8.5637,8.5381,8.5716,8.6249,8.6778,8.7289,8.8157,8.9848,9.0181,9.0651,9.1915,9.2151,9.2191,9.2132,9.2049,9.2154,9.2561,9.354,9.4055,9.3724,9.1151,8.9554,8.9605,8.7193,8.5438,8.4591,8.3311,8.2286,8.1572,8.0182,7.9337,7.8987,7.7662,7.6999,7.696,7.5713,7.4711,6.0525,6.0357,6.0387,6.1081,6.2046,6.2748,6.2307,6.3331,6.4168,6.3527,6.3568,6.4174,6.5648,6.6447,6.7656,6.9697,7.1316,7.2595,7.3237,7.3991,7.4563,7.4649,7.5367,7.5971,7.6241,7.7079,7.7765,7.823,7.9291,7.9898,7.9898,7.9854,7.981,7.9683,7.9638,8.0157,8.134,8.2256,8.3372,8.4694,8.5608,8.5992,8.5923,8.5926,8.5854,8.5705,8.5896,8.6011,8.6011,8.6087,8.6199,8.6303,8.6073,8.5815,8.5628,8.5511,8.527,8.498,8.436,8.4088,8.393,8.3361,8.3506,8.3999,8.4182,8.4724,8.511,8.4666,8.486,8.5091,8.4787,8.5129,8.558,8.5988,8.6159,8.6315,8.6472,8.6583,8.6894,8.7836,8.8088,8.8723,9.0392,9.0746,9.11,9.1954,9.211,9.211,9.2049,9.1983,9.2289,9.3253,9.365,9.3784,9.353,9.1965,9.0563,8.9644,8.7677,8.5938,8.466,8.3455,8.2572,8.2104,8.0389,7.9493,7.9493,7.7818,7.6999,7.6999,7.6103,7.5363,6.1133,6.0746,6.0677,6.2952,6.3527,6.3719,6.4369,6.5162,6.5766,6.5842,6.6484,6.7239,6.8224,6.894,6.9728,7.0633,7.218,7.3274,7.3312,7.3991,7.4519,7.4519,7.5274,7.6149,0.0,7.8036,7.8268,7.7472,7.895,7.9898,7.9898,7.981,7.9683,7.9683,7.9453,7.984,8.0997,8.2,8.3091,8.4251,8.532,8.5815,8.5815,8.5742,8.5705,8.5743,8.6468,8.6774,8.6853,8.7005,8.7079,8.711,8.6303,8.5779,8.5511,8.5352,8.5311,8.527,8.4999,8.4961,8.5181,8.5143,8.5006,8.4909,8.5094,8.5181,8.5219,8.5181,8.4777,8.4557,8.5512,8.5273,8.4955,8.596,8.6345,8.65,8.65,8.661,8.6945,8.7836,8.8088,8.8723,9.0392,9.0746,9.11,9.1954,9.1983,9.1912,9.1905,9.1785,9.234,9.3959,9.3495,9.3397,9.4292,9.2818,9.1222,8.9683,8.8805,8.7183,8.4699,8.4624,8.3819,8.2143,8.0389,7.9493,7.9493,7.7818,7.6999,7.6999,7.6103,7.5686,6.1621,6.1907,6.2606,6.341,6.4781,6.5842,6.5502,6.6483,6.7503,6.7618,6.7353,6.7579,6.9133,6.9428,6.9909,7.1388,7.2429,7.3244,7.3801,7.4101,7.4342,7.4476,7.5274,0.0,0.0,0.0,0.0,7.8988,7.9064,7.9248,7.9772,7.9728,7.9592,7.9453,7.9849,8.0321,8.0863,8.3057,8.4462,8.5169,8.6812,8.7305,8.6732,8.6659,8.6315,8.5779,8.6048,8.6432,8.6853,8.6356,8.6545,8.7041,8.6124,8.5704,8.559,8.5393,8.5393,8.5511,8.5044,8.4999,8.5219,8.5094,8.5181,8.5308,8.527,8.5349,8.5276,8.4742,8.486,8.5054,8.5012,8.5273,8.5681,8.6138,8.6375,8.6528,8.6556,8.7062,8.781,8.8636,8.9382,9.0175,9.1243,9.1556,9.1872,9.2535,9.2161,9.2006,9.2483,9.2982,9.3737,9.4926,9.4867,9.4652,9.4447,9.3449,9.1889,8.9722,8.8844,8.7534,8.5556,8.4429,8.3546,8.2961,8.1247,8.0078,7.9493,7.8402,7.7584,7.6999,7.671,7.6253,6.2743,6.3327,6.4209,6.5009,6.6597,6.7836,6.7532,6.8323,6.9118,6.924,6.8558,6.8294,6.9587,7.0108,7.0701,7.1794,7.2799,7.3605,7.4122,7.4197,7.4289,7.4432,7.5494,7.5991,0.0,0.0,0.0,7.895,7.8983,7.9204,7.9645,7.9638,7.9697,7.9725,8.0203,8.0779,8.149,8.3398,8.4861,8.5932,8.7581,8.8077,8.754,8.7578,8.7234,8.6736,8.7005,8.7389,8.781,8.7274,8.7236,8.7389,8.6509,8.5896,8.559,8.5433,8.5433,8.5511,8.5044,8.5132,8.5391,8.5224,8.5349,8.5511,8.5473,8.5513,8.5436,8.4978,8.5208,8.5627,8.527,8.5642,8.6159,8.6375,8.6461,8.6633,8.697,8.7526,8.8287,8.9395,9.021,9.0904,9.1696,9.2159,9.2533,9.2866,9.2451,9.2422,9.3175,9.3493,9.4072,9.5352,9.5254,9.495,9.4447,9.3721,9.2377,9.0169,8.9311,8.8101,8.6382,8.4727,8.3702,8.339,8.1675,8.0389,7.9493,7.8675,7.7857,7.6999,7.6994,7.6702,6.4506,6.4929,6.55,6.7648,6.8847,6.967,7.0411,7.0517,7.0524,7.0654,6.9976,6.9453,6.9652,0.0,7.1987,7.1896,7.3326,7.4335,7.4197,7.4197,7.4281,0.0,0.0,0.0,0.0,0.0,0.0,7.7467,0.0,7.9645,7.9683,7.9584,7.9868,8.0478,8.053,8.1256,8.2796,8.3175,8.4391,8.6518,8.773,8.8232,8.8155,8.8385,8.8422,8.8345,8.9113,8.9418,8.9418,8.9418,8.8959,8.8116,8.7313,8.6355,8.5511,8.555,8.5431,8.527,8.5037,8.5342,8.5817,8.559,8.555,8.5589,8.5742,8.5742,8.5743,8.5705,8.5854,8.6031,8.6191,8.6246,8.6336,8.6544,8.661,8.6842,8.7731,8.7963,8.8466,9.0091,9.0547,9.0894,9.1735,9.2483,9.2998,9.2953,9.2805,9.302,9.3907,9.329,9.3469,9.5313,9.4818,9.4369,9.4408,9.3721,9.2588,9.0905,9.011,8.8918,8.7167,8.557,8.4286,8.3429,8.1675,8.0389,7.9493,7.8675,7.7857,7.6999,7.6994,7.6985,6.5836,6.656,6.7692,6.8813,6.9627,7.0449,7.1193,7.093,7.0712,7.1492,7.0475,6.9645,7.0488,7.135,7.1939,7.1896,7.3199,0.0,7.4197,7.4197,0.0,7.5246,0.0,7.6195,7.6934,7.7719,0.0,0.0,7.8428,7.8912,7.9369,7.9924,8.029,8.0405,8.1557,8.2383,8.2834,8.4561,8.6159,8.7607,8.8807,8.8764,8.7645,8.8948,8.8487,8.6757,8.8259,8.8841,8.8692,8.8692,8.85,8.8193,8.7923,8.6928,8.5705,8.6118,8.6046,8.5705,8.5861,8.6261,8.6509,8.5858,8.6163,8.6621,8.5933,8.5817,8.5926,8.5815,8.5852,8.6026,8.6215,8.6277,8.6336,8.6544,8.661,8.6842,8.7731,8.8428,8.9163,9.0207,9.0931,9.1721,9.2613,9.2843,9.3118,9.3655,9.3129,9.302,9.3907,9.3792,9.4126,9.539,9.5388,9.508,9.4447,9.3768,9.2632,9.0905,9.0072,8.8883,8.7167,8.5502,8.426,8.3429,8.1675,8.0389,7.9493,7.865,7.7793,7.6999,7.6994,7.6985,6.7127,6.792,6.9008,6.9708,7.0712,7.1569,7.1681,7.1426,7.1175,7.1379,7.0403,6.969,7.0262,7.1316,7.1982,7.1896,7.3244,7.4243,7.4197,7.4197,7.4385,0.0,7.5605,0.0,7.6789,7.7918,7.8634,0.0,7.8737,7.9076,7.9763,8.0252,8.0805,8.1407,8.2345,8.3035,8.3476,8.5356,8.6627,8.7336,8.8577,8.8725,8.7875,8.8906,8.8786,8.7825,0.0,8.9299,8.9458,8.9075,8.8615,8.8114,8.7691,8.6736,8.5666,8.6086,8.6202,8.6241,8.6201,8.6775,8.7351,8.6432,8.666,8.7107,8.6156,8.5958,8.606,8.5958,8.606,8.6261,8.6315,8.6404,8.6461,8.6583,8.688,8.7422,8.8273,8.9124,8.9975,9.0826,9.1339,9.1803,9.2367,9.2963,9.3508,9.3907,9.3875,9.3836,9.3985,9.3985,9.4357,9.539,9.5299,9.4951,9.4447,9.3442,9.2265,9.0866,9.0033,8.8865,8.7133,8.5471,8.4178,8.3389,8.1675,8.0351,7.9442,7.8624,7.7793,7.6999,7.6994,7.7024,6.86,6.9237,6.9834,7.0599,7.1794,7.2583,7.1982,7.1808,7.1438,7.0616,7.0029,6.9622,6.9466,7.0942,7.2109,7.1896,7.3401,7.4531,7.4235,7.4356,7.4469,7.4535,7.5774,7.6713,7.6976,7.8387,7.9214,7.9116,7.929,7.9677,8.029,8.0553,8.1357,8.2946,8.2984,8.3439,8.4405,8.5721,8.6442,8.6442,8.7771,8.8346,8.8268,8.8563,8.9017,8.9594,8.9719,0.0,9.0685,8.984,8.9034,8.8186,8.7422,8.6543,8.5704,8.601,8.6356,8.6661,8.6307,8.7,8.7926,8.6968,8.6966,8.7209,8.6363,8.6159,8.6191,8.628,8.6401,8.651,8.6568,8.6577,8.6648,8.6764,8.7345,8.813,8.9124,8.9947,9.0759,9.1494,9.1629,9.16,9.1736,9.2936,9.3924,9.3952,9.4617,9.4771,9.3946,9.394,9.4312,9.512,9.4601,9.4175,9.4098,9.286,9.1682,9.0672,8.9858,8.8633,8.6903,8.5227,8.3937,8.3159,8.1477,8.0192,7.9384,7.8479,7.765,7.6987,7.6983,7.7024,7.0976,7.0889,7.0766,7.2139,7.2207,7.2057,7.2583,7.1681,7.053,6.9834,6.9532,6.9269,6.8633,7.0399,7.1896,7.1764,7.3898,7.5223,7.4356,7.4945,7.5705,7.6235,7.6525,7.7201,7.8553,7.8928,0.0,0.0,7.9804,7.9954,7.9391,8.0668,8.2158,8.381,8.4016,8.4205,8.4405,8.5721,8.6447,8.6655,8.7849,8.8113,8.7598,8.8363,8.8363,8.7902,8.922,0.0,8.9803,8.9572,8.9338,8.9065,8.895,8.7959,8.6738,8.7504,8.7082,8.6194,8.6622,8.7079,8.741,8.6492,8.6684,8.7107,8.6329,8.6094,8.628,8.7038,8.6863,8.6607,8.736,8.7097,8.6803,8.7499,8.7754,8.8228,8.9774,9.072,9.1307,9.1484,9.1462,9.1662,9.2396,9.3263,9.3855,9.3782,9.451,9.4579,9.3136,9.3585,9.3948,9.3495,9.3439,9.3129,9.2392,9.22,9.141,8.9818,8.8963,8.7798,8.6086,8.4336,8.3048,8.2225,8.0528,7.9555,7.9384,7.7797,7.6995,7.6922,7.6897,7.6944,7.1845,7.1944,7.204,7.2741,7.262,7.232,7.2282,7.1388,7.0234,6.9039,6.8816,6.8553,6.7723,6.931,7.0856,7.1186,7.3506,7.521,7.5028,7.5456,7.5977,7.6611,7.6638,7.7126,7.8365,7.9266,7.9792,7.9792,8.0543,8.0843,8.043,8.2007,8.3284,8.4073,8.4293,8.4454,8.4599,8.5437,8.6192,8.6852,8.7081,8.719,8.7295,8.7329,8.7594,8.8094,8.8336,0.0,8.9573,8.9036,8.8804,8.8683,8.8726,8.8001,8.6968,8.7504,8.7158,8.6467,8.6501,8.6844,8.711,8.6368,8.6637,8.7141,8.6363,8.6126,8.6236,8.6659,8.6632,8.6559,8.6945,8.6837,8.6842,8.7693,8.8527,8.9407,9.0551,9.1129,9.14,9.14,9.1368,9.1457,9.1848,9.2969,9.3628,9.3133,9.4205,9.4506,9.2878,9.3059,9.33,9.3002,9.2703,9.2353,9.1927,9.119,9.0206,8.8963,8.8108,8.6885,8.5155,8.3834,8.2763,8.1964,8.027,7.9376,7.932,7.7648,7.6809,7.6855,7.6885,7.6926,7.2364,7.2724,7.3049,7.3146,7.2875,7.2424,7.1869,7.0824,6.9633,6.8207,6.7947,6.7686,6.6817,6.8254,6.9844,7.0674,7.3219,7.5229,7.5658,7.5922,7.6286,7.6788,7.6665,7.6965,7.8016,7.9492,0.0,8.013,8.1031,8.167,8.1857,8.3096,8.3922,8.4073,8.4481,8.4692,8.4694,8.5676,8.6386,8.6929,8.6657,8.6764,8.7222,8.6411,8.6906,8.8329,8.7494,0.0,0.0,8.85,8.8192,8.8112,8.8231,8.7696,8.6968,8.7116,8.7,8.666,8.6257,8.6453,8.6809,8.6257,8.6555,8.6978,8.6324,8.6126,8.623,8.6357,8.6439,8.651,8.6645,8.677,8.7124,8.8141,8.9445,9.0628,9.1121,9.1308,9.1374,9.1275,9.1275,9.1241,9.121,9.2441,9.321,9.2595,9.382,9.4313,9.2772,9.2679,9.262,9.2461,9.1914,9.1592,9.1616,9.0275,8.9136,8.8341,8.7292,8.601,8.4456,8.3408,8.2553,8.1892,8.0258,7.9364,7.929,7.7615,7.6793,7.6786,7.704,7.7121,7.3462,7.34,7.2885,7.3672,7.2735,7.1658,7.1674,6.9879,6.8006,6.7187,6.6958,6.6733,6.5948,6.7672,6.9595,7.0633,7.3711,7.5914,7.5733,7.6463,7.7123,7.7554,7.698,7.713,7.8653,7.9779,8.0055,7.9266,8.0693,8.1932,8.2646,8.2834,8.3284,8.4073,8.5046,8.5197,8.4454,8.7338,8.8061,8.6774,8.7771,8.7952,8.7363,8.6449,8.6496,8.734,8.7044,0.0,0.0,8.8231,8.8193,8.8231,8.8309,8.7885,8.7151,8.7187,8.6761,8.6176,8.6132,8.617,8.6176,8.6132,8.617,8.6209,8.6132,8.6094,8.628,8.7154,8.6902,8.6607,8.7437,8.7754,8.8141,8.9478,9.0466,9.1095,9.1026,9.1136,9.1245,9.121,9.121,9.121,9.121,9.1979,9.2595,9.2518,9.3358,9.3658,9.2734,9.2711,9.2218,9.0711,9.0527,9.0598,9.0725,8.9903,8.9094,8.8341,8.6749,8.5389,8.4456,8.2864,8.197,8.1892,8.0183,7.929,7.929,7.7541,7.6687,7.6743,7.7637,7.7673,7.3191,7.3419,7.3415,7.3752,7.2967,7.1892,7.1058,6.9671,6.8103,6.6428,6.6053,6.5749,6.5003,6.7045,6.8979,6.9398,7.3004,7.5818,7.6076,7.6913,7.7813,7.8681,7.8022,7.7899,7.8954,8.0267,8.1407,8.2045,8.2721,8.3247,8.3585,8.3585,8.3735,8.4073,8.4619,8.4997,8.5296,8.6176,8.6947,8.7578,8.712,8.7072,8.7363,8.6483,8.6488,8.7257,8.6617,0.0,0.0,8.7542,8.7543,8.7581,8.8192,8.8265,8.7917,8.7487,8.7137,8.6824,8.6286,8.6094,8.6094,8.6094,8.6094,8.6094,8.6094,8.6094,8.6203,8.6576,8.6902,8.7108,8.7012,8.7775,8.8575,8.8906,9.0101,9.1175,9.0953,9.1103,9.121,9.121,9.121,9.121,9.121,9.2326,9.2864,9.1864,9.29,9.332,9.1934,9.1842,9.167,9.1006,9.0682,9.0314,8.9872,8.9531,8.8861,8.7603,8.6865,8.5622,8.3679,8.298,8.2398,8.1892,8.0183,7.929,7.929,7.7541,7.6687,7.6726,7.7209,7.7506,7.2395,7.2913,7.3441,7.349,7.2769,7.1845,7.0638,6.9334,6.7916,6.6237,6.5674,6.5261,6.4434,6.6783,6.8793,0.0,7.2319,7.5436,7.5932,7.6882,7.8011,7.9366,7.898,7.8925,7.9816,8.0969,8.2308,8.396,8.3847,8.3922,8.4448,8.4223,8.4223,8.4448,8.4605,8.5135,8.6127,8.6122,8.6633,8.7653,8.693,8.6729,8.6978,8.6368,8.6406,8.6945,8.6265,0.0,0.0,8.7003,8.7003,8.6849,8.7801,8.8029,8.776,8.7483,8.7248,8.6978,8.6594,8.6324,8.6094,8.6094,8.6094,8.617,8.6401,8.6286,8.6126,8.6223,8.6963,8.7601,8.7283,8.8228,8.9189,8.9109,9.0144,9.11,9.0953,9.1064,9.121,9.121,9.121,9.121,9.121,9.2172,9.2556,9.1364,9.221,9.2518,9.1364,9.1275,9.1258,9.1091,9.0924,9.0624,9.0104,8.9647,8.8878,8.7797,8.702,8.5661,8.3563,8.3019,8.2475,8.1892,8.0455,7.9562,7.929,7.7813,7.6976,7.6721,7.7105,7.7763,7.1141,7.2005,7.2545,7.2688,7.2005,7.1135,7.0623,6.8565,6.68,6.6762,6.6087,6.5261,6.4434,6.7112,6.9234,6.8679,7.2011,7.4778,7.5095,7.6262,7.776,7.9418,7.9569,8.0159,8.1619,8.1696,8.2308,8.396,8.3322,0.0,8.5199,8.4523,8.4448,8.5274,8.5432,8.5861,8.6651,8.7998,8.7953,8.6532,8.7695,8.7535,8.6132,8.6031,8.5996,0.0,0.0,0.0,0.0,8.6844,8.6726,8.6073,8.7022,8.6863,8.6247,8.7094,8.6863,8.6247,8.7094,8.6824,8.6094,8.6094,8.6094,8.6247,8.7132,8.6786,8.6126,8.6323,8.7118,8.8025,8.8691,8.9446,9.0124,9.0834,9.0989,9.0989,9.0989,9.11,9.121,9.121,9.121,9.121,9.121,9.121,9.121,9.121,9.121,9.121,9.121,9.1341,9.1091,9.0319,9.1088,9.1732,9.1863,9.0298,8.9337,8.9468,8.7098,8.5311,8.4418,8.2786,8.1892,8.1892,8.1038,8.0144,7.929,7.8435,7.7593,7.6816,7.7754,7.8701,6.9709,7.0733,7.1685,7.1733,7.1088,7.0313,6.9627,6.8022,6.6528,6.6049,6.5674,6.5261,6.4434,6.7273,6.9434,6.8526,7.1635,7.4333,7.4824,7.6752,7.8258,7.861,7.9519,8.073,8.2322,0.0,8.3509,8.4073,8.4861,8.5086,8.4523,8.538,8.5733,8.547,8.5009,8.5273,8.6165,8.6142,8.6222,8.6442,8.7001,8.6777,8.5961,8.7257,8.7214,0.0,0.0,0.0,0.0,8.6334,8.6329,8.6099,8.6401,8.6709,8.694,8.6632,8.6709,8.694,8.6632,8.6324,8.6094,8.6094,8.6517,8.7055,8.7325,8.7209,8.7127,8.7904,8.8373,8.8664,8.8688,8.9349,9.0009,8.9995,9.0493,9.0989,9.0989,9.11,9.121,9.121,9.121,9.121,9.121,9.171,9.1902,9.1287,9.171,9.1864,9.1287,9.1341,9.1284,9.1052,9.1436,9.15,9.1074,9.1035,9.0385,8.8807,8.7914,8.6282,8.3602,8.298,8.2475,8.1892,8.1038,8.0183,7.929,7.8435,7.7593,7.6855,7.8377,7.9266,6.8077,6.9065,7.0022,7.0068,6.9648,6.8975,6.7947,6.6898,6.5966,6.5223,6.5561,6.5636,6.451,6.7579,6.9777,6.8224,7.1218,7.3876,7.4408,7.6483,7.8441,7.96,8.1085,8.2421,0.0,8.3824,8.4223,8.4523,8.55,8.5875,8.5537,8.626,8.6666,8.6515,8.5839,8.5938,8.6831,8.6483,8.6518,8.6894,8.7366,8.7309,8.6774,8.7996,8.7833,0.0,0.0,0.0,0.0,8.6094,8.6094,8.6094,8.6094,8.644,8.6863,8.6671,8.6748,8.6863,8.6671,8.6363,8.6094,8.6094,8.6709,8.7401,8.7401,8.7666,8.7968,8.8258,8.866,8.8861,8.8632,8.9248,8.9944,8.9995,9.0532,9.0989,9.1064,9.1136,9.121,9.121,9.1479,9.1595,9.1248,9.1902,9.221,9.1325,9.1672,9.1825,9.1287,9.1341,9.14,9.14,9.1591,9.1539,9.1101,9.1528,9.0981,8.8844,8.8416,8.6845,8.3718,8.3252,8.2708,8.1931,8.1387,8.0649,7.9795,7.8626,7.7626,7.6855,7.8338,7.9216,0.0,6.7138,6.7685,6.7771,6.7691,6.7198,6.5745,6.5373,0.0,6.451,6.5598,6.6237,6.4735,6.799,7.0154,6.7921,7.0875,7.3487,7.3802,7.5721,7.8383,8.1937,8.3718,0.0,8.453,8.4341,8.4561,8.5349,8.55,8.6213,8.764,8.7201,8.7268,8.8178,8.7688,8.7663,8.8305,8.8453,8.8179,8.7573,8.8448,8.8634,8.8231,8.8346,8.8034,0.0,0.0,0.0,0.0,8.6094,8.6094,8.6094,8.6094,8.6094,8.6209,8.7017,8.6786,8.6209,8.7017,8.6786,8.6094,8.617,8.6786,8.7478,8.7478,8.8122,8.8611,8.7764,8.8188,8.8848,8.8567,8.9184,9.0031,9.0762,9.0953,9.1064,9.1175,9.121,9.121,9.121,9.1864,9.2133,9.1325,9.1864,9.2133,9.1325,9.121,9.121,9.121,9.1341,9.14,9.14,9.1591,9.1744,9.1759,9.1786,9.1101,8.9476,8.8645,8.7075,8.4592,8.3582,8.2747,8.2009,8.1854,8.1426,8.061,7.8987,7.7774,7.701,7.7936,7.8865,6.418,0.0,6.6045,6.6087,6.5636,6.5032,0.0,6.4096,6.3906,0.0,0.0,6.5857,6.5999,6.8782,7.061,6.9244,7.1554,7.3525,7.3405,7.5864,7.901,8.2567,8.3137,8.3841,8.5273,8.5696,8.6025,8.6213,8.7415,8.7752,8.6851,8.7953,8.8474,8.8216,8.8747,8.8582,8.7658,8.7705,8.7345,8.6647,8.8091,8.82,8.7275,8.8577,8.8499,0.0,0.0,0.0,8.6094,8.6094,8.6094,8.6094,8.6094,8.6094,8.6132,8.6324,8.6286,8.6132,8.6324,8.6286,8.6209,8.6863,8.7671,8.8402,8.8402,8.8551,8.8584,8.7788,8.8573,8.9479,8.8752,8.9643,9.076,9.0877,9.0953,9.1064,9.1175,9.121,9.121,9.121,9.1364,9.1441,9.1248,9.1364,9.1441,9.1248,9.121,9.121,9.121,9.1341,9.14,9.14,9.1591,9.1716,9.1744,9.1759,9.1076,8.943,8.8577,8.7258,8.5342,8.3829,8.2919,8.2766,8.1524,8.0805,8.061,7.9541,7.8898,7.8742,7.9695,8.0273,6.3163,6.4063,6.496,6.496,6.4322,6.3759,6.3759,6.3343,6.3228,0.0,0.0,6.583,6.6695,6.864,7.0042,0.0,7.1938,7.3976,7.5178,7.7974,8.0745,8.2934,8.3537,8.4405,0.0,8.6072,8.6288,8.7039,8.794,8.8203,8.7677,8.8722,8.9092,8.8782,8.9024,8.8556,8.7402,8.8122,8.7753,8.6336,8.8208,8.8707,8.8037,8.8835,8.8691,0.0,0.0,0.0,8.6094,8.6094,8.6094,8.6094,8.6094,8.6094,8.6094,8.6094,8.6094,8.6094,8.6094,8.6094,8.617,8.6632,8.7132,8.7517,8.7517,8.7517,8.7512,8.7533,8.8325,8.9107,8.8608,8.9343,9.034,9.08,9.0915,9.0991,9.1175,9.121,9.121,9.121,9.1518,9.1672,9.1287,9.1518,9.1672,9.1248,9.121,9.121,9.121,9.1341,9.14,9.14,9.1591,9.1716,9.1716,9.1705,9.1024,8.9358,8.8854,8.7677,8.5607,8.4638,8.3768,8.3017,8.1815,8.0999,8.061,8.0144,7.9678,7.9328,8.0248,8.0713,6.2636,6.3537,6.4099,6.3946,6.3308,6.2707,6.2707,6.2668,6.2666,6.3006,0.0,6.58,6.7009,6.8451,0.0,0.0,0.0,0.0,7.7663,8.033,8.2339,8.3133,8.4108,0.0,8.6757,8.6034,8.6175,8.7865,0.0,8.8278,8.8954,8.9265,8.9371,8.9423,8.8998,8.835,8.7402,8.8767,8.8436,8.6526,8.8377,8.9175,8.9103,8.8853,8.8568,8.8262,0.0,0.0,8.6094,8.6094,8.6094,8.6094,8.6094,8.6094,8.6094,8.6094,8.6094,8.6094,8.6094,8.6094,8.6094,8.6094,8.6209,8.6286,8.6132,8.6209,8.644,8.7017,8.7686,8.8231,8.8385,8.8844,8.9565,9.0607,9.0915,9.0954,9.1139,9.121,9.121,9.121,9.1787,9.2056,9.1325,9.1825,9.2056,9.1325,9.121,9.121,9.121,9.1341,9.14,9.14,9.1591,9.1716,9.1716,9.1716,9.097,8.932,8.9204,8.8068,8.5584,8.5374,8.4583,8.3035,8.2281,8.1543,8.0805,8.0805,8.0416,7.9717,8.0504,8.0878,6.1996,6.2672,6.32,6.2408,6.1581,6.098,6.098,6.1018,6.1394,6.2663,6.3796,6.5271,6.7492,7.0077,7.1712,0.0,0.0,7.5636,0.0,0.0,8.1306,8.3009,0.0,8.492,8.6744,8.6561,8.7001,0.0,0.0,8.8879,8.8992,8.9157,8.928,8.9423,8.9427,8.8821,8.7402,8.763,8.7601,8.7323,8.7563,8.7825,8.8186,8.8061,8.7768,8.7379,0.0,8.6761,8.6094,8.6094,8.6094,8.6094,8.6094,8.6094,8.6094,8.6094,8.6094,8.6094,8.6094,8.6094,8.6094,8.6094,8.6594,8.7055,8.6324,8.6632,8.7055,8.6478,8.6764,8.7464,8.8267,8.8883,8.9565,9.0528,9.0799,9.0915,9.1028,9.11,9.121,9.121,9.1325,9.1364,9.121,9.1325,9.1364,9.121,9.121,9.121,9.121,9.1341,9.14,9.14,9.1591,9.1716,9.1716,9.1716,9.0981,8.9306,8.919,8.8029,8.5436,8.4723,8.3979,8.3031,8.2261,8.1815,8.1698,8.1698,8.1621,8.1504,8.1639,8.1748,6.1092,6.1206,6.1318,6.2257,6.1881,6.1506,6.2369,6.192,6.1882,0.0,0.0,0.0,6.8524,0.0,7.1788,7.3611,0.0,7.8101,7.9698,8.108,8.261,0.0,0.0,8.5902,8.8065,8.7668,0.0,0.0,0.0,0.0,8.8992,8.8743,8.8587,8.864,8.7978,8.7247,8.649,8.6227,8.6138,8.6273,8.6965,8.7293,8.7345,8.7142,8.7037,8.7043,0.0,8.6268,8.6065,8.606,8.6094,8.6094,8.6094,8.6094,8.6094,8.6094,8.6094,8.6094,8.6094,8.6094,8.6094,8.6094,8.6363,8.6632,8.6209,8.6709,8.7325,8.6901,8.7302,8.7886,8.8307,8.9228,9.0138,9.0602,9.0759,9.0799,9.0915,9.1028,9.11,9.11,9.1136,9.121,9.121,9.121,9.121,9.121,9.121,9.121,9.121,9.1275,9.1336,9.14,9.1531,9.1465,9.1019,9.0981,9.0478,8.9279,8.8312,8.7267,8.6068,8.5304,8.4521,8.3668,8.2921,8.232,8.1892,8.1892,8.2126,8.2553,8.2553,8.2859,6.0448,6.0301,6.0191,6.2295,6.2032,6.1844,6.4019,0.0,0.0,0.0,0.0,0.0,0.0,7.0649,0.0,7.5842,7.8301,8.0113,8.0905,8.2254,8.3812,0.0,0.0,0.0,0.0,0.0,0.0,0.0,0.0,0.0,8.8729,8.8291,8.7893,8.7705,8.6719,8.6063,8.5787,8.5431,8.531,8.5437,8.6412,8.6812,8.677,8.6566,8.6535,8.6585,8.6277,8.6043,8.5996,8.606,8.6094,8.6094,8.6094,8.6094,8.6094,8.6094,8.6094,8.6094,8.6094,8.6094,8.6094,8.6094,8.6094,8.6094,8.6094,8.6709,8.7401,8.7401,8.8032,8.8691,8.8691,8.9494,9.0364,9.06,9.0719,9.0759,9.0838,9.0953,9.1064,9.1064,9.11,9.121,9.1245,9.121,9.121,9.121,9.121,9.121,9.121,9.1241,9.1341,9.1368,9.15,9.1281,9.0478,9.0246,8.9782,8.8931,8.7267,8.6404,8.6597,8.5715,8.5009,8.4544,8.3601,8.2786,8.2164,8.2164,8.2514,8.3097,8.3291,8.3696,6.049,6.0751,6.0976,6.1845,6.0867,0.0,6.4387,6.369,0.0,6.5038,0.0,0.0,0.0,7.2586,7.5361,7.6983,7.8685,8.0302,8.1736,0.0,8.3537,0.0,0.0,0.0,0.0,0.0,0.0,0.0,0.0,0.0,8.794,8.7991,8.763,8.6802,8.6882,8.6668,8.6066,8.6038,8.6,8.6046,8.5714,8.5921,8.6608,8.6691,8.6392,8.582,8.666,8.6619,8.5996,8.606,8.6094,8.6094,8.6094,8.6094,8.6094,8.6094,8.6094,8.6094,8.6094,8.6094,8.6094,8.6094,8.6094,8.6094,8.6094,8.6709,8.7401,8.7401,8.8416,8.9497,8.9497,8.9456,8.96,9.0402,9.0758,9.0838,9.0759,9.0953,9.121,9.121,9.121,9.1245,9.1275,9.1241,9.121,9.121,9.121,9.121,9.121,9.1241,9.1308,9.1308,9.147,9.1281,9.0478,8.9704,8.8931,8.8041,8.643,8.586,8.6674,8.5203,8.4764,8.548,8.3932,8.3058,8.3019,8.3019,8.3019,8.3136,8.3913,8.3969,5.9842,6.0033,6.0486,6.2222,6.1093,0.0,0.0,6.4594,6.52,6.7372,6.8784,0.0,0.0,0.0,7.6425,7.7893,7.9936,8.1748,8.2831,8.3559,8.453,0.0,0.0,0.0,0.0,0.0,0.0,0.0,0.0,0.0,8.7828,8.7319,8.6696,8.5816,8.5484,8.5223,8.5043,8.528,8.5455,8.5545,8.5457,8.5581,8.5889,8.5968,8.5817,8.5628,8.6087,8.6122,8.5887,8.6026,8.6094,8.6094,8.6094,8.6094,8.6094,8.6094,8.6094,8.6094,8.6094,8.6094,8.6209,8.6748,8.6555,8.6209,8.6748,8.7517,8.8209,8.8102,8.9222,9.0339,8.9727,8.9839,9.0253,9.0681,9.0759,9.0799,9.0915,9.0991,9.1028,9.1206,9.1171,9.1136,9.1275,9.1241,9.121,9.121,9.121,9.1175,9.11,9.1171,9.1014,9.0475,8.9702,8.9117,8.8892,8.8079,8.7461,8.7112,8.6546,8.6364,8.6674,8.6211,8.5812,8.5618,8.4515,8.3641,8.3097,8.2592,8.2592,8.3097,8.3446,8.3756,5.905,5.9392,5.9998,6.1808,6.158,0.0,6.4441,6.5577,6.6711,6.9185,7.0866,0.0,0.0,0.0,0.0,0.0,8.0883,8.2627,8.346,8.442,8.5421,8.6652,8.7159,0.0,0.0,0.0,0.0,0.0,0.0,0.0,0.0,8.6588,8.5762,8.4974,8.4478,8.4331,8.4454,8.4787,8.5051,8.5262,8.5388,8.5469,8.5511,8.5511,8.5511,8.5511,8.5742,8.5779,8.5779,8.5992,8.6094,8.6094,8.6094,8.6094,8.6094,8.6094,8.6094,8.6094,8.6094,8.6094,8.6209,8.6786,8.6594,8.6247,8.7132,8.8017,8.8748,8.8874,8.9877,9.08,9.011,9.0338,9.0717,9.0799,9.0799,9.0839,9.1026,9.1064,9.11,9.1308,9.1206,9.1136,9.1275,9.1206,9.11,9.1103,9.1175,9.1136,9.0991,9.11,9.0864,9.0052,8.8861,8.8084,8.787,8.7318,8.688,8.661,8.6662,8.6713,8.6737,8.6583,8.6376,8.6027,8.5214,8.4379,8.3524,8.2941,8.2825,8.3097,8.3369,8.3717,5.8232,5.8834,5.97,6.0528,6.2178,0.0,6.6484,6.656,6.7013,7.0146,0.0,7.3909,7.4743,0.0,0.0,0.0,8.13,8.2664,8.3498,8.5052,8.6114,8.6114,8.7592,0.0,0.0,0.0,0.0,0.0,0.0,0.0,0.0,8.5762,8.4936,8.411,8.411,8.428,8.4599,8.4741,8.4968,8.5388,8.5471,8.5511,8.5511,8.5511,8.5511,8.5511,8.5742,8.5742,8.5743,8.5992,8.6094,8.6094,8.6094,8.6094,8.6094,8.6094,8.6094,8.6094,8.6094,8.6094,8.6094,8.6094,8.6094,8.6247,8.7132,8.8017,8.8863,8.9566,9.0301,9.0877,9.0719,9.0799,9.0877,9.0719,9.0877,9.0989,9.0989,9.1171,9.1341,9.1368,9.1308,9.1245,9.1275,9.1098,9.0991,9.0915,9.1066,9.1139,9.0954,9.1064,9.0898,9.0191,8.9369,8.8575,8.7852,8.7831,8.7538,8.6648,8.6662,8.6737,8.6809,8.6105,8.6127,8.6982,8.6127,8.5272,8.4418,8.4418,8.3951,8.3136,8.399,8.3969,5.9269,5.9389,6.0071,6.2032,6.3009,6.4327,0.0,6.8452,0.0,0.0,7.4172,7.5463,7.569,0.0,0.0,0.0,0.0,0.0,8.4408,8.5431,8.6341,8.6947,8.7874,8.8745,0.0,0.0,0.0,0.0,0.0,0.0,0.0,8.5816,8.5042,8.4419,8.4317,8.4481,8.4916,8.4916,8.5138,8.5471,8.5471,8.5511,8.5511,8.5511,8.5511,8.5511,8.5667,8.5743,8.5743,8.5961,8.6065,8.6094,8.6094,8.6094,8.6094,8.6094,8.6094,8.6094,8.6094,8.6094,8.6209,8.6824,8.656,8.6219,8.7098,8.7914,8.8535,8.8729,8.9841,9.0877,9.0676,9.0799,9.0953,9.0953,9.0991,9.11,9.1374,9.1308,9.1308,9.1561,9.1303,9.1136,9.1275,9.11,9.0915,9.0915,9.0954,9.0953,9.0991,8.9991,8.929,8.9195,8.7873,8.6971,8.6886,8.6915,8.6826,8.661,8.6662,8.6737,8.6809,8.6644,8.6669,8.6982,8.6127,8.5583,8.5311,8.4068,8.333,8.3097,8.2786,8.2512,5.9087,5.9807,6.1089,6.3238,6.4407,6.5803,6.883,0.0,0.0,0.0,0.0,7.6297,7.6979,7.8647,0.0,0.0,0.0,0.0,8.4787,8.5886,8.6796,8.7326,8.8291,8.9161,0.0,0.0,0.0,0.0,0.0,0.0,0.0,8.5447,8.4858,8.4518,8.4431,8.453,8.4909,8.4961,8.5138,8.5391,8.5471,8.5511,8.5511,8.5511,8.5511,8.5511,8.559,8.5705,8.5854,8.5887,8.5992,8.6094,8.6094,8.6094,8.6094,8.6094,8.6094,8.6094,8.6094,8.6094,8.6209,8.6709,8.6483,8.6219,8.7132,8.7645,8.8,8.8308,8.9075,8.984,9.0023,9.0222,9.0493,9.0876,9.1028,9.1171,9.1406,9.1374,9.1341,9.15,9.127,9.1062,9.1136,9.0953,9.0799,9.0798,9.0798,9.0799,9.0952,8.9457,8.8457,8.8738,8.7198,8.6254,8.6443,8.65,8.6528,8.661,8.6636,8.6558,8.6258,8.635,8.626,8.5972,8.5777,8.5544,8.5195,8.4146,8.3446,8.3058,8.2281,8.1911,5.824,6.0079,6.241,6.4368,6.6219,0.0,7.0758,7.1935,7.3151,7.5501,0.0,7.6752,7.8419,7.9481,8.0656,8.2248,8.3195,8.3991,0.0,8.6265,8.7289,8.7289,8.8653,8.9601,0.0,0.0,0.0,0.0,0.0,0.0,0.0,8.4971,8.4481,8.453,8.453,8.4579,8.476,8.4916,8.5051,8.5219,8.5391,8.5511,8.5511,8.5511,8.5511,8.5511,8.5511,8.5667,8.5996,8.5852,8.5923,8.6094,8.6094,8.6094,8.6094,8.6094,8.6094,8.6094,8.6094,8.6094,8.6094,8.6094,8.6094,8.6247,8.7055,8.7257,8.7343,8.8077,8.827,8.8499,8.9144,8.9493,8.984,9.0685,9.1066,9.1171,9.1275,9.1336,9.1336,9.1308,9.1168,9.1062,9.0915,9.0759,9.0679,9.0593,9.0593,9.0717,9.0915,8.9343,8.8347,8.8637,8.7132,8.6159,8.6354,8.6472,8.6528,8.661,8.6532,8.6133,8.5318,8.5475,8.5212,8.4398,8.5156,8.5195,8.4418,8.434,8.3874,8.3058,8.2281,8.1911,5.9475,6.075,6.2551,6.6357,6.9155,7.1467,7.3317,7.3515,7.3639,7.4891,7.6221,7.7623,7.9291,8.0845,8.2127,8.302,8.4021,8.4627,8.4722,8.5726,8.6379,8.6379,8.7193,8.8064,0.0,0.0,0.0,0.0,0.0,0.0,8.6744,8.5323,8.4579,8.4808,8.4713,8.477,8.4916,8.4961,8.5094,0.0,8.5388,8.5469,8.5511,8.5511,8.5511,8.5511,8.5511,8.5628,8.5852,8.5815,8.5923,8.6094,8.6094,8.6094,8.6094,8.6094,8.6094,8.6094,8.6094,8.6094,8.6094,8.6094,8.606,8.6069,8.6291,8.6726,8.7156,8.742,8.8308,8.9265,8.9496,9.0072,9.0647,9.0877,9.0953,9.11,9.1275,9.1275,9.1241,9.1308,9.11,9.0915,9.0915,9.0758,9.0593,9.0593,9.0676,9.0719,9.0759,8.9343,8.8422,8.8531,8.7098,8.6159,8.6354,8.6472,8.6528,8.661,8.5952,8.5204,8.4428,8.5119,8.5148,8.4358,8.4553,8.4573,8.4418,8.3718,8.3291,8.3058,8.2281,8.1911,5.8951,6.1235,6.4341,6.88,7.1567,7.3312,7.3716,7.3916,7.4384,7.5721,7.6748,7.804,8.0087,8.1527,8.2619,8.3276,8.424,8.4854,8.4713,8.5489,8.6218,8.6549,8.7296,8.7927,0.0,0.0,0.0,0.0,0.0,8.529,8.6587,8.5404,8.476,8.4901,8.4854,8.4863,8.5006,8.5051,8.5181,8.5388,8.5429,8.5471,8.5511,8.5511,8.5511,8.5511,8.5551,8.5667,8.5815,8.5815,8.5923,8.6094,8.606,8.606,8.6094,8.6094,8.6094,8.6094,8.6094,8.6094,8.6094,8.6094,8.6099,8.6026,8.6094,8.6338,8.6578,8.6649,8.7119,8.7887,8.8769,8.9305,8.9803,9.0607,9.0915,9.1028,9.11,9.11,9.11,9.0989,9.0953,9.0877,9.0758,9.0676,9.0593,9.0593,9.0635,9.0523,9.0183,8.9035,8.8309,8.8457,8.6956,8.6214,8.6932,8.6645,8.65,8.661,8.5797,8.4933,8.4146,8.4219,8.3901,8.3134,8.3542,8.3796,8.3796,8.3311,8.3078,8.3058,8.2262,8.1911,5.7978,6.1946,6.6812,7.0824,7.3182,7.4243,7.3477,7.3898,7.4972,7.6803,7.7273,7.8154,8.0656,8.1679,8.243,8.3238,8.4041,8.4618,8.4675,8.5328,8.6057,8.6641,8.7273,8.7714,8.7725,0.0,0.0,0.0,0.0,8.5328,8.6218,8.5545,8.5052,8.4901,8.4901,8.4909,8.5006,8.5094,8.5262,8.5388,8.5471,8.5511,8.5511,8.5511,8.5511,8.5511,8.5628,8.5704,8.5779,8.5815,8.5923,8.606,8.6031,8.6031,8.606,8.606,8.606,8.606,8.606,8.606,8.606,8.606,8.6094,8.6094,8.6094,8.6026,8.6031,8.6031,8.5967,8.6317,8.7809,8.8347,8.8806,9.0105,9.0723,9.0953,9.0877,9.0915,9.0877,9.0759,9.0759,9.0798,9.0635,9.0593,9.0593,9.0593,9.0478,9.0176,8.9609,8.8573,8.8078,8.8457,8.6885,8.63,8.748,8.6886,8.6472,8.6583,8.5797,8.4946,8.4134,8.3333,8.2538,8.1794,8.2492,8.2841,8.2841,8.2864,8.2864,8.2862,8.2223,8.1892,5.7979,6.3333,6.8937,7.1186,7.3004,7.4206,7.4047,7.426,7.4877,0.0,7.7143,7.803,8.0618,8.1097,8.1574,8.2982,8.3359,8.3699,8.4417,8.4643,8.4805,8.5015,8.4933,8.5172,8.5952,0.0,0.0,0.0,8.663,8.6112,8.6906,8.6284,8.5621,8.4939,8.4901,8.4909,8.5006,8.5006,8.5138,8.5388,8.5471,8.5511,8.5511,8.5511,8.5511,8.5511,8.5628,8.5705,8.5743,8.5779,8.5887,8.6031,8.5996,8.5996,8.6031,8.6031,8.5923,8.5852,8.5852,8.5923,8.6031,8.6031,8.6026,8.6094,8.6094,8.6094,8.606,8.606,8.653,8.7039,8.7233,8.842,8.9534,8.9329,9.0023,9.0759,9.0719,9.0641,9.06,9.0681,9.0676,9.0635,9.0593,9.0593,9.0593,9.0593,8.9982,8.9488,8.9494,8.8078,8.7428,8.838,8.7064,8.644,8.7417,8.6877,8.65,8.6528,8.5771,8.4946,8.4134,8.327,8.2443,8.1624,8.1807,8.1907,8.1907,8.1949,8.1969,8.1969,8.1912,8.1892,6.0914,6.442,6.7829,7.1449,7.2921,7.3596,7.4085,7.4243,7.4786,7.6534,7.6927,7.781,8.0484,8.0893,8.117,8.2233,8.2847,8.3349,8.3627,8.4129,8.4669,8.5122,8.5009,8.5108,8.5447,8.5597,0.0,0.0,8.6467,8.6263,8.7095,8.6019,8.528,8.4901,8.4901,8.4909,8.5006,8.5051,8.5224,8.5469,8.5471,8.5511,8.5511,8.5511,8.5511,8.5511,8.5628,8.5705,8.5705,8.5704,8.5854,8.5996,8.5887,8.5958,8.6065,8.6031,8.5961,8.5887,8.5815,8.5852,8.5887,8.5887,8.5923,8.5923,8.5923,8.5992,8.6026,8.6026,8.6192,8.6467,8.6966,8.7543,8.819,8.8815,8.9011,8.9244,9.0111,9.0301,9.0345,9.0513,9.0593,9.0593,9.0593,9.0593,9.0593,9.0593,9.0287,8.9717,8.8882,8.8538,8.8194,8.7804,8.7145,8.694,8.7519,8.6847,8.6472,8.6556,8.5345,8.4482,8.4095,8.278,8.1915,8.1553,8.1624,8.1646,8.1646,8.1713,8.1734,8.1734,8.1834,8.1873,6.219,6.4084,6.5764,7.0473,7.1899,7.2499,7.3634,7.4197,7.4957,7.6442,7.6931,7.7768,8.0075,8.0406,8.065,8.1645,8.2372,8.2949,8.3263,8.3954,8.4607,8.5108,8.5131,8.5079,8.5011,8.5831,8.6335,0.0,8.6443,8.6555,8.6744,8.5981,8.5356,8.4901,8.4901,8.4909,8.5006,8.5138,8.5266,8.5471,8.5471,8.5471,8.5511,8.5511,8.5511,8.5511,8.5628,8.5705,8.5628,8.5705,8.5817,8.5961,8.5852,8.5887,8.6026,8.5958,8.5926,8.5852,8.5779,8.5742,8.5779,8.5815,8.5815,8.5815,8.5852,8.5887,8.5961,8.5996,8.6007,8.6126,8.6853,8.7158,8.7485,8.8295,8.8257,8.8295,8.9459,8.9961,9.0174,9.0073,9.0312,9.0474,9.0245,9.0398,9.0593,9.0593,9.0402,8.9794,8.8383,8.8767,8.8692,8.7343,8.7225,8.7329,8.7526,8.6817,8.6443,8.6556,8.5191,8.4327,8.4095,8.2625,8.1852,8.1852,8.1669,8.1577,8.1577,8.1646,8.1669,8.1669,8.1755,8.1834,5.935,6.1379,6.3611,6.7192,6.9259,7.0871,7.2583,7.4197,7.5634,7.6592,7.7372,7.8151,7.9198,7.9349,7.9913,8.1532,8.1733,8.2284,8.4016,8.4177,8.4163,8.4355,8.4252,8.4148,8.4148,8.4899,8.5387,0.0,8.7042,8.7386,8.5877,8.6728,8.653,8.4939,8.4901,8.4909,8.5006,8.5138,8.5262,8.5388,8.5388,8.5469,8.5511,8.5511,8.5511,8.5511,8.5628,8.5628,8.5511,8.5667,8.5742,8.5815,8.5815,8.5815,8.5815,8.5815,8.5704,8.5551,8.5511,8.559,8.5743,8.5779,8.5815,8.5815,8.5961,8.5887,8.5852,8.5961,8.6391,8.6815,8.6736,8.7918,8.8863,8.7771,8.8159,8.8828,8.8889,8.9543,8.9977,8.9216,8.9806,9.0116,8.9316,8.9974,9.0593,9.0593,8.9905,8.9106,8.8268,8.8347,8.8153,8.7267,8.7295,8.7401,8.7401,8.6794,8.6384,8.6384,8.5678,8.4908,8.4134,8.3206,8.2741,8.2741,8.1929,8.1504,8.1504,8.1577,8.16,8.1624,8.1734,8.1814,5.9881,6.1236,6.2556,6.6051,6.7785,6.9147,7.0833,7.2987,7.4873,7.5709,7.6986,7.814,7.9015,7.9165,7.9541,8.0718,8.1307,8.2007,8.3148,8.3787,8.411,8.4163,8.4163,8.411,8.411,8.4824,8.5312,8.5312,0.0,8.6329,8.5726,8.5744,8.5545,8.4939,8.4901,8.4909,8.5006,8.5051,8.5138,8.5262,8.5346,8.5429,8.5469,8.5471,8.5511,8.5511,8.5551,8.5551,8.5511,8.5551,8.5628,8.5742,8.5779,8.5779,8.5742,8.5779,8.5667,8.5511,8.5511,8.5551,8.559,8.559,8.5628,8.5628,8.5667,8.5704,8.5742,8.5817,8.5972,8.6202,8.6538,8.7027,8.728,8.67,8.7639,8.8416,8.7307,8.7817,8.8402,8.8098,8.8378,8.8581,8.8362,8.9053,8.9478,8.9065,8.9179,8.8838,8.7503,8.7887,8.781,8.6572,8.6953,8.7098,8.6659,8.6415,8.6315,8.6443,8.5148,8.4313,8.4095,8.2741,8.1968,8.1968,8.1658,8.1774,8.2316,8.1799,8.1553,8.16,8.1691,8.1734,5.9245,6.0152,6.1209,6.4358,6.5827,6.703,6.9319,7.1845,7.4038,7.5126,7.6713,7.814,7.8966,7.9116,7.9492,8.0618,8.1256,8.197,8.3096,8.3735,8.411,8.411,8.411,8.411,8.411,8.4824,8.5199,8.4936,0.0,0.0,8.5348,8.529,8.5204,8.4901,8.4901,8.4947,8.4999,8.4999,8.5044,8.5219,8.5304,8.5388,8.5429,8.5471,8.5511,8.5511,8.5511,8.5511,8.5511,8.5471,8.5551,8.5704,8.5667,8.5667,8.5667,8.5667,8.559,8.5471,8.5471,8.5471,8.5511,8.5551,8.5551,8.5511,8.5551,8.559,8.5628,8.5705,8.5858,8.6124,8.6497,8.648,8.626,8.616,8.6758,8.7061,8.5962,8.6615,8.7391,8.7087,8.7369,8.7573,8.7394,8.8047,8.8515,8.8065,8.8489,8.8377,8.7043,8.7695,8.7695,8.6079,8.6726,8.6983,8.6236,8.6184,8.6285,8.6375,8.485,8.3939,8.4031,8.2406,8.1658,8.1929,8.1658,8.1929,8.278,8.1929,8.1528,8.1577,8.1646,8.1713,0.0,0.0,0.0,6.1874,6.3146,6.4644,6.8024,7.0808,7.3185,7.4795,7.6579,7.8102,7.8928,7.9079,7.9642,8.1294,8.1594,8.2195,8.381,8.4073,8.411,8.411,8.411,8.411,8.411,8.4824,8.4936,8.4148,8.58,8.6141,8.4556,8.5479,8.5735,8.4939,8.4901,8.4901,8.4901,8.4901,8.5037,8.5219,8.5219,8.5308,8.5511,8.5511,8.5511,8.5511,8.5511,8.5511,8.5511,8.5429,8.5551,8.5779,8.5433,8.5433,8.5628,8.5393,8.5349,8.5388,8.5388,8.5431,8.5511,8.5628,8.559,8.5511,8.5628,8.559,8.5511,8.5667,8.6123,8.657,8.6608,8.6387,8.6151,8.6114,8.5507,8.4939,8.4901,8.6189,8.7099,8.6227,8.6814,8.7171,8.6412,8.7034,8.7699,8.7828,8.7866,8.7603,8.6846,8.7657,8.7656,8.5969,8.6722,8.6978,8.6094,8.6082,8.6146,8.6107,8.4715,8.3912,8.3873,8.2342,8.189,8.2741,8.1929,8.1929,8.2741,8.1929,8.1504,8.1504,8.1577,8.1669,5.7788,0.0,0.0,0.0,0.0,0.0,6.5485,6.8455,7.1331,7.311,7.5293,7.7179,7.8065,7.8703,7.9454,8.0543,8.1219,8.197,8.3021,8.3697,8.411,8.411,8.411,8.411,8.411,8.4298,8.4335,0.0,8.468,8.4871,8.4518,8.495,8.5128,8.4901,8.4901,8.4901,8.4901,8.4901,8.4954,8.5051,8.5138,8.5304,8.5429,8.5471,8.5511,8.5511,8.5511,8.5471,8.5429,8.5431,8.5471,8.551,8.5471,8.5391,8.5308,8.5311,8.5308,8.5262,8.5346,8.5431,8.5511,8.5551,8.5551,8.5511,8.5551,8.5551,8.5511,8.5551,8.5742,8.6048,8.6497,8.685,8.6927,8.6227,8.5924,8.5621,8.5052,8.528,8.5545,8.528,8.5431,8.5561,8.5386,8.6115,8.6545,8.6147,8.657,8.6688,8.593,8.6124,8.5973,8.5012,8.52,8.5074,8.4362,8.4895,8.5004,8.4451,8.398,8.3529,8.3062,8.2006,8.1569,8.1852,8.162,8.162,8.1852,8.162,8.1504,8.1504,8.1624,8.1734,0.0,0.0,0.0,0.0,0.0,0.0,6.4791,6.7459,7.006,7.2171,7.4361,7.6132,7.7141,7.7716,7.8316,7.9191,8.0017,8.0956,8.2158,8.2758,8.3171,8.3509,8.3547,8.3697,8.4073,8.4163,8.4215,8.4215,8.4368,8.4568,8.4665,8.4808,8.4901,8.4901,8.4947,8.4947,8.4901,8.4947,8.4999,8.5094,8.5094,8.5219,8.5388,8.5469,8.5431,8.5431,8.5471,8.5431,8.5346,8.5429,8.5391,8.5349,8.5266,8.5262,8.5181,8.5138,8.5138,8.5219,8.5304,8.5391,8.5511,8.5511,8.5511,8.5511,8.5511,8.5511,8.5511,8.5511,8.5511,8.5664,8.5918,8.6241,8.629,8.5735,8.5621,8.5469,8.5014,8.4901,8.4901,8.4901,8.4901,8.4901,8.4954,8.5379,8.5621,8.538,8.5727,8.5963,8.5588,8.5245,8.494,8.4629,8.4317,8.3965,8.3632,8.4055,8.4164,8.3695,8.3372,8.3076,8.2659,8.1864,8.1453,8.1504,8.1504,8.1504,8.1553,8.1504,8.1504,8.1553,8.1624,8.1713,0.0,0.0,0.0,0.0,6.0691,0.0,6.4985,6.7009,6.8951,7.1665,7.3442,7.4898,7.6094,7.6281,7.6593,7.7565,7.8316,7.9404,8.1219,8.1557,8.1857,8.2608,8.2758,8.3096,8.3885,8.4139,8.4317,8.4317,8.4568,8.476,8.4854,8.4901,8.4901,8.4901,8.4999,8.4961,8.4901,8.4961,8.5094,8.5219,8.5094,8.5138,8.5388,8.5388,8.5388,8.5388,8.5431,8.5349,8.5219,8.5304,8.5308,8.5228,8.4999,8.5044,8.5176,8.5037,8.5044,8.5219,8.5219,8.5349,8.5511,8.5511,8.5511,8.5511,8.5511,8.5511,8.5511,8.5511,8.5431,8.5388,8.5262,8.5094,8.5006,8.4947,8.4901,8.4901,8.4901,8.4901,8.4901,8.4901,8.4901,8.4901,8.4901,8.4954,8.5051,8.5176,8.5304,8.5429,8.5511,8.4863,8.4441,8.4437,8.3777,8.3341,8.3324,8.3401,8.3401,8.3356,8.2862,8.2564,8.2449,8.1852,8.1478,8.1504,8.1504,8.1528,8.16,8.1528,8.1528,8.1624,8.1624,8.1646,0.0,0.0,0.0,0.0,0.0,0.0,6.3027,6.4955,6.7185,7.036,7.1264,7.2258,7.4555,7.5031,7.5394,7.6266,7.6616,7.7704,8.028,8.1181,8.167,8.182,8.242,8.2871,8.3059,8.3697,8.4215,8.4317,8.4568,8.4713,8.476,8.4854,8.4901,8.4901,8.4999,8.5006,8.4961,8.5094,8.5262,8.5346,8.5219,8.5262,8.5388,8.5388,8.5346,8.5262,8.5388,8.5266,8.5051,8.5051,8.5094,8.5094,8.5132,8.5176,8.5219,8.5176,8.5219,8.5346,8.5346,8.5391,8.5511,8.5511,8.5511,8.5511,8.5511,8.5511,8.5511,8.5511,8.5471,8.5431,8.5262,8.5176,8.5132,8.4947,8.4901,8.4901,8.4901,8.4901,8.4901,8.4901,8.4901,8.4901,8.4901,8.4954,8.5051,8.5176,8.5304,8.5429,8.5511,8.4785,8.4136,8.3594,8.2786,8.2122,8.1631,8.217,8.2317,8.1724,8.2139,8.2227,8.1644,8.1516,8.1453,8.1504,8.1504,8.1504,8.1528,8.1504,8.1553,8.1669,8.1669,8.1713,0.0,0.0,0.0,5.819,0.0,0.0,0.0,6.3996,6.5593,6.8181,6.9096,6.9813,7.1087,7.1515,7.1926,7.2795,7.3467,7.4511,7.6354,7.8341,8.0005,8.0881,8.1369,8.1932,8.2721,8.2885,8.3226,8.3839,8.3692,8.3899,8.477,8.4438,8.4492,8.4954,8.5089,8.5094,8.5094,8.5262,8.5346,8.5388,8.5262,8.5262,8.5388,8.5346,8.5262,8.5094,8.5262,8.5138,8.4916,8.5051,8.5051,8.5006,8.5051,8.5138,8.5219,8.5219,8.5304,8.5388,8.5388,8.5431,8.5511,8.5511,8.5511,8.5511,8.5511,8.5511,8.5511,8.5511,8.5511,8.5471,8.5224,8.5219,8.5176,8.4947,8.4901,8.4901,8.4901,8.4901,8.4901,8.4901,8.4901,8.4901,8.4901,8.4999,8.5094,8.5219,8.5308,8.5317,8.4938,8.4556,8.3869,8.2751,8.2288,8.1781,8.117,8.1477,8.1547,8.1193,8.1561,8.1687,8.1385,8.14,8.1453,8.1504,8.1504,8.1504,8.1553,8.1504,8.1577,8.1691,8.1691,8.1734,0.0,0.0,0.0,0.0,0.0,5.927,0.0,0.0,0.0,6.6265,6.6994,6.7414,6.7945,6.7912,6.8222,6.9383,7.0273,7.1115,7.208,7.456,7.693,7.8916,7.9604,8.0405,8.1519,8.1595,8.2055,8.3087,8.2695,8.2968,8.4378,8.3877,8.3968,8.4785,8.5062,8.5219,8.5262,8.5346,8.5429,8.5429,8.5304,8.5262,8.5346,8.5219,8.5051,8.4916,8.5051,8.5006,8.4779,8.5044,8.5132,8.5051,8.5051,8.5138,8.5262,8.5224,8.5346,8.5429,8.5429,8.5431,8.5511,8.5511,8.5511,8.5511,8.5511,8.5511,8.5511,8.5511,8.5471,8.5391,8.5224,8.5138,8.5089,8.4947,8.4901,8.4901,8.4901,8.4901,8.4901,8.4901,8.4901,8.4901,8.4901,8.5044,8.5219,8.5219,8.5235,8.5015,8.4365,8.4021,8.3333,8.2138,8.1866,8.1589,8.117,8.1093,8.1093,8.1124,8.1205,8.1291,8.1319,8.1427,8.1504,8.1504,8.1504,8.1528,8.1577,8.1528,8.1577,8.1691,8.1691,8.1734,0.0,0.0,0.0,0.0,5.7722,0.0,0.0,0.0,6.3356,6.5999,0.0,6.4872,6.7283,0.0,0.0,6.801,6.8494,6.9026,7.0086,7.0534,7.1749,7.4421,7.6911,7.8097,7.7351,7.9567,8.1376,8.2292,8.2392,8.2482,8.276,8.3278,8.3702,8.3997,8.48,8.5262,8.5388,8.5431,8.5471,8.5471,8.5429,8.5262,8.5051,8.5051,8.4825,8.4579,8.4779,8.4779,8.4722,8.4901,8.4999,8.5219,8.5304,8.5346,8.5388,8.5431,8.5471,8.5471,8.5471,8.5511,8.5511,8.5511,8.5511,8.5511,8.5511,8.5511,8.5511,8.5511,8.5349,8.5262,8.5219,8.5006,8.4825,8.4901,8.4901,8.4901,8.4901,8.4901,8.4901,8.4901,8.4901,8.4901,8.4901,8.5044,8.5219,8.5219,8.478,8.4403,8.4289,8.299,8.2071,8.2023,8.1368,8.0975,8.1093,8.1093,8.1124,8.1184,8.1234,8.1319,8.1374,8.1453,8.1504,8.1504,8.1504,8.1504,8.1504,8.1577,8.1624,8.1691,8.1691,8.1734,0.0,0.0,0.0,0.0,0.0,0.0,6.0056,0.0,6.0668,0.0,0.0,0.0,0.0,0.0,0.0,0.0,6.5188,6.6038,6.6421,6.7061,6.8948,7.2838,0.0,0.0,7.6074,7.8149,7.9607,7.9985,8.0113,8.0661,8.174,8.2114,8.2808,8.3971,8.4352,8.4622,8.4744,8.5242,8.5282,8.4824,8.5159,8.5219,8.5094,8.4961,8.4779,8.4589,8.477,8.477,8.4675,8.4909,8.5044,8.5219,8.5346,8.5429,8.5431,8.5469,8.5471,8.5511,8.5469,8.5469,8.5429,8.5349,8.5349,8.5469,8.5469,8.5471,8.5511,8.5511,8.5349,8.5219,8.5094,8.4961,8.4779,8.4808,8.4854,8.4901,8.4901,8.4901,8.4901,8.4901,8.4484,8.4188,8.4233,8.4747,8.4877,8.3887,8.4093,8.3945,8.2951,8.2646,8.2149,8.1262,8.1371,8.1363,8.0997,8.1061,8.1093,8.1154,8.1234,8.1347,8.1453,8.1478,8.1504,8.1504,8.1504,8.1504,8.1504,8.1528,8.1306,8.091,8.0976,8.0766,5.697,0.0,0.0,0.0,0.0,0.0,0.0,0.0,0.0,0.0,0.0,0.0,0.0,0.0,0.0,0.0,0.0,6.3038,6.3038,6.38,6.5997,7.0415,0.0,0.0,0.0,7.6004,7.7149,7.7419,0.0,7.9001,8.0608,8.0912,8.187,8.375,8.3977,8.417,8.4289,8.4862,8.4822,8.421,8.4698,8.5033,8.5094,8.4916,8.4741,8.4647,8.477,8.4854,8.4816,8.4916,8.5094,8.5262,8.5346,8.5469,8.5511,8.5429,8.5429,8.5471,8.5429,8.5388,8.5388,8.5304,8.5304,8.5388,8.5388,8.5469,8.5511,8.5511,8.5308,8.5094,8.5006,8.4871,8.4685,8.4675,8.4808,8.4901,8.4901,8.4711,8.4597,8.4863,8.4029,8.3316,8.3449,8.403,8.4115,8.2939,8.3254,8.3181,8.1958,8.2111,8.1881,8.0729,8.1221,8.1479,8.0965,8.0991,8.1124,8.1154,8.1234,8.1374,8.1504,8.1504,8.1504,8.1504,8.1504,8.1504,8.1504,8.1504,8.1103,8.0284,8.0433,8.0145,0.0,0.0,0.0,5.8928,0.0,0.0,0.0,0.0,6.063,0.0,0.0,0.0,0.0,0.0,0.0,0.0,0.0,0.0,0.0,6.0672,6.2123,6.5794,6.7366,0.0,0.0,7.2608,7.4055,0.0,7.661,0.0,7.9133,7.9854,8.1075,8.299,8.3712,8.417,8.4289,8.4327,8.417,8.3925,8.417,8.4466,8.4833,8.4961,8.4924,8.4787,8.4722,8.4816,8.5006,8.5006,8.5138,8.5388,8.5388,8.5469,8.5511,8.5429,8.5388,8.5388,8.5388,8.5388,8.5388,8.5388,8.5388,8.5388,8.5388,8.5469,8.5511,8.5511,8.5143,8.4833,8.4961,8.4732,8.453,8.4665,8.4808,8.4901,8.4901,8.4256,8.3877,8.4749,8.3574,8.2444,8.2537,8.2661,8.2825,8.2868,8.2301,8.1843,8.1805,8.1079,8.0581,8.0614,8.0723,8.0865,8.0926,8.0991,8.1154,8.1263,8.1347,8.1427,8.1504,8.1504,8.1504,8.1504,8.1504,8.1504,8.1504,8.1504,8.1103,8.0284,8.039,8.0415,0.0,0.0,6.0297,6.101,0.0,0.0,0.0,0.0,0.0,0.0,0.0,0.0,0.0,0.0,0.0,0.0,0.0,0.0,0.0,6.0188,6.0849,6.1849,6.5132,0.0,0.0,0.0,0.0,0.0,7.452,0.0,0.0,7.8409,8.0048,8.1308,8.2645,8.3142,8.2646,8.3597,8.3478,8.2371,8.3264,8.3816,8.4029,8.4605,8.4825,8.4722,8.477,8.4871,8.5006,8.4916,8.5094,8.5388,8.5388,8.5469,8.5511,8.5429,8.5388,8.5388,8.5304,8.5219,8.5138,8.5138,8.5094,8.5051,8.5219,8.5266,8.5308,8.5471,8.5143,8.4787,8.4833,8.4685,8.4481,8.453,8.476,8.4901,8.4901,8.4218,8.3688,8.3991,8.2702,8.1615,8.1748,8.1372,8.1073,8.1231,8.1538,8.1576,8.1003,8.0697,8.0543,8.0614,8.0723,8.0826,8.0888,8.1054,8.1244,8.1347,8.1374,8.1427,8.1504,8.1504,8.1504,8.1504,8.1504,8.1504,8.1504,8.1504,8.1103,8.0284,8.039,8.0123,6.1493,6.1884,0.0,6.3046,6.3428,0.0,6.2521,0.0,0.0,0.0,0.0,0.0,0.0,0.0,0.0,0.0,0.0,0.0,0.0,5.9249,5.955,5.9344,6.2687,6.5266,6.6105,0.0,0.0,0.0,0.0,0.0,0.0,0.0,7.9209,8.0468,8.1843,8.2263,8.1651,8.2561,8.2631,8.1786,8.2678,8.3468,8.412,8.4651,8.4961,8.4961,8.4916,8.5006,8.5181,8.5051,8.5181,8.5429,8.5429,8.5469,8.5431,8.5429,8.5388,8.5304,8.5094,8.5051,8.5051,8.4878,8.4961,8.5006,8.5006,8.5094,8.5262,8.5349,8.5013,8.4694,8.4787,8.4637,8.4481,8.4481,8.4675,8.4901,8.4901,8.3991,8.3233,8.3536,8.202,8.0856,8.1334,8.0728,8.0235,8.043,8.0965,8.1117,8.0582,8.0506,8.0543,8.0542,8.065,8.0754,8.092,8.1116,8.1263,8.14,8.1427,8.1453,8.1504,8.1528,8.1528,8.1504,8.1528,8.1528,8.1504,8.1504,8.1064,8.0299,8.0368,8.0123]},{"header":{"parameterUnit":"m.s-1","parameterCategory":1,"la1":30.6,"la2":29.2853,"lo1":-89.7004,"lo2":-87.6739,"dy":0.0162,"dx":0.0183,"nx":112,"ny":82,"refTime":"2024-04-20T00:00:00:Z","depth":0,"parameterNumber":3,"parameterNumberName":"V-component_of_WINDS"},"data":[0.0,0.0,0.0,0.0,0.0,0.0,0.0,0.0,0.0,0.0,0.0,0.0,0.0,0.0,0.0,0.0,0.0,0.0,0.0,0.0,0.0,0.0,0.0,0.0,0.0,0.0,0.0,0.0,0.0,0.0,0.0,0.0,0.0,0.0,0.0,0.0,0.0,0.0,0.0,0.0,0.0,0.0,0.0,0.0,0.0,0.0,0.0,0.0,0.0,0.0,0.0,0.0,0.0,0.0,0.0,0.0,0.0,0.0,0.0,0.0,0.0,0.0,0.0,0.0,0.0,0.0,0.0,0.0,0.0,0.0,0.0,0.0,0.0,0.0,0.0,0.0,0.0,0.0,0.0,0.0,0.0,0.0,0.0,0.0,0.0,0.0,0.0,0.0,0.0,0.0,0.0,0.4905,0.5101,0.5053,0.4564,0.394,0.3321,0.2869,0.0,0.0,0.0,0.0,0.0,0.0,0.0,0.0,0.0,0.0,0.0,0.0,0.0,0.0,0.0,0.0,0.0,0.0,0.0,0.0,0.0,0.0,0.0,0.0,0.0,0.0,0.0,0.0,0.0,0.0,0.0,0.0,0.0,0.0,0.0,0.0,0.0,0.0,0.0,0.0,0.0,0.0,0.0,0.0,0.0,0.0,0.0,0.0,0.0,0.0,0.0,0.0,0.0,0.0,0.0,0.0,0.0,0.0,0.0,0.0,0.0,0.0,0.0,0.0,0.0,0.0,0.0,0.0,0.0,0.0,0.0,0.0,0.0,0.0,0.0,0.0,0.0,0.0,0.0,0.0,0.0,0.0,0.0,0.0,0.0,0.0,0.0,0.0,0.0,0.0,0.0,0.0,0.0,0.0,0.0,0.0,0.0,0.0,0.0,0.0,0.0,0.0,0.0,0.0,0.4818,0.5256,0.5289,0.4951,0.4127,0.4119,0.3776,0.2869,0.0,0.0,0.0,0.0,0.0,0.0,0.0,0.0,0.0,0.0,0.0,0.0,0.0,0.0,0.0,0.0,0.0,0.0,0.0,0.0,0.0,0.0,0.0,0.0,0.0,0.0,0.0,0.0,0.0,0.0,0.0,0.0,0.0,0.0,0.0,0.0,0.0,0.0,0.0,0.0,0.0,0.0,0.0,0.0,0.0,0.0,0.0,0.0,0.0,0.0,0.0,0.0,0.0,0.0,0.0,0.0,0.0,0.0,0.0,0.0,0.0,0.0,0.0,0.0,0.0,0.0,0.0,0.0,0.0,0.0,0.0,0.0,0.0,0.0,0.0,0.0,0.0,0.0,0.0,0.0,0.0,0.0,0.0,0.0,0.0,0.0,0.0,0.0,0.0,0.0,0.0,0.0,0.0,0.0,0.0,0.0,0.0,0.0,0.0,0.0,0.0,0.0,0.0,0.4739,0.5173,0.5633,0.5505,0.5177,0.4843,0.4509,0.416,0.3661,0.3079,0.0,0.0,0.0,0.0,0.0,0.0,0.0,0.0,0.0,0.0,0.0,0.0,0.0,0.0,0.0,0.0,0.0,0.0,0.0,0.0,0.0,0.0,0.0,0.0,0.0,0.0,0.0,0.0,0.0,0.0,0.0,0.0,0.0,0.0,0.0,0.0,0.0,0.0,0.0,0.0,0.0,0.0,0.0,0.0,0.0,0.0,0.0,0.0,0.0,0.0,0.0,0.0,0.0,0.0,0.0,0.0,0.0,0.0,0.0,0.0,0.0,0.0,0.0,0.0,0.0,0.0,0.0,0.0,0.0,0.0,0.0,0.0,0.0,0.0,0.0,0.0,0.0,0.0,0.0,0.0,0.0,0.0,0.0,0.0,0.0,0.0,0.0,0.0,0.0,0.0,0.0,0.0,0.0,0.0,0.0,0.0,0.0,0.0,0.0,0.0,0.0,0.0,0.5097,0.5492,0.5979,0.5697,0.5552,0.5216,0.488,0.4534,0.419,0.3875,0.0,0.0,0.0,0.0,0.0,0.0,0.0,0.0,0.0,0.0,0.0,0.0,0.0,0.0,0.0,0.0,0.0,0.0,0.0,0.0,0.0,0.0,0.0,0.0,0.0,0.0,0.0,0.0,0.0,0.0,0.0,0.0,0.0,0.0,0.0,0.0,0.0,0.0,0.0,0.0,0.0,0.0,0.0,0.0,0.0,0.0,0.0,0.0,0.0,0.0,0.0,0.0,0.0,0.0,0.0,0.0,0.0,0.0,0.0,0.0,0.0,0.0,0.0,0.0,0.0,0.0,0.0,0.0,0.0,0.0,0.0,0.0,0.0,0.0,0.0,0.0,0.0,0.0,0.0,0.0,0.0,0.0,0.0,0.0,0.0,0.0,0.0,0.0,0.0,0.0,0.0,0.0,0.0,0.0,0.0,0.0,0.0,0.0,0.0,0.0,0.0,0.0,0.5462,0.5851,0.6111,0.6087,0.5717,0.4878,0.4841,0.4818,0.424,0.4325,0.0,0.0,0.0,0.0,0.0,0.0,0.0,0.0,0.0,0.0,0.0,0.0,0.0,0.0,0.0,0.0,0.0,0.0,0.0,0.0,0.0,0.0,0.0,0.0,0.0,0.0,0.0,0.0,0.0,0.0,0.0,0.0,0.0,0.0,0.0,0.0,0.0,0.0,0.0,0.0,0.0,0.0,0.0,0.0,0.0,0.0,0.0,0.0,0.0,0.0,0.0,0.0,0.0,0.0,0.0,0.0,0.0,0.0,0.0,0.0,0.0,0.0,0.0,0.0,0.0,0.0,0.0,0.0,0.0,0.0,0.0,0.0,0.0,0.0,0.0,0.0,0.0,0.0,0.0,0.0,0.0,0.0,0.0,0.0,0.0,0.0,0.0,0.0,0.0,0.0,0.0,0.0,0.0,0.0,0.0,0.0,0.0,0.0,0.0,0.0,0.0,0.0,0.6013,0.6262,0.0,0.6237,0.5903,0.5266,0.5087,0.491,0.4604,0.0,0.0,0.0,0.0,0.0,0.0,0.0,0.0,0.0,0.0,0.0,0.0,0.0,0.0,0.0,0.0,0.0,0.0,0.0,0.0,0.0,0.0,0.0,0.0,0.0,0.0,0.0,0.0,0.0,0.0,0.0,0.0,0.0,0.0,0.0,0.0,0.0,0.0,0.0,0.0,0.0,0.0,0.0,0.0,0.0,0.0,0.0,0.0,0.0,0.0,0.0,0.0,0.0,0.0,0.0,0.0,0.0,0.0,0.0,0.0,0.0,0.0,0.0,0.0,0.0,0.0,0.0,0.0,0.0,0.0,0.0,0.0,0.0,0.0,0.0,0.0,0.0,0.0,0.0,0.0,0.0,0.0,0.0,0.0,0.0,0.0,0.0,0.0,0.0,0.0,0.0,0.0,0.0,0.0,0.0,0.0,0.0,0.0,0.0,0.0,0.0,0.0,0.6222,0.6553,0.6818,0.0,0.6573,0.6081,0.581,0.5454,0.5115,0.4973,0.0,0.0,0.0,0.0,0.0,0.0,0.0,0.0,0.0,0.0,0.0,0.0,0.0,0.0,0.0,0.0,0.0,0.0,0.0,0.0,0.0,0.0,0.0,0.0,0.0,0.0,0.0,0.0,0.0,0.0,0.0,0.0,0.0,0.0,0.0,0.0,0.0,0.0,0.0,0.0,0.0,0.0,0.0,0.0,0.0,0.0,0.0,0.0,0.0,0.0,0.0,0.0,0.0,0.0,0.0,0.0,0.0,0.0,0.0,0.0,0.0,0.0,0.0,0.0,0.0,0.0,0.0,0.0,0.0,0.0,0.0,0.0,0.0,0.0,0.0,0.0,0.0,0.0,0.0,0.0,0.0,0.0,0.0,0.0,0.0,0.0,0.0,0.0,0.0,0.0,0.0,0.0,0.0,0.0,0.0,0.0,0.0,0.0,0.0,0.0,0.0,0.0,0.6295,0.6908,0.7338,0.7503,0.7113,0.6589,0.6148,0.5578,0.5087,0.0,0.0,0.0,0.0,0.0,0.0,0.0,0.0,0.0,0.0,0.0,0.0,0.0,0.0,0.0,0.0,0.0,0.0,0.0,0.0,0.0,0.0,0.0,0.0,0.0,0.0,0.0,0.0,0.0,0.0,0.0,0.0,0.0,0.0,0.0,0.0,0.0,0.0,0.0,0.0,0.0,0.0,0.0,0.0,0.0,0.0,0.0,0.0,0.0,0.0,0.0,0.0,0.0,0.0,0.0,0.0,0.0,0.0,0.0,0.0,0.0,0.0,0.0,0.0,0.0,0.0,0.0,0.0,0.0,0.0,0.0,0.0,0.0,0.0,0.0,0.0,0.0,0.0,0.0,0.0,0.0,0.0,0.0,0.0,0.0,0.0,0.0,0.0,0.0,0.0,0.0,0.0,0.0,0.0,0.0,0.0,0.0,0.0,0.0,0.0,0.0,0.0,0.0,0.7158,0.753,0.7804,0.7514,0.738,0.7045,0.6328,0.5992,0.5662,0.5504,0.0,0.0,0.0,0.0,0.0,0.0,0.0,0.0,0.0,0.0,0.0,0.0,0.0,0.0,0.0,0.0,0.0,0.0,0.0,0.0,0.0,0.0,0.0,0.0,0.0,0.0,0.0,0.0,0.0,0.0,0.0,0.0,0.0,0.0,0.0,0.0,0.0,0.0,0.0,0.0,0.0,0.0,0.0,0.0,0.0,0.0,0.0,0.0,0.0,0.0,0.0,0.0,0.0,0.0,0.0,0.0,0.0,0.0,0.0,0.0,0.0,0.0,0.0,0.0,0.0,0.0,0.0,0.0,0.0,0.0,0.0,0.0,0.0,0.0,0.0,0.0,0.0,0.0,0.0,0.0,0.0,0.0,0.0,0.0,0.0,0.0,0.0,0.0,0.0,0.0,0.0,0.0,0.0,0.0,0.0,0.0,0.0,0.0,0.0,0.0,0.0,0.0,0.7615,0.7966,0.8057,0.7956,0.7807,0.745,0.6541,0.6237,0.5906,0.5387,0.0,0.0,0.0,0.0,0.0,0.0,0.0,0.0,0.0,0.0,0.0,0.0,0.0,0.0,0.0,0.0,0.0,0.0,0.0,0.0,0.0,0.0,0.0,0.0,0.0,0.0,0.0,0.0,0.0,0.0,0.0,0.0,0.0,0.0,0.0,0.0,0.0,0.0,0.0,0.0,0.0,0.0,0.0,0.0,0.0,0.0,0.0,0.0,0.0,0.0,0.0,0.0,0.0,0.0,0.0,0.0,0.0,0.0,0.0,0.0,0.0,0.0,0.0,0.0,0.0,0.0,0.0,0.0,0.0,0.0,0.0,0.0,0.0,0.0,0.0,0.0,0.0,0.0,0.0,0.0,0.0,0.0,0.0,0.0,0.0,0.0,0.0,0.0,0.0,0.0,0.0,0.0,0.0,0.0,0.0,0.0,0.0,0.0,0.0,0.0,0.0,0.0,0.7774,0.8052,0.8293,0.8477,0.8082,0.7509,0.7143,0.6489,0.5817,0.5134,0.0,0.0,0.0,0.0,0.0,0.0,0.0,0.0,0.0,0.0,0.0,0.0,0.0,0.0,0.0,0.0,0.0,0.0,0.0,0.0,0.0,0.0,0.0,0.0,0.0,0.0,0.0,0.0,0.0,0.0,0.0,0.0,0.0,0.0,0.0,0.0,0.0,0.0,0.0,0.0,0.0,0.0,0.0,0.0,0.0,0.0,0.0,0.0,0.0,0.0,0.0,0.0,0.0,0.0,0.0,0.0,0.0,0.0,0.0,0.0,1.0391,0.0,0.0,0.0,0.0,0.0,0.0,0.0,0.0,0.0,0.0,0.0,0.0,0.0,0.0,0.0,0.0,0.0,0.0,0.0,0.0,0.0,0.0,0.0,0.0,0.0,0.0,0.0,0.0,0.0,0.0,0.0,0.0,0.0,0.0,0.0,0.0,0.0,0.0,0.0,0.0,0.0,0.7872,0.8203,0.8481,0.866,0.8726,0.8159,0.7314,0.6986,0.644,0.5686,0.5173,0.0,0.0,0.0,0.0,0.0,0.0,0.0,0.0,0.0,0.0,0.0,0.0,0.0,0.0,0.0,0.0,0.0,0.0,0.0,0.0,0.0,0.0,0.0,0.0,0.0,0.0,0.0,0.0,0.0,0.0,0.0,0.0,0.0,0.0,0.0,0.0,0.0,0.0,0.0,0.0,0.0,0.0,0.0,0.0,0.0,0.0,0.0,0.0,0.0,0.0,0.0,0.0,0.0,0.0,0.0,0.0,0.0,0.0,0.0,0.0,1.098,0.0,0.0,0.0,0.0,0.0,0.0,0.0,0.0,0.0,0.0,0.0,0.0,0.0,0.0,0.0,0.0,0.0,0.0,0.0,0.0,0.0,0.0,0.0,0.0,0.0,0.0,0.0,0.0,0.0,0.0,0.0,0.0,0.0,0.0,0.0,0.0,0.0,0.0,0.0,0.0,0.8027,0.8342,0.8603,0.8783,0.8844,0.8434,0.7366,0.7068,0.6719,0.5964,0.5602,0.0,0.0,0.0,0.0,0.0,0.0,0.0,0.0,0.0,0.0,0.0,0.0,0.0,0.0,0.0,0.0,0.0,0.0,0.0,0.0,0.0,0.0,0.0,0.0,0.0,0.0,0.0,0.0,0.0,0.0,0.0,0.0,0.0,0.0,0.0,0.0,0.0,0.0,0.0,0.0,0.0,0.0,0.0,0.0,0.0,0.0,0.0,0.0,0.0,0.0,0.0,0.0,0.0,1.0856,1.1231,1.155,1.2268,1.2621,1.2896,1.2323,1.1938,1.1803,0.0,0.0,0.0,0.0,0.0,0.0,0.0,0.0,0.0,0.0,0.0,0.0,0.0,0.0,0.0,0.0,0.0,0.0,0.0,0.0,0.0,0.0,0.0,0.0,0.0,0.8972,0.8499,0.0,0.0,0.0,0.0,0.0,0.0,0.0,0.0,0.0,0.0,0.0,0.0,0.8207,0.8473,0.8886,0.9082,0.8918,0.8481,0.7405,0.7321,0.6996,0.6252,0.6044,0.5843,0.0,0.0,0.0,0.0,0.0,0.0,0.0,0.0,0.0,0.0,0.0,0.0,0.0,0.0,0.0,0.0,0.0,0.0,0.0,0.0,0.0,0.0,0.0,0.0,0.0,0.0,0.0,0.0,0.0,0.0,0.0,0.0,0.6849,0.7412,0.0,0.0,0.0,0.0,0.0,0.0,0.0,0.0,0.0,0.0,0.0,0.0,0.0,1.0215,0.9804,1.0601,1.0999,1.1134,1.0958,1.1082,1.1671,1.2153,1.2318,1.247,1.2915,0.0,1.2301,1.1543,0.0,0.0,0.0,0.0,0.0,0.0,0.0,0.0,0.0,0.0,0.0,0.0,0.0,0.0,0.0,0.0,0.0,0.0,0.0,0.0,0.0,0.0,1.0352,1.037,0.9998,0.9762,0.0,0.8145,0.7023,0.7911,0.0,0.0,0.0,0.0,0.0,0.0,0.0,0.0,0.8548,0.896,0.9556,0.9835,0.9294,0.8848,0.8117,0.8027,0.7666,0.6836,0.6608,0.6254,0.5786,0.568,0.0,0.0,0.0,0.0,0.0,0.0,0.0,0.0,0.0,0.0,0.0,0.0,0.0,0.0,0.0,0.0,0.0,0.0,0.0,0.0,0.0,0.0,0.0,0.0,0.0,0.0,0.0,0.0,0.0,0.6636,0.7175,0.7643,0.7942,0.8149,0.0,0.0,0.0,0.0,0.0,0.0,0.0,0.0,0.0,1.0019,1.0767,1.1314,1.1624,1.1901,1.2108,1.2084,1.2391,1.2612,1.243,1.3485,1.412,1.4194,1.4135,1.3785,1.3479,1.2289,1.1728,1.1633,0.0,0.0,0.0,0.0,1.0783,1.0698,1.0776,1.0894,0.0,0.0,0.0,0.0,0.0,0.0,0.0,0.0,0.0,0.0,0.0,0.0,0.0,1.1227,1.082,1.056,1.0627,0.9853,0.9137,0.0,0.8644,0.83,0.8498,0.0,0.0,0.0,0.0,0.8714,0.8678,0.9291,0.9697,0.9883,0.9332,0.888,0.8335,0.8061,0.7892,0.7263,0.7063,0.7029,0.6821,0.648,0.6148,0.0,0.0,0.0,0.0,0.0,0.0,0.0,0.0,0.0,0.0,0.0,0.0,0.0,0.0,0.0,0.0,0.0,0.0,0.0,0.0,0.0,0.0,0.0,0.0,0.0,0.0,0.0,0.0,0.6766,0.7321,0.7764,0.8205,0.8546,0.0,0.0,0.0,0.0,0.0,0.0,1.0064,1.0612,1.0982,1.1307,1.1893,1.263,1.3207,1.3246,1.3077,1.2682,1.3458,1.3451,1.3177,1.4456,1.5112,1.5483,1.4952,1.4609,1.4549,1.2838,1.221,1.2142,1.1997,1.1784,1.1511,1.1729,1.1708,1.1518,1.177,1.1907,1.2024,1.2532,0.0,1.2039,1.1893,0.0,0.0,0.0,0.0,1.1409,1.1734,1.1835,1.1764,1.1907,1.1637,1.1365,1.1453,1.1324,1.0982,0.0,0.9641,0.9463,0.9519,0.0,0.0,0.0,0.0,0.8799,0.8673,0.9271,0.9651,0.9963,0.9573,0.8924,0.8211,0.8285,0.8117,0.7868,0.7688,0.7655,0.7742,0.7145,0.6807,0.7133,0.0,0.0,0.0,0.0,0.0,0.0,0.0,0.0,0.0,0.0,0.0,0.0,0.0,0.0,0.0,0.0,0.0,0.0,0.0,0.0,0.0,0.0,0.0,0.0,0.0,0.0,0.0,0.0,0.0,0.8242,0.8766,0.0,0.0,0.0,0.0,1.0187,1.0689,1.1063,1.1205,1.1482,1.2066,1.2821,1.345,1.386,1.4016,1.3985,1.3633,1.312,1.2784,1.2784,1.3291,1.3817,1.4159,1.4657,1.4843,1.4944,1.4892,1.3262,1.261,1.2447,1.2606,1.2241,1.1789,1.2086,1.1983,1.1809,1.2262,1.2514,1.2671,1.3258,1.3151,1.2971,1.2671,1.2374,0.0,0.0,1.1954,1.2192,1.2168,1.2288,1.2533,1.2675,1.2483,1.2246,1.2252,1.2246,1.2154,0.0,1.1308,1.0901,1.0975,0.0,0.8999,0.8268,0.8395,0.8587,0.8934,0.9073,0.9394,1.0153,0.9709,0.904,0.8372,0.859,0.875,0.8481,0.8293,0.8109,0.7929,0.775,0.7607,0.7501,0.7333,0.0,0.0,0.0,0.0,0.0,0.0,0.0,0.0,0.0,0.0,0.0,0.0,0.0,0.0,0.0,0.0,0.0,0.0,0.0,0.0,0.0,0.0,0.0,0.0,0.0,0.0,0.0,0.0,0.9564,1.0048,0.0,1.0399,1.0477,1.0862,1.1552,1.1484,1.1942,1.2849,1.3169,1.3641,1.412,1.4614,1.4865,1.502,1.4629,1.4215,1.3948,1.4122,1.4075,1.4153,1.5024,1.5489,1.5895,1.5655,1.557,1.5287,1.4548,1.3973,1.3706,1.3233,1.3231,1.3319,1.3406,1.3275,1.3341,1.3913,1.3834,1.3723,1.4136,1.4114,1.3936,1.3465,1.3144,1.2741,1.2387,1.2944,1.3353,1.3139,1.3383,1.3789,1.316,1.2873,1.2911,1.2911,1.2911,1.2879,1.3115,1.2445,1.1712,1.121,1.0625,0.9534,0.8129,0.8501,0.8881,0.9065,0.922,0.9726,1.0569,0.9963,0.9301,0.8774,0.884,0.8844,0.8575,0.8444,0.8268,0.8027,0.7954,0.7795,0.7529,0.7464,0.6982,0.0,0.0,0.0,0.0,0.0,0.0,0.0,0.0,0.0,0.0,0.0,0.0,0.0,0.0,0.0,0.0,0.0,0.0,0.0,0.0,0.0,0.0,0.0,0.0,0.0,0.0,0.9064,1.0528,1.0894,1.1281,1.1741,1.1643,1.2059,1.2902,1.2927,1.3258,1.4125,1.4464,1.4795,1.5295,1.5531,1.5752,1.6148,1.5454,1.5006,1.497,1.5276,1.519,1.5089,1.5912,1.6317,1.6494,1.6152,1.5879,1.5724,1.5386,1.5226,1.51,1.4281,1.3958,1.4223,1.4223,1.4223,1.4238,1.4669,1.4875,1.4692,1.4892,1.505,1.4924,1.4342,1.4109,1.3916,1.3436,1.386,1.4311,1.3804,1.4168,1.4372,1.3733,1.3574,1.3574,1.3574,1.3574,1.3574,1.3919,1.2943,1.2039,1.1474,1.0729,0.9619,0.8312,0.8528,0.8916,0.9444,0.9574,0.987,1.0721,1.0246,0.9565,0.9092,0.8896,0.8885,0.8709,0.8526,0.833,0.8117,0.8081,0.7938,0.7668,0.7574,0.7056,0.6155,0.0,0.0,0.0,0.0,0.0,0.0,0.0,0.0,0.0,0.0,0.0,0.0,0.0,0.0,0.0,0.0,0.0,0.0,0.0,0.0,0.0,0.0,0.0,0.8552,0.8762,0.956,1.0812,1.1395,1.2051,1.2768,1.3359,1.3822,1.444,1.4944,1.5248,1.5132,1.5127,1.5462,1.6152,1.6167,1.6681,1.7388,1.6324,1.604,1.6189,1.6025,1.595,1.5958,1.631,1.6323,1.6175,1.616,1.6058,1.5903,1.5903,1.614,1.6276,1.5436,1.4877,1.4403,1.4731,1.4731,1.4411,1.4738,1.5217,1.5545,1.5545,1.5658,1.5796,1.5318,1.5272,1.5396,1.4893,1.4855,1.4981,1.4477,1.4422,1.4586,1.4215,1.4082,1.4082,1.4082,1.4082,1.4082,1.4082,1.2922,1.1836,1.1958,1.0505,0.9217,0.8852,0.8469,0.0,1.0102,0.9943,0.9811,1.0595,1.0361,0.9836,0.8742,0.8944,0.8877,0.8877,0.8546,0.8309,0.8215,0.8125,0.8036,0.7942,0.7668,0.7088,0.6541,0.0,0.0,0.0,0.0,0.0,0.0,0.0,0.0,0.0,0.0,0.0,0.0,0.0,0.0,0.0,0.0,0.0,0.0,0.0,0.0,0.0,0.9281,0.9508,0.9325,1.0333,1.1647,1.2868,1.3333,1.369,1.4449,1.4448,1.4777,1.5725,1.5391,1.5671,1.6469,1.6092,1.6188,1.6848,1.6993,1.6928,1.6845,1.643,1.597,1.5643,1.5237,1.5223,1.5586,1.6308,1.6565,1.6518,1.7096,1.7115,1.6607,1.6607,1.6494,1.647,1.5617,1.5451,1.5575,1.5739,1.5647,1.5758,1.5924,1.5924,1.6113,1.6243,1.6316,1.6357,1.5853,1.5716,1.5755,1.5248,1.5539,1.5668,1.4808,1.5104,1.5235,1.44,1.4238,1.4238,1.4238,1.4238,1.4272,1.4373,1.2924,1.1665,1.1699,1.079,0.9671,0.8669,0.8262,0.0,0.913,0.9201,0.9256,0.9911,1.0582,1.0473,0.9252,0.9403,0.9415,0.8975,0.8815,0.8656,0.8501,0.8473,0.8321,0.8032,0.7381,0.6866,0.0,0.0,0.0,0.0,0.0,0.0,0.0,0.0,0.0,0.0,0.0,0.0,0.0,0.0,0.0,0.0,0.0,0.0,0.0,0.0,0.0,0.0,1.0545,1.1192,1.112,1.1949,1.2904,1.3964,1.4509,1.5076,1.5728,1.565,1.6035,1.6711,1.6581,1.6632,1.7406,1.7239,1.751,1.7739,1.7932,1.7886,1.7238,1.6718,1.6256,1.5661,1.5343,1.5322,1.5561,1.6484,1.6868,0.0,1.7587,1.7613,1.7198,1.7281,1.7248,0.0,0.0,0.0,0.0,0.0,1.6332,1.6422,1.6422,1.6422,1.6438,1.6544,1.6584,1.6584,1.6236,1.6283,1.616,1.5926,1.6246,1.6419,1.5481,1.5585,1.5528,1.4822,1.4476,1.4299,1.4299,1.4346,1.4414,1.4316,1.2794,0.0,1.1473,1.0483,0.9454,0.8561,0.8164,0.8314,0.8791,0.9244,0.9706,1.0189,1.1077,1.1168,0.9921,0.9902,0.0,0.0,0.0,0.8681,0.8501,0.8105,0.0,0.0,0.0,0.6529,0.6118,0.0,0.0,0.0,0.4673,0.451,0.0,0.0,0.0,0.0,0.0,0.0,0.0,0.0,0.0,0.0,0.0,0.0,0.0,0.0,0.0,0.0,1.1788,1.3105,1.3436,1.3521,1.3893,1.4629,1.5236,1.605,1.6843,1.6868,1.7181,1.7736,1.7928,1.8054,1.7952,0.0,0.0,0.0,0.0,1.8612,1.7884,1.7191,1.6551,1.5931,1.6015,1.5957,1.5718,1.7024,1.7135,1.6495,1.7704,1.8109,1.7818,1.7814,1.7882,1.7672,1.6935,1.6625,1.6633,1.6592,1.6592,1.6609,1.6609,0.0,0.0,1.6804,1.6812,1.6812,1.6812,1.6927,1.6852,1.6886,1.6885,1.6904,1.6245,1.5973,1.555,1.5175,1.4659,1.4319,1.4306,1.4414,1.4336,1.381,1.2747,1.1844,1.1411,1.0104,0.8972,0.8416,0.8611,0.8581,0.8858,0.9677,1.0546,1.0509,0.0,0.0,1.0649,1.0419,0.9837,0.915,0.8824,0.8566,0.8403,0.7424,0.6993,0.7424,0.6836,0.6198,0.5685,0.5676,0.53,0.4883,0.4747,0.4684,0.0,0.0,0.0,0.0,0.0,0.0,0.0,0.0,0.0,0.0,0.0,0.0,0.0,0.0,0.0,1.2865,1.3823,1.4625,1.5291,1.5911,1.6221,1.5955,1.6007,1.6265,1.7043,1.7271,1.7554,1.8426,1.8312,1.8429,1.8668,1.8406,1.8192,1.804,1.8574,1.8228,1.7152,1.7445,1.705,1.5938,0.0,0.0,1.532,1.7011,1.7628,1.7199,1.8716,1.9168,1.8749,1.8792,1.8442,1.7494,1.699,1.6885,1.6974,1.669,1.6674,1.6795,1.714,1.714,1.6992,1.7836,1.7887,1.7712,1.8061,1.7912,0.0,1.7722,1.7521,1.6961,1.6719,1.624,1.5698,1.5204,1.4736,1.4441,1.4326,1.4051,1.4003,1.3939,1.2812,1.1865,1.1508,1.0208,0.9301,0.9248,0.8522,0.8186,0.8259,0.9271,0.9685,0.9314,1.1306,1.2211,1.104,1.0853,1.056,0.9729,0.9123,0.8803,0.8771,0.8006,0.7675,0.76,0.6772,0.6151,0.5891,0.5515,0.5316,0.5128,0.491,0.4659,0.0,0.0,0.0,0.0,0.0,0.0,0.0,0.0,0.0,0.0,0.0,1.1813,1.1949,0.0,1.3165,1.4082,1.501,1.5685,1.633,1.6852,1.7033,1.668,1.6988,1.7465,1.7724,1.8003,1.8435,1.8806,1.895,1.9043,1.9247,1.9278,1.9084,1.9007,1.9382,1.8853,1.7405,1.7596,1.6996,1.5563,1.5487,1.53,1.5181,1.6591,1.7065,1.6804,1.8541,1.9001,1.8742,1.8473,1.796,1.7024,1.6767,1.6845,1.6999,1.7001,1.7345,1.7596,1.7672,1.7814,1.7814,1.8339,1.8409,1.8302,1.8655,1.8371,1.8118,1.8211,1.7803,1.7396,1.7127,1.661,1.6055,1.5607,1.5111,1.4604,1.4176,1.4088,1.3846,1.3174,1.2179,1.1396,1.0849,1.0113,0.9387,0.9126,0.8389,0.7828,0.766,0.8869,0.9706,0.9389,1.1594,1.2727,1.1813,1.1059,1.0302,0.9534,0.8598,0.8297,0.8442,0.7338,0.6865,0.701,0.6176,0.5735,0.5671,0.5443,0.5232,0.5199,0.5049,0.4823,0.0,0.0,0.0,0.0,0.0,0.0,0.0,0.0,1.2983,1.313,1.319,1.3251,1.3377,1.3891,1.4475,1.5052,1.587,1.6527,1.7014,1.7373,1.7566,1.741,1.7957,1.8314,1.8352,1.8692,1.8947,1.9032,1.9382,1.9618,1.9656,1.9977,2.0157,1.9981,2.0327,1.9608,1.7612,1.787,1.6888,1.514,1.5238,1.5259,1.5181,1.6306,1.6606,1.6672,1.8149,1.8617,1.8308,1.8092,1.7411,1.6487,1.6487,1.6589,1.7016,1.7491,1.801,1.8355,1.8382,1.8679,1.8831,1.8849,1.8902,1.9026,1.9026,1.8792,1.857,1.8604,1.801,1.7607,1.7681,1.6946,1.6189,1.6189,1.5308,1.4408,1.401,1.3935,1.348,1.2173,1.1522,1.1102,1.0347,0.9794,0.9444,0.8959,0.8432,0.8069,0.7465,0.8869,0.9928,0.9873,1.1905,1.2898,1.2288,1.1068,0.9833,0.9008,0.8068,0.7565,0.7856,0.6637,0.603,0.6359,0.5894,0.5463,0.5401,0.5341,0.5286,0.5237,0.5164,0.5123,1.3806,1.2862,1.2201,1.2775,1.2731,1.2652,0.0,0.0,1.4178,1.3805,1.3954,1.42,1.4475,1.4841,1.531,1.6202,1.6812,1.7339,1.7517,1.805,1.8474,1.8775,1.8331,1.8154,1.8333,1.8569,1.8862,1.9231,1.9467,1.9684,1.9873,1.993,1.9774,1.9416,2.0143,1.9369,1.6713,1.8107,1.7563,1.4997,1.548,1.5542,1.5181,1.6306,1.686,1.7406,1.8896,1.9251,1.8854,1.8321,1.7584,1.6651,1.6651,1.7017,1.7336,1.7579,1.801,1.8553,1.9248,1.9419,1.9239,1.994,1.994,1.9779,2.0148,1.9797,1.913,1.9314,1.8389,1.7486,1.7802,1.7032,1.6189,1.6189,1.5209,1.4164,1.4035,1.3014,1.2173,1.1987,1.1334,1.0721,1.0347,1.0188,1.0054,0.964,0.907,0.8676,0.8069,0.9476,1.0288,0.9697,1.1875,1.2811,1.1778,1.1111,1.0078,0.8791,0.8379,0.7835,0.7569,0.6756,0.6479,0.6363,0.5934,0.5523,0.5466,0.5403,0.5371,0.5363,0.5245,0.5002,1.4078,1.3328,1.2925,1.3206,1.3541,1.3819,1.4325,1.4629,1.49,1.4916,1.4962,1.5146,1.5551,1.5932,1.6566,0.0,1.8028,1.8631,1.8858,1.9154,1.9341,1.9189,1.9047,1.8942,1.9029,1.924,1.949,1.9448,1.9666,1.9826,1.9911,1.9921,1.9921,2.0085,2.0434,1.9655,1.7356,1.8082,1.7365,1.497,1.53,1.5556,1.5563,1.6119,1.6688,1.7437,1.7989,1.8176,1.7989,1.7803,1.7055,1.6306,1.6306,1.6688,1.7414,1.7821,1.8685,1.9594,1.9843,1.9989,2.0152,2.0402,2.044,2.0352,1.9989,1.9706,1.9245,1.8659,1.8251,1.7859,1.7908,1.7195,1.6472,1.611,1.5231,1.4139,1.3523,1.2619,1.193,1.181,1.0911,1.0239,1.0237,1.0076,0.9728,0.9661,0.9279,0.8877,0.9074,0.9878,1.0703,1.157,1.2522,1.28,1.1715,1.1192,1.0401,0.8825,0.8204,0.7663,0.7029,0.6374,0.5934,0.6062,0.5783,0.5548,0.5523,0.5431,0.5384,0.5382,0.5294,0.5061,1.4112,1.3796,1.3664,1.3961,1.4467,1.5064,1.5391,1.5643,1.5999,1.5986,1.6144,1.6298,1.652,1.7184,1.7655,1.8187,1.8942,1.9452,1.9624,1.9826,1.9805,1.9479,1.9667,1.9824,1.9717,1.9755,1.975,1.9505,1.977,1.9921,1.9921,2.0095,2.0269,2.0607,2.0781,2.0171,1.8592,1.8613,1.7721,1.5888,1.5673,1.5744,1.6119,1.6314,1.6688,1.7437,1.7671,1.7695,1.7499,1.7319,1.6755,1.5995,1.5953,1.6681,1.7616,1.8176,1.9099,2.001,2.0253,2.0382,2.0537,2.0398,2.0627,2.0749,1.9822,1.956,1.9454,1.8576,1.8231,1.8087,1.7636,1.6933,1.6248,1.5549,1.4805,1.3864,1.3116,1.2361,1.1826,1.1564,1.0816,1.0109,1.0299,0.9938,0.9575,0.9665,0.9681,0.9681,0.9878,1.048,1.1536,1.2898,1.3162,1.2763,1.1691,1.1292,1.0519,0.8829,0.8056,0.733,0.6663,0.6019,0.5774,0.5741,0.5621,0.5559,0.5559,0.5442,0.5384,0.5384,0.5322,0.527,1.4254,1.4024,1.4148,1.555,1.5986,1.6183,1.7097,1.746,1.7468,1.7181,1.7504,1.7859,1.7644,1.815,1.8683,1.8926,1.9341,1.9634,1.9644,1.9826,1.9967,1.9967,2.017,2.0226,0.0,1.9637,1.9514,1.9316,1.9684,1.9921,1.9921,2.0269,2.0607,2.0607,2.1475,2.1393,2.0195,1.9876,1.8992,1.7716,1.6971,1.6681,1.6681,1.7055,1.7437,1.7445,1.8182,1.8247,1.767,1.7109,1.6729,1.6145,1.5995,1.6868,1.8176,1.8727,1.8913,1.9099,2.0603,2.0594,1.9666,1.9657,2.0408,2.0973,2.0037,1.9666,1.9674,1.9666,1.8795,1.778,1.7009,1.619,1.5554,1.4578,1.3676,1.2928,1.2928,1.2172,1.1447,1.1564,1.0816,1.0109,1.0299,0.9938,0.9575,0.9665,1.048,1.1082,1.0471,1.1473,1.2362,1.3205,1.314,1.2711,1.1578,1.1397,1.0595,0.8833,0.816,0.7436,0.6666,0.6103,0.5861,0.5744,0.5621,0.5559,0.5559,0.5442,0.5384,0.5384,0.5322,0.5127,1.4226,1.472,1.532,1.581,1.6603,1.7335,1.7551,1.7814,1.793,1.7645,1.7733,1.795,1.7558,1.8441,1.9059,1.9128,1.9916,2.0485,2.0814,2.0899,2.0617,2.013,2.017,0.0,0.0,0.0,0.0,1.9694,1.9713,1.9942,2.026,2.0434,2.0955,2.1475,2.1956,2.171,2.0724,2.0324,1.9306,1.7521,1.6875,1.6378,1.6467,1.6845,1.6974,1.6868,1.7116,1.7389,1.767,1.7373,1.7019,1.6722,1.6936,1.7242,1.7803,1.8541,1.8541,1.8176,2.0417,2.0603,1.9674,2.0037,1.9666,1.9108,1.9099,1.8922,1.871,1.8593,1.8231,1.7885,1.6717,1.619,1.5494,1.4222,1.3487,1.2739,1.255,1.2042,1.1755,1.2063,1.1173,1.0473,1.1405,1.0431,1.0062,1.1772,1.1929,1.1909,1.2176,1.2861,1.3382,1.3341,1.2911,1.2461,1.1597,1.106,1.0266,0.8837,0.8164,0.7466,0.6733,0.6089,0.5842,0.5801,0.5681,0.56,0.5559,0.5482,0.5425,0.5384,0.5028,0.4831,1.4919,1.5496,1.6158,1.6813,1.7689,1.8494,1.857,1.8787,1.8844,1.8391,1.837,1.8299,1.7834,1.8622,1.9275,1.9573,2.0189,2.0932,2.1254,2.1276,2.0952,2.0292,2.0405,2.0362,0.0,0.0,0.0,1.9684,1.9876,2.0115,2.0598,2.0781,2.1169,2.211,2.2431,2.2402,2.2026,2.1374,2.0178,1.8265,1.7421,1.6921,1.6818,1.6825,1.6957,1.686,1.7109,1.7383,1.7865,1.7756,1.755,1.7383,1.7404,1.7671,1.7803,1.8354,1.8354,1.8176,2.0417,2.0046,1.8735,1.948,1.8922,1.8176,1.8168,1.7981,1.7965,1.7675,1.7529,1.7032,1.5996,1.5487,1.4805,1.3487,1.2922,1.2561,1.2416,1.2106,1.2015,1.2564,1.1476,1.096,1.1869,1.1316,1.1157,1.2845,1.2993,1.3195,1.3717,1.3973,1.4059,1.3401,1.2964,1.229,1.1597,1.1093,1.0117,0.908,0.8207,0.7708,0.7178,0.6296,0.5853,0.5831,0.5711,0.5621,0.5559,0.5501,0.5444,0.5384,0.4878,0.4523,1.5934,1.6339,1.6787,1.8443,1.9093,1.9485,2.0024,2.0221,2.0056,1.9594,1.9406,1.9098,1.8663,0.0,1.9457,1.9938,2.0335,2.079,2.1276,2.1276,2.1124,0.0,0.0,0.0,0.0,0.0,0.0,1.9494,0.0,2.0598,2.0607,2.1139,2.1587,2.2319,2.2712,2.33,2.3741,2.2676,2.1433,1.9776,1.8448,1.7751,1.7735,1.718,1.6987,1.6973,1.7726,1.8192,1.8192,1.8192,1.8099,1.7927,1.7764,1.7962,1.8176,1.8184,1.8549,1.9099,2.0612,1.9311,1.6876,1.7803,1.8184,1.7997,1.7055,1.7055,1.725,1.7437,1.6688,1.5751,1.4617,1.4046,1.3481,1.2356,1.2172,1.2205,1.233,1.2362,1.2433,1.2661,1.1921,1.1362,1.1874,1.2176,1.245,1.3064,1.4077,1.4733,1.4873,1.4776,1.4386,1.3395,1.2694,1.2215,1.1592,1.1093,1.0344,0.9555,0.8478,0.7779,0.7626,0.6547,0.5894,0.5834,0.5711,0.5621,0.5559,0.5501,0.5444,0.5384,0.4878,0.4372,1.6415,1.7214,1.798,1.8922,1.9637,2.0035,2.0414,2.0339,2.0109,1.9491,1.9214,1.8988,1.8558,1.9118,1.9782,1.9938,2.0644,0.0,2.1276,2.1276,0.0,2.0868,0.0,2.0952,2.0614,2.1007,0.0,0.0,2.0466,2.0776,2.1638,2.1977,2.2266,2.2866,2.3386,2.3623,2.3752,2.1869,2.0288,1.9021,1.7665,1.6652,1.6046,1.6084,1.6001,1.5688,1.6159,1.6666,1.7441,1.7441,1.7604,1.7943,1.8288,1.8081,1.7632,1.8698,1.829,1.7632,2.002,1.9321,1.7404,1.7663,1.7139,1.6837,1.7093,1.6876,1.6314,1.6681,1.6494,1.5556,1.4234,1.3858,1.3481,1.2356,1.2172,1.2205,1.233,1.2428,1.2531,1.2678,1.2577,1.2279,1.1782,1.2429,1.3294,1.4206,1.4542,1.4733,1.4873,1.4855,1.4487,1.3406,1.2558,1.1885,1.1597,1.0684,0.994,0.9555,0.8871,0.8167,0.7626,0.6917,0.6262,0.5834,0.5711,0.5621,0.5559,0.5845,0.5781,0.5384,0.4878,0.4372,1.7204,1.7882,1.8652,1.9496,2.0109,2.0522,2.0554,2.0312,1.9906,1.946,1.9029,1.8673,1.8498,1.8942,1.9625,1.9938,2.0485,2.1114,2.1276,2.1276,2.133,0.0,2.1323,0.0,2.1296,2.1609,2.1807,0.0,2.1282,2.1373,2.212,2.2256,2.2599,2.3343,2.3612,2.3614,2.3346,2.1282,2.0,1.9162,1.7619,1.6645,1.6088,1.5877,1.5655,1.5486,0.0,1.6551,1.7389,1.7516,1.7828,1.8328,1.844,1.8239,1.7819,1.8102,1.793,1.7546,1.8126,1.8049,1.7772,1.7781,1.7041,1.5948,1.6357,1.5931,1.5368,1.5931,1.5368,1.4435,1.3864,1.3299,1.2922,1.2361,1.221,1.2286,1.2406,1.2526,1.2645,1.2765,1.304,1.3106,1.216,1.3272,1.4392,1.4873,1.5078,1.5072,1.4886,1.4886,1.4523,1.3406,1.2335,1.1658,1.1597,1.044,0.9697,0.955,0.8867,0.8361,0.8006,0.729,0.681,0.638,0.6249,0.6147,0.6252,0.6188,0.5781,0.5384,0.4878,0.4374,1.8061,1.8552,1.9039,2.0077,2.0587,2.0813,2.064,2.0252,1.998,1.9584,1.8764,1.8168,1.8451,1.8677,1.9153,1.9938,2.0356,2.0669,2.1286,2.1146,2.1178,2.1373,2.1728,2.1997,2.2072,2.2108,2.2341,2.2686,2.2362,2.2284,2.2266,2.2339,2.2945,2.3784,2.3795,2.3336,2.2616,2.0778,1.9758,1.9758,1.8057,1.7173,1.6958,1.6015,1.5696,1.5798,1.6426,0.0,1.7627,1.8074,1.8316,1.8744,1.8582,1.8395,1.8022,1.7108,1.7373,1.7828,1.6191,1.6518,1.7689,1.7891,1.6904,1.5377,1.5228,1.4805,1.4617,1.502,1.4071,1.3122,1.3517,1.2939,1.2178,1.2194,1.2275,1.2582,1.2526,1.2841,1.2957,1.3062,1.349,1.369,1.3301,1.4512,1.5507,1.5091,1.5621,1.5647,1.488,1.4669,1.4305,1.3368,1.2245,1.1563,1.1554,1.0375,0.9636,0.953,0.9048,0.873,0.8368,0.7831,0.7344,0.7275,0.677,0.6663,0.6945,0.6521,0.6111,0.5552,0.5046,0.4374,1.8852,1.9327,1.9625,2.0515,2.0705,2.0662,2.0813,2.0554,1.9891,1.9039,1.8957,1.8885,1.839,1.9193,1.9938,2.0409,2.032,2.0508,2.1146,2.0784,2.0817,2.168,2.1943,2.2137,2.2525,2.2632,0.0,0.0,2.2695,2.2738,2.2578,2.2941,2.3558,2.4032,2.33,2.276,2.2616,2.0778,1.9561,1.8617,1.7674,1.6729,1.5643,1.5581,1.5581,1.5499,1.6335,0.0,1.7456,1.802,1.8582,1.8931,1.8907,1.8496,1.7844,1.7803,1.7124,1.6365,1.7034,1.6729,1.5806,1.5835,1.587,1.5948,1.5416,1.5181,1.502,1.476,1.4147,1.3524,1.3251,1.2628,1.2199,1.2297,1.2724,1.2989,1.3217,1.3761,1.4054,1.3672,1.4077,1.4313,1.4427,1.5189,1.5917,1.6115,1.6028,1.5615,1.4751,1.4404,1.3831,1.314,1.2094,1.1435,1.1344,1.0301,0.9608,0.944,0.935,0.8841,0.8289,0.8121,0.7631,0.7194,0.6868,0.6785,0.6945,0.7149,0.6906,0.6392,0.5714,0.5043,1.9083,1.9614,2.0148,2.0686,2.0823,2.0737,2.0727,2.0302,1.9643,1.8984,1.8761,1.869,1.8464,1.8734,1.9151,1.9574,1.9524,1.9801,2.0631,2.0395,2.0714,2.1787,2.1976,2.2116,2.2471,2.2729,2.288,2.288,2.3095,2.3181,2.3063,2.3515,2.3881,2.4107,2.3179,2.2432,2.1879,2.0118,1.8911,1.8065,1.6927,1.6357,1.5786,1.5595,1.5445,1.5533,1.6173,0.0,1.7411,1.7912,1.8269,1.885,1.8455,1.8104,1.7694,1.7207,1.6942,1.6808,1.6423,1.6292,1.6145,1.5423,1.5471,1.5758,1.5228,1.4993,1.4818,1.4891,1.4109,1.3323,1.3382,1.2784,1.2205,1.2324,1.2836,1.3561,1.4342,1.4433,1.4476,1.4476,1.4676,1.51,1.537,1.5766,1.6088,1.6422,1.6187,1.5815,1.5126,1.4739,1.3944,1.3278,1.1999,1.134,1.1287,1.0188,0.9481,0.935,0.9261,0.894,0.8575,0.8442,0.8151,0.7892,0.7552,0.7468,0.7638,0.7477,0.7227,0.6724,0.5882,0.4705,1.9559,2.0168,2.0602,2.0974,2.1069,2.0938,2.0608,2.0141,1.9475,1.8915,1.8684,1.8453,1.8373,1.8448,1.8551,1.8772,1.8765,1.9106,2.0096,2.0166,2.0619,2.2019,2.2164,2.2251,2.2555,2.2794,0.0,2.2977,2.3235,2.3418,2.3472,2.3828,2.4064,2.4107,2.323,2.2298,2.151,1.978,1.8756,1.7884,1.6648,1.6081,1.5969,1.5626,1.5519,1.5774,1.6216,0.0,0.0,1.7805,1.8143,1.8528,1.7951,1.7643,1.7299,1.6539,1.6518,1.7041,1.5598,1.5828,1.6481,1.5598,1.5262,1.5337,1.5221,1.4993,1.4623,1.5033,1.4077,1.3122,1.353,1.2968,1.2438,1.278,1.3567,1.4354,1.5453,1.528,1.4881,1.5479,1.5479,1.5678,1.6083,1.63,1.6435,1.6327,1.6121,1.5783,1.5525,1.4886,1.4256,1.32,1.2305,1.1449,1.1249,1.0286,0.9565,0.9285,0.9175,0.904,0.8877,0.8766,0.8677,0.8607,0.8082,0.7992,0.8334,0.7815,0.7394,0.7056,0.5894,0.4717,2.0718,2.1221,2.159,2.1823,2.1545,2.1056,2.0722,2.0037,1.934,1.8791,1.8884,1.8821,1.8289,1.9086,1.9464,1.8926,1.8892,1.9104,2.0116,1.9953,2.0665,2.2605,2.262,2.2664,2.3298,2.3065,2.2955,2.2729,2.3138,2.3494,2.3698,2.3752,2.3881,2.4107,2.3386,2.2829,2.2432,2.0565,1.9321,1.8247,1.7061,1.6103,1.5404,1.5633,1.6031,1.6188,1.7117,0.0,0.0,1.7951,1.7943,1.7951,1.7566,1.6884,1.6349,1.6159,1.5884,1.5389,1.5187,1.5194,1.5389,1.5187,1.5194,1.5201,1.5187,1.5181,1.502,1.478,1.4153,1.3524,1.3263,1.2724,1.278,1.4372,1.5342,1.6062,1.6665,1.6275,1.5884,1.6083,1.6083,1.6083,1.6083,1.6218,1.6327,1.6313,1.6042,1.5673,1.5518,1.4684,1.3782,1.3557,1.2924,1.2129,1.114,1.0442,0.9954,0.9285,0.9118,0.8975,0.8877,0.8709,0.8615,0.8607,0.8428,0.8334,0.8334,0.815,0.806,0.7897,0.6281,0.5261,2.0815,2.1574,2.227,2.2372,2.2134,2.1637,2.088,2.0472,1.985,1.8891,1.8784,1.8853,1.8333,1.8279,1.8,1.7786,1.7358,1.7504,1.8616,1.8643,1.9401,2.1635,2.1821,2.197,2.2826,2.3206,2.3343,2.3526,2.372,2.3871,2.3967,2.3967,2.4011,2.4107,2.3467,2.2974,2.2457,2.0888,1.9475,1.8216,1.7132,1.6138,1.5404,1.5444,1.564,1.5779,1.6445,0.0,0.0,1.7215,1.7413,1.7421,1.6943,1.6558,1.6294,1.582,1.5561,1.5309,1.5215,1.5181,1.5181,1.5181,1.5181,1.5181,1.5181,1.5181,1.5006,1.4682,1.4153,1.3602,1.3198,1.3118,1.3831,1.5877,1.6293,1.6282,1.7268,1.6679,1.6083,1.6083,1.6083,1.6083,1.6083,1.6279,1.6374,1.6198,1.6172,1.6035,1.5797,1.5163,1.4519,1.4211,1.2946,1.189,1.1035,1.0597,0.9928,0.9207,0.913,0.8999,0.8795,0.8722,0.866,0.8607,0.8428,0.8334,0.8334,0.815,0.806,0.8064,0.6246,0.542,2.0759,2.1771,2.2453,2.2293,2.2248,2.1794,2.0924,2.0373,1.9796,1.8993,1.8832,1.8713,1.8476,1.8051,1.7471,0.0,1.7029,1.707,1.753,1.8103,1.9089,2.0895,2.0978,2.1333,2.251,2.3026,2.3601,2.4075,2.4043,2.4064,2.4215,2.4151,2.4151,2.4215,2.3662,2.321,2.2675,2.1273,1.9802,1.8431,1.7291,1.627,1.5337,1.5423,1.543,1.5526,1.5988,0.0,0.0,1.6715,1.6715,1.6685,1.6273,1.6117,1.6067,1.5622,1.5384,1.5337,1.5269,1.5221,1.5181,1.5181,1.5181,1.5194,1.5235,1.5215,1.4993,1.4429,1.3774,1.3483,1.3239,1.3777,1.4925,1.6717,1.6707,1.6474,1.7268,1.6672,1.6083,1.6083,1.6083,1.6083,1.6083,1.6252,1.632,1.611,1.6259,1.6313,1.611,1.5479,1.4862,1.4427,1.3183,1.1931,1.1063,1.061,1.0126,0.9228,0.9146,0.9003,0.8783,0.8726,0.8668,0.8607,0.8456,0.8362,0.8334,0.8179,0.7921,0.7725,0.6068,0.5097,2.0736,2.1671,2.2179,2.1704,2.1671,2.1579,2.0418,1.9661,1.9155,1.9144,1.895,1.8713,1.8476,1.877,1.8713,1.7283,1.8288,1.8818,1.751,1.8838,1.9929,2.0539,2.0578,2.1104,2.2443,2.3041,2.3601,2.4075,2.3892,0.0,2.443,2.4237,2.4215,2.4452,2.3893,2.3811,2.4031,2.2145,2.0508,1.9184,1.7842,1.6421,1.5187,1.5751,1.5938,0.0,0.0,0.0,0.0,1.6292,1.6074,1.5953,1.554,1.5316,1.5208,1.5357,1.5316,1.5208,1.5357,1.5309,1.5181,1.5181,1.5181,1.5208,1.5364,1.5303,1.4993,1.4059,1.302,1.2763,1.3849,1.4567,1.5486,1.663,1.6864,1.6864,1.6864,1.6474,1.6083,1.6083,1.6083,1.6083,1.6083,1.6083,1.6083,1.6083,1.6083,1.6083,1.6083,1.5081,1.4427,1.4305,1.341,1.2484,1.1483,1.1087,1.0574,0.9403,0.9154,0.8967,0.8873,0.8701,0.8607,0.8607,0.8517,0.8424,0.8334,0.8244,0.7642,0.6721,0.5778,0.4469,2.0483,2.1288,2.1916,2.176,2.1734,2.1329,2.0624,1.9988,1.9391,1.8939,1.8832,1.8713,1.8476,1.8183,1.7957,1.7881,1.7861,1.7846,1.8309,1.9136,1.9875,2.0696,2.1679,2.2578,2.3411,0.0,2.3946,2.4107,2.4334,2.4398,2.4237,2.408,2.3978,2.3904,2.3375,2.2849,2.2685,2.1677,2.07,1.9758,1.8493,1.7458,1.6126,1.5779,1.5574,0.0,0.0,0.0,0.0,1.5612,1.5416,1.5375,1.5235,1.5289,1.533,1.5276,1.5289,1.533,1.5276,1.5221,1.5181,1.5181,1.5255,1.535,1.5398,1.5377,1.5167,1.4316,1.3602,1.3251,1.4841,1.5152,1.5466,1.729,1.7385,1.6864,1.6864,1.6474,1.6083,1.6083,1.6083,1.6083,1.6083,1.6171,1.6205,1.6096,1.6171,1.6198,1.6096,1.5081,1.4458,1.4421,1.3461,1.2453,1.1182,1.1178,1.0698,0.9334,0.924,0.9069,0.8787,0.8722,0.8668,0.8607,0.8517,0.8428,0.8334,0.8244,0.7642,0.6724,0.5824,0.4848,1.9521,2.0458,2.1074,2.0921,2.0962,2.0759,1.9966,1.9657,1.9227,1.8702,1.8799,1.8821,1.8498,1.795,1.7721,1.7644,1.7757,1.7907,1.8035,1.9247,2.0104,2.0771,2.1727,2.2471,0.0,2.3838,2.4151,2.4237,2.4517,2.4624,2.4527,2.4125,2.3831,2.379,2.3,2.2626,2.2456,2.1763,2.0971,2.0061,1.9569,1.8359,1.6867,1.6508,1.5883,0.0,0.0,0.0,0.0,1.5181,1.5181,1.5181,1.5181,1.5242,1.5316,1.5282,1.5296,1.5316,1.5282,1.5228,1.5181,1.5181,1.5289,1.5411,1.5411,1.5261,1.5116,1.4571,1.4042,1.4273,1.5628,1.5737,1.6062,1.7697,1.7393,1.6864,1.6672,1.6275,1.6083,1.6083,1.613,1.6151,1.609,1.6205,1.6259,1.6103,1.6164,1.6191,1.6096,1.5081,1.4476,1.4476,1.3484,1.2458,1.159,1.1644,1.097,0.973,0.9683,0.9319,0.8799,0.875,0.8693,0.8611,0.8554,0.8477,0.8387,0.7917,0.7304,0.6724,0.5822,0.5019,0.0,1.9252,1.9889,1.9593,1.973,1.9746,1.9007,1.8745,0.0,1.8498,1.881,1.8993,1.8562,1.8377,1.798,1.6934,1.8,1.8663,1.7548,1.9231,2.0637,2.0619,2.1067,0.0,2.2452,2.3588,2.4247,2.4474,2.4517,2.4721,2.513,2.4388,2.3997,2.3627,2.2882,2.2671,2.2837,2.2259,2.1577,2.0419,2.0623,1.9447,1.715,1.7173,1.6515,0.0,0.0,0.0,0.0,1.5181,1.5181,1.5181,1.5181,1.5181,1.5201,1.5343,1.5303,1.5201,1.5343,1.5303,1.5181,1.5194,1.5303,1.5425,1.5425,1.5142,1.4828,1.4687,1.4758,1.5067,1.6215,1.6529,1.6889,1.7437,1.7268,1.6672,1.6282,1.6083,1.6083,1.6083,1.6198,1.6246,1.6103,1.6198,1.6246,1.6103,1.6083,1.6083,1.6083,1.5081,1.4476,1.4476,1.3484,1.269,1.2284,1.2084,1.159,1.0392,1.01,0.9729,0.9078,0.8969,0.8697,0.8619,0.8603,0.8558,0.8473,0.7432,0.6975,0.6738,0.5963,0.4996,1.7648,0.0,1.9094,1.895,1.8821,1.8801,0.0,1.8379,1.8476,0.0,0.0,1.904,1.9393,1.8591,1.7933,1.8069,1.8339,1.8673,1.8984,2.0683,2.1911,2.1931,2.2666,2.3054,2.2849,2.3967,2.4667,2.4721,2.5066,2.5163,2.4904,2.4598,2.4328,2.3637,2.3158,2.2703,2.2059,2.1867,2.1373,2.0602,2.0946,1.9958,1.7558,1.782,1.7002,0.0,0.0,0.0,1.5181,1.5181,1.5181,1.5181,1.5181,1.5181,1.5187,1.5221,1.5215,1.5187,1.5221,1.5215,1.5201,1.5316,1.5459,1.5588,1.5588,1.5415,1.5222,1.4297,1.4822,1.5778,1.5849,1.6412,1.7026,1.7459,1.7268,1.6672,1.6282,1.6083,1.6083,1.6083,1.611,1.6123,1.609,1.611,1.6123,1.609,1.6083,1.6083,1.6083,1.5081,1.4476,1.4476,1.3484,1.289,1.269,1.2284,1.1788,1.0783,1.068,1.0521,1.0101,0.9922,0.9631,0.9247,0.8748,0.8493,0.8473,0.8185,0.7945,0.7929,0.6972,0.6141,1.7368,1.8068,1.8627,1.8627,1.8444,1.8282,1.8282,1.8313,1.8429,0.0,0.0,1.8566,1.881,1.7752,1.6977,0.0,1.7936,1.8959,2.0672,2.1258,2.1636,2.2222,2.2384,2.2616,0.0,2.4072,2.4743,2.4958,2.5216,2.5292,2.5141,2.4605,2.4289,2.3789,2.3023,2.249,2.1792,2.1971,2.1676,2.0727,2.1788,2.0888,1.8312,1.8883,1.8044,0.0,0.0,0.0,1.5181,1.5181,1.5181,1.5181,1.5181,1.5181,1.5181,1.5181,1.5181,1.5181,1.5181,1.5181,1.5194,1.5276,1.5364,1.5432,1.5432,1.5432,1.5234,1.4648,1.5574,1.6515,1.6423,1.7164,1.7765,1.765,1.7466,1.707,1.6282,1.6083,1.6083,1.6083,1.6137,1.6164,1.6096,1.6137,1.6164,1.609,1.6083,1.6083,1.6083,1.5081,1.4476,1.4476,1.3484,1.289,1.289,1.2684,1.2186,1.1368,1.1304,1.096,1.0511,1.0392,1.01,0.9459,0.896,0.8513,0.8473,0.8424,0.8375,0.8338,0.7374,0.6529,1.737,1.7919,1.8229,1.8336,1.8153,1.7981,1.7981,1.8118,1.8265,1.8215,0.0,1.8093,1.8112,1.7067,0.0,0.0,0.0,0.0,2.2086,2.1524,2.1103,2.2081,2.1752,0.0,2.3044,2.4062,2.471,2.5195,0.0,2.5313,2.5507,2.4546,2.4156,2.3961,2.281,2.2028,2.1792,2.2132,2.1845,2.0773,2.224,2.1615,1.8939,1.9902,1.8826,1.6358,0.0,0.0,1.5181,1.5181,1.5181,1.5181,1.5181,1.5181,1.5181,1.5181,1.5181,1.5181,1.5181,1.5181,1.5181,1.5181,1.5201,1.5215,1.5187,1.5201,1.5242,1.5343,1.6252,1.715,1.718,1.8075,1.8833,1.8023,1.7672,1.7474,1.6481,1.6083,1.6083,1.6083,1.6185,1.6232,1.6103,1.6191,1.6232,1.6103,1.6083,1.6083,1.6083,1.5081,1.4476,1.4476,1.3484,1.289,1.289,1.289,1.2583,1.1958,1.1942,1.1594,1.0698,1.0483,1.0198,0.9644,0.9011,0.857,0.8493,0.8493,0.8452,0.8379,0.7574,0.6898,1.7485,1.7675,1.7675,1.7748,1.7658,1.7486,1.7486,1.7353,1.7459,1.8413,1.8293,1.8101,1.8717,1.8123,1.7382,0.0,0.0,1.9561,0.0,0.0,2.2548,2.2242,0.0,2.355,2.3243,2.4209,2.4947,0.0,0.0,2.5486,2.5518,2.4935,2.4341,2.3961,2.3336,2.2558,2.1792,2.1849,2.1639,2.0964,2.1629,2.0882,1.8744,1.9321,1.8456,1.6195,0.0,1.5884,1.5181,1.5181,1.5181,1.5181,1.5181,1.5181,1.5181,1.5181,1.5181,1.5181,1.5181,1.5181,1.5181,1.5181,1.5269,1.535,1.5221,1.5276,1.535,1.5248,1.6081,1.7001,1.6758,1.7882,1.8833,1.8418,1.8061,1.7466,1.6871,1.6474,1.6083,1.6083,1.6103,1.611,1.6083,1.6103,1.611,1.6083,1.6083,1.6083,1.6083,1.5081,1.4476,1.4476,1.3484,1.289,1.289,1.289,1.2786,1.2352,1.2336,1.2176,1.1817,1.0966,1.0311,1.0011,0.9191,0.8599,0.8587,0.8587,0.8579,0.8566,0.8401,0.7691,1.6799,1.7118,1.7438,1.7852,1.7744,1.7636,1.7884,1.7609,1.7598,0.0,0.0,0.0,1.8041,0.0,1.7235,1.7842,0.0,2.0016,2.1915,2.2486,2.2522,0.0,0.0,2.3218,2.3597,2.4312,0.0,0.0,0.0,0.0,2.5518,2.4819,2.4359,2.4166,2.3163,2.2563,2.2368,2.1499,2.0879,2.0315,2.128,2.0756,1.8566,1.9319,1.8699,1.6919,0.0,1.6184,1.5563,1.5368,1.5181,1.5181,1.5181,1.5181,1.5181,1.5181,1.5181,1.5181,1.5181,1.5181,1.5181,1.5181,1.5228,1.5276,1.5201,1.5289,1.5398,1.5323,1.618,1.7083,1.6965,1.7951,1.8954,1.8639,1.8259,1.8061,1.7466,1.6871,1.6474,1.6474,1.6275,1.6083,1.6083,1.6083,1.6083,1.6083,1.6083,1.6083,1.6083,1.5479,1.4875,1.4476,1.3884,1.3262,1.2792,1.2786,1.2716,1.2547,1.2411,1.2265,1.2096,1.1041,1.0378,1.0273,0.9264,0.8652,0.8607,0.8607,0.8632,0.8677,0.8677,0.7978,1.6338,1.6581,1.6976,1.7716,1.7641,1.7588,1.8508,0.0,0.0,0.0,0.0,0.0,0.0,1.6961,0.0,1.891,1.9704,2.0346,2.1489,2.204,2.2262,0.0,0.0,0.0,0.0,0.0,0.0,0.0,0.0,0.0,2.5443,2.4693,2.4375,2.4323,2.3034,2.2458,2.2586,2.13,2.0481,2.0118,2.0746,2.0242,1.8641,1.9389,1.8986,1.7616,1.6966,1.653,1.5938,1.5368,1.5181,1.5181,1.5181,1.5181,1.5181,1.5181,1.5181,1.5181,1.5181,1.5181,1.5181,1.5181,1.5181,1.5181,1.5181,1.5289,1.5411,1.5411,1.6316,1.724,1.724,1.8208,1.9207,1.8845,1.8457,1.8259,1.7863,1.7268,1.6672,1.6672,1.6474,1.6083,1.5884,1.6083,1.6083,1.6083,1.6083,1.6083,1.6083,1.5678,1.5081,1.4676,1.4083,1.3439,1.2716,1.2683,1.2618,1.2498,1.2265,1.1951,1.1978,1.0904,1.025,1.0193,0.9156,0.8701,0.8636,0.8636,0.8673,0.8734,0.8754,0.8243,1.6775,1.6563,1.6481,1.7151,1.688,0.0,1.892,1.7663,0.0,1.8496,0.0,0.0,0.0,1.7426,1.7745,1.9016,1.9618,2.0394,2.171,0.0,2.2384,0.0,0.0,0.0,0.0,0.0,0.0,0.0,0.0,0.0,2.5216,2.4609,2.4302,2.4072,2.3483,2.2616,2.1658,2.1452,2.1442,2.1254,1.9789,1.9048,1.9201,1.8822,1.8166,1.746,1.7041,1.6641,1.5938,1.5368,1.5181,1.5181,1.5181,1.5181,1.5181,1.5181,1.5181,1.5181,1.5181,1.5181,1.5181,1.5181,1.5181,1.5181,1.5181,1.5289,1.5411,1.5411,1.6387,1.7396,1.7396,1.82,1.9045,1.9216,1.8465,1.7863,1.8259,1.7268,1.6083,1.6083,1.6083,1.5884,1.5479,1.5678,1.6083,1.6083,1.6083,1.6083,1.6083,1.5678,1.528,1.528,1.4283,1.3439,1.2716,1.2607,1.2498,1.2373,1.1763,1.1304,1.1411,1.0273,0.9658,0.9928,0.9007,0.873,0.8726,0.8726,0.8726,0.8738,0.882,0.827,1.6035,1.6226,1.6349,1.7402,1.6942,0.0,0.0,1.7762,1.7166,1.9001,1.8431,0.0,0.0,0.0,1.7996,1.9241,1.993,2.0572,2.1229,2.1999,2.2452,0.0,0.0,0.0,0.0,0.0,0.0,0.0,0.0,0.0,2.5184,2.4832,2.4451,2.4405,2.3707,2.3035,2.2192,2.1263,2.0713,2.034,1.9337,1.8777,1.8648,1.8469,1.8241,1.7811,1.7124,1.674,1.6306,1.5556,1.5181,1.5181,1.5181,1.5181,1.5181,1.5181,1.5181,1.5181,1.5181,1.5181,1.5201,1.5296,1.5262,1.5201,1.5296,1.5432,1.5554,1.5931,1.6536,1.7151,1.7441,1.8278,1.8978,1.8449,1.8259,1.8061,1.7261,1.707,1.6871,1.5877,1.6076,1.6275,1.5479,1.5678,1.6083,1.6083,1.6083,1.6282,1.6474,1.6076,1.5844,1.575,1.4207,1.312,1.2493,1.2379,1.2292,1.2243,1.1778,1.137,1.1411,1.0395,0.9777,0.9755,0.9069,0.8791,0.8734,0.8681,0.8681,0.8734,0.8771,0.8434,1.5822,1.6053,1.6357,1.7432,1.6789,0.0,1.8023,1.7571,1.7408,1.9187,1.8658,0.0,0.0,0.0,0.0,0.0,2.0166,2.0601,2.0809,2.1636,2.229,2.2208,2.2744,0.0,0.0,0.0,0.0,0.0,0.0,0.0,0.0,2.4829,2.4592,2.4366,2.3825,2.3189,2.2432,2.114,2.0223,1.9488,1.893,1.8557,1.8176,1.8176,1.8176,1.8176,1.7055,1.6868,1.6868,1.5744,1.5181,1.5181,1.5181,1.5181,1.5181,1.5181,1.5181,1.5181,1.5181,1.5181,1.5201,1.5303,1.5269,1.5208,1.5364,1.552,1.5649,1.6271,1.6861,1.7239,1.772,1.8174,1.8663,1.8061,1.8061,1.7657,1.6665,1.6672,1.6474,1.528,1.5877,1.6275,1.5479,1.5877,1.6474,1.6679,1.6282,1.6275,1.707,1.6474,1.6022,1.5676,1.4273,1.3164,1.2741,1.2466,1.221,1.2172,1.1794,1.1416,1.1227,1.0248,0.9651,0.9611,0.9144,0.8869,0.8779,0.8717,0.8705,0.8734,0.8762,0.843,1.6149,1.6316,1.6556,1.6786,1.637,0.0,1.7659,1.7214,1.7019,1.8632,0.0,1.8428,1.8636,0.0,0.0,0.0,2.027,2.0611,2.0818,2.1206,2.1471,2.1471,2.1839,0.0,0.0,0.0,0.0,0.0,0.0,0.0,0.0,2.4592,2.4355,2.4118,2.4118,2.3373,2.1879,2.1325,2.0399,1.893,1.8363,1.8176,1.8176,1.8176,1.8176,1.8176,1.7055,1.7055,1.725,1.5744,1.5181,1.5181,1.5181,1.5181,1.5181,1.5181,1.5181,1.5181,1.5181,1.5181,1.5181,1.5181,1.5181,1.5208,1.5364,1.552,1.5669,1.6398,1.7144,1.787,1.8457,1.8061,1.787,1.8457,1.7665,1.6864,1.6864,1.6076,1.5081,1.4676,1.528,1.5884,1.5479,1.6268,1.707,1.7672,1.6878,1.6481,1.7474,1.6672,1.5823,1.5093,1.4555,1.3831,1.313,1.2735,1.2303,1.2178,1.1794,1.1227,1.0659,0.962,0.9052,0.9142,0.9052,0.8962,0.8873,0.8873,0.8824,0.8738,0.8828,0.827,1.5604,1.5913,1.6236,1.6766,1.6589,1.6486,0.0,1.7226,0.0,0.0,1.8665,1.8815,1.8872,0.0,0.0,0.0,0.0,0.0,2.1045,2.13,2.1527,2.1678,2.2317,2.2538,0.0,0.0,0.0,0.0,0.0,0.0,0.0,2.4405,2.3984,2.3015,2.3383,2.2637,2.0779,2.0779,1.9851,1.8363,1.8363,1.8176,1.8176,1.8176,1.8176,1.8176,1.7429,1.725,1.725,1.6126,1.5563,1.5181,1.5181,1.5181,1.5181,1.5181,1.5181,1.5181,1.5181,1.5181,1.5201,1.5309,1.5458,1.5591,1.5554,1.6096,1.6809,1.7046,1.726,1.787,1.8861,1.8061,1.7268,1.7268,1.707,1.6474,1.4881,1.528,1.528,1.3684,1.5074,1.6275,1.5479,1.6474,1.7466,1.7672,1.7474,1.7268,1.707,1.6679,1.5945,1.5126,1.4508,1.3969,1.2985,1.2796,1.2589,1.2172,1.1794,1.1227,1.0659,1.0063,0.9492,0.9142,0.9052,0.8995,0.8967,0.8836,0.8758,0.8734,0.8701,0.8309,1.5832,1.6165,1.6512,1.7093,1.6957,1.6865,1.7481,0.0,0.0,0.0,0.0,1.9023,1.9193,1.9609,0.0,0.0,0.0,0.0,2.114,2.1414,2.1641,2.1773,2.2423,2.2644,0.0,0.0,0.0,0.0,0.0,0.0,0.0,2.3696,2.3334,2.2647,2.2821,2.2452,2.0973,2.0594,1.9851,1.8735,1.8363,1.8176,1.8176,1.8176,1.8176,1.8176,1.7803,1.7437,1.6688,1.6306,1.5744,1.5181,1.5181,1.5181,1.5181,1.5181,1.5181,1.5181,1.5181,1.5181,1.5201,1.5289,1.5444,1.5591,1.5364,1.6046,1.6906,1.7165,1.7516,1.8074,1.893,1.8356,1.7385,1.7253,1.6871,1.6076,1.4682,1.4881,1.5081,1.4083,1.5273,1.6467,1.6275,1.7268,1.8061,1.8267,1.8267,1.8061,1.7062,1.6984,1.6594,1.5248,1.4983,1.4241,1.3305,1.2928,1.2739,1.2172,1.1983,1.1396,1.0973,1.022,0.9637,0.9036,0.9016,0.8991,0.8954,0.8844,0.8771,0.873,0.8648,0.8429,1.6838,1.7085,1.7308,1.77,1.7743,0.0,1.8299,1.8269,1.8239,1.8825,0.0,1.9136,1.9552,1.9817,2.011,2.0507,2.0743,2.0941,0.0,2.1508,2.1763,2.1763,2.2104,2.234,0.0,0.0,0.0,0.0,0.0,0.0,0.0,2.2768,2.2637,2.2452,2.2452,2.2268,2.1723,2.0779,2.0223,1.9674,1.8735,1.8176,1.8176,1.8176,1.8176,1.8176,1.8176,1.7429,1.5938,1.6494,1.6119,1.5181,1.5181,1.5181,1.5181,1.5181,1.5181,1.5181,1.5181,1.5181,1.5181,1.5181,1.5181,1.5208,1.535,1.5779,1.6385,1.6921,1.7558,1.8005,1.8745,1.8411,1.8074,1.7833,1.6878,1.6076,1.5479,1.4875,1.4875,1.528,1.587,1.6467,1.7466,1.8259,1.8655,1.9256,1.9256,1.8663,1.7261,1.7569,1.7373,1.5828,1.5364,1.4805,1.387,1.3116,1.2739,1.2172,1.2161,1.1914,1.1232,1.0306,0.952,0.9057,0.895,0.8954,0.8873,0.8864,0.8815,0.873,0.8648,0.8429,1.7759,1.7995,1.838,1.8715,1.8854,1.8983,1.9474,1.9183,1.8702,1.8846,1.9004,1.9354,1.977,2.0157,2.0667,2.1277,2.1144,2.1296,2.1714,2.1573,2.1537,2.1537,2.2144,2.2365,0.0,0.0,0.0,0.0,0.0,0.0,2.2635,2.2663,2.2268,2.1538,2.1908,2.1529,2.0779,2.0594,2.0037,0.0,1.893,1.8557,1.8176,1.8176,1.8176,1.8176,1.8176,1.7616,1.6494,1.6681,1.6119,1.5181,1.5181,1.5181,1.5181,1.5181,1.5181,1.5181,1.5181,1.5181,1.5181,1.5181,1.5368,1.5758,1.541,1.6074,1.6744,1.64,1.7165,1.8161,1.7802,1.7712,1.7825,1.7665,1.7268,1.6474,1.5479,1.5479,1.5678,1.528,1.6474,1.7466,1.7672,1.8465,1.9256,1.9256,1.8861,1.8457,1.8259,1.7771,1.6987,1.6408,1.5554,1.4805,1.387,1.3116,1.2739,1.2172,1.208,1.1785,1.1115,1.064,1.0078,0.9425,0.9073,0.8889,0.8873,0.8799,0.8754,0.873,0.8648,0.8429,1.7602,1.8284,1.9212,1.9404,1.9512,1.9644,2.0097,1.9806,1.941,1.9231,1.9313,1.9458,1.9968,2.0327,2.0791,2.1537,2.1394,2.1353,2.1908,2.1711,2.1696,2.1981,2.2373,2.274,0.0,0.0,0.0,0.0,0.0,2.1859,2.199,2.1888,2.1723,2.1168,2.1353,2.1159,2.0408,2.0223,1.9666,1.893,1.8744,1.8363,1.8176,1.8176,1.8176,1.8176,1.7989,1.7429,1.6681,1.6681,1.6119,1.5181,1.5368,1.5368,1.5181,1.5181,1.5181,1.5181,1.5181,1.5181,1.5181,1.5181,1.5375,1.5556,1.5181,1.5807,1.6437,1.6059,1.6934,1.7681,1.7456,1.7561,1.7863,1.8023,1.7466,1.6871,1.6474,1.6474,1.6474,1.6864,1.7268,1.787,1.8465,1.8861,1.9256,1.9256,1.9058,1.8829,1.8348,1.8114,1.7566,1.6594,1.6116,1.5396,1.3963,1.353,1.2928,1.2172,1.2058,1.1748,1.1452,1.0901,1.0302,0.9472,0.9334,0.9177,0.9177,0.894,0.8915,0.9096,0.8828,0.8429,1.7449,1.8496,1.9949,2.0141,2.0123,2.0241,2.0377,2.032,2.0089,2.0041,1.9625,1.9486,2.011,2.0365,2.0743,2.1527,2.1539,2.149,2.1898,2.1869,2.1856,2.2407,2.2774,2.3093,2.3506,0.0,0.0,0.0,0.0,2.1869,2.1696,2.1329,2.1206,2.1168,2.1168,2.0973,2.0408,2.0037,1.9488,1.893,1.8363,1.8176,1.8176,1.8176,1.8176,1.8176,1.7616,1.7242,1.6868,1.6681,1.6119,1.5368,1.5751,1.5751,1.5368,1.5368,1.5368,1.5368,1.5368,1.5368,1.5368,1.5368,1.5181,1.5181,1.5181,1.5556,1.5751,1.5751,1.6516,1.7169,1.7068,1.7373,1.7866,1.8537,1.784,1.7268,1.7665,1.7466,1.7459,1.8259,1.8259,1.8267,1.9058,1.9256,1.9256,1.9256,1.9232,1.8962,1.8231,1.8423,1.792,1.6594,1.6496,1.58,1.4247,1.3761,1.3116,1.2361,1.2058,1.1938,1.1824,1.1341,1.05,0.95,0.9581,0.9622,0.9622,0.9075,0.9075,0.9441,0.8823,0.8607,1.9259,1.9969,2.0748,2.058,2.0761,2.1103,2.1233,2.0769,2.0589,0.0,2.013,1.9817,2.01,2.0596,2.1096,2.2041,2.2141,2.2232,2.2422,2.2482,2.2327,2.1986,2.2758,2.3221,2.3031,0.0,0.0,0.0,2.2606,2.227,2.2475,2.1913,2.1348,2.1178,2.1168,2.0973,2.0408,2.0408,1.9851,1.893,1.8363,1.8176,1.8176,1.8176,1.8176,1.8176,1.7616,1.7437,1.725,1.6868,1.6306,1.5751,1.5938,1.5938,1.5751,1.5751,1.6119,1.6494,1.6494,1.6119,1.5751,1.5751,1.5556,1.5181,1.5181,1.5181,1.5368,1.5368,1.5842,1.6525,1.6759,1.6787,1.7201,1.9191,1.893,1.8259,1.8457,1.8647,1.8845,1.8449,1.8861,1.9058,1.9256,1.9256,1.9256,1.9256,1.9126,1.8817,1.8208,1.792,1.739,1.658,1.5744,1.5242,1.4629,1.3566,1.2928,1.2739,1.2245,1.1938,1.1824,1.1518,1.122,1.0565,1.0045,0.9876,0.9876,0.9518,0.9339,0.9339,0.879,0.8607,2.0086,2.0157,2.0092,2.0656,2.091,2.1103,2.1243,2.1114,2.0916,2.1045,2.0792,2.0667,2.0627,2.092,2.156,2.2419,2.2393,2.2333,2.2799,2.2739,2.2687,2.2808,2.3375,2.3603,2.3696,2.3738,0.0,0.0,2.2765,2.2309,2.2524,2.1846,2.1263,2.1168,2.1168,2.0973,2.0408,2.0223,1.948,1.8557,1.8363,1.8176,1.8176,1.8176,1.8176,1.8176,1.7616,1.7437,1.7437,1.7242,1.6688,1.5938,1.6306,1.5931,1.5563,1.5751,1.6126,1.6306,1.6681,1.6494,1.6306,1.6306,1.6119,1.6119,1.6119,1.5744,1.5556,1.5556,1.6169,1.6808,1.6904,1.7413,1.8344,1.9893,1.9733,1.9581,2.0183,2.0226,2.0029,1.9446,1.9256,1.9256,1.9256,1.9256,1.9256,1.9256,1.9191,1.8866,1.8083,1.8013,1.7543,1.6472,1.5955,1.533,1.4253,1.3755,1.3116,1.255,1.2184,1.1873,1.1819,1.1634,1.133,1.1099,1.0565,1.0387,1.0387,0.9852,0.9674,0.9674,0.9143,0.8786,2.0207,2.0052,1.9636,2.0374,2.0787,2.096,2.1114,2.1276,2.1317,2.1379,2.1516,2.1567,2.1269,2.1545,2.1988,2.2642,2.265,2.2614,2.3091,2.3085,2.3067,2.3603,2.3809,2.3995,2.4377,2.4207,2.4146,0.0,2.3162,2.2586,2.2635,2.1836,2.1282,2.1168,2.1168,2.0973,2.0408,1.9851,1.9294,1.8363,1.8363,1.8363,1.8176,1.8176,1.8176,1.8176,1.7616,1.7437,1.7616,1.7437,1.6876,1.6126,1.6494,1.6306,1.5556,1.5931,1.6314,1.6494,1.6868,1.7055,1.6868,1.6681,1.6681,1.6681,1.6494,1.6306,1.6126,1.5938,1.6718,1.7523,1.7276,1.8129,1.9395,2.0588,2.0579,2.0588,2.1271,2.1183,2.0611,2.0175,1.9815,1.9437,1.9388,1.9421,1.9256,1.9256,1.9216,1.8882,1.8183,1.806,1.7441,1.6385,1.6166,1.5595,1.4451,1.3945,1.3305,1.255,1.2162,1.1851,1.1819,1.1612,1.1504,1.1504,1.1115,1.0921,1.0921,1.0387,1.0209,1.0209,0.9496,0.9143,1.9714,1.9795,1.96,1.9903,2.0351,2.0825,2.0813,2.1276,2.1509,2.1421,2.1821,2.2225,2.1964,2.2005,2.2162,2.2611,2.3051,2.34,2.33,2.374,2.3935,2.3394,2.3762,2.4129,2.4129,2.4344,2.4484,0.0,2.3935,2.3415,2.3011,2.2228,2.1574,2.1178,2.1168,2.0973,2.0408,1.9851,1.9488,1.893,1.893,1.8557,1.8176,1.8176,1.8176,1.8176,1.7616,1.7616,1.8176,1.7624,1.7055,1.6681,1.6681,1.6681,1.6681,1.6681,1.7242,1.7989,1.8176,1.7803,1.725,1.6868,1.6681,1.6681,1.6126,1.6306,1.6494,1.6126,1.6793,1.786,1.8239,1.8688,1.9497,2.1275,2.1165,2.0712,2.1135,2.1085,2.0773,2.0597,2.0115,1.9978,1.9801,1.9535,1.9256,1.9256,1.911,1.8737,1.8159,1.7573,1.6936,1.6371,1.5786,1.5411,1.5411,1.433,1.3682,1.3682,1.2614,1.1933,1.1824,1.1694,1.1629,1.1629,1.1514,1.1455,1.1455,1.0921,1.0743,1.0565,0.9674,0.9322,1.9601,1.9602,1.9574,2.0036,2.024,2.0318,2.0814,2.1101,2.147,2.1531,2.1894,2.2406,2.2471,2.2514,2.262,2.2765,2.3123,2.3515,2.3646,2.3828,2.4118,2.3935,2.3935,2.4118,2.4118,2.4323,2.4463,2.4463,0.0,2.3132,2.297,2.1975,2.1329,2.1178,2.1168,2.0973,2.0408,2.0223,1.9851,1.9488,1.9116,1.8744,1.8557,1.8363,1.8176,1.8176,1.7989,1.7989,1.8176,1.7989,1.7616,1.7055,1.6868,1.6868,1.7055,1.6868,1.7429,1.8176,1.8176,1.7989,1.7803,1.7803,1.7616,1.7616,1.7429,1.7242,1.7055,1.6876,1.7101,1.7734,1.8789,1.9294,1.995,2.1215,2.1648,2.1431,2.1364,2.1083,2.0816,2.0744,2.0404,2.0044,1.9589,1.9539,1.9427,1.8931,1.8956,1.8681,1.8002,1.7681,1.7267,1.6045,1.592,1.5554,1.4891,1.4461,1.3864,1.3305,1.2725,1.2225,1.1819,1.1629,1.152,1.152,1.1476,1.1493,1.1569,1.1314,1.1099,1.0743,1.003,0.9674,1.9536,1.94,1.9299,1.983,1.9968,2.0174,2.0698,2.1111,2.1405,2.172,2.1997,2.2406,2.2643,2.2686,2.2794,2.3117,2.33,2.3504,2.3828,2.4011,2.4118,2.4118,2.4118,2.4118,2.4118,2.4323,2.443,2.4355,0.0,0.0,2.2869,2.1859,2.1244,2.1168,2.1168,2.0983,2.0603,2.0603,2.0417,1.9674,1.9302,1.893,1.8744,1.8363,1.8176,1.8176,1.8176,1.8176,1.8176,1.8363,1.7989,1.7242,1.7429,1.7429,1.7429,1.7429,1.7803,1.8363,1.8363,1.8363,1.8176,1.7989,1.7989,1.8176,1.7989,1.7803,1.7616,1.7437,1.7663,1.811,1.8978,1.9767,2.0709,2.1283,2.1631,2.1707,2.1433,2.1395,2.1183,2.1109,2.0774,2.0419,1.9976,1.9923,1.9623,1.9121,1.9011,1.8785,1.8105,1.7842,1.7245,1.6343,1.6074,1.5533,1.4818,1.4422,1.4052,1.3487,1.287,1.2358,1.1997,1.1765,1.1476,1.1514,1.1476,1.1514,1.1634,1.1514,1.1277,1.0921,1.0387,0.9852,0.0,0.0,0.0,1.9657,1.991,2.0227,2.0797,2.1311,2.1678,2.2155,2.2321,2.2395,2.2632,2.2675,2.2837,2.3311,2.3397,2.3569,2.4032,2.4107,2.4118,2.4118,2.4118,2.4118,2.4118,2.4323,2.4355,2.4129,2.3593,2.3081,2.2657,2.1908,2.1376,2.1178,2.1168,2.1168,2.1168,2.1168,2.0612,1.9674,1.9674,1.9108,1.8176,1.8176,1.8176,1.8176,1.8176,1.8176,1.8176,1.8744,1.7989,1.6868,1.8354,1.8354,1.7616,1.8541,1.8922,1.893,1.893,1.8549,1.8176,1.7616,1.7803,1.8176,1.7616,1.7803,1.8176,1.7624,1.8306,1.9192,1.9201,2.0341,2.148,2.1471,2.1319,2.1178,2.1168,2.1489,2.1716,2.1499,2.1243,2.0928,2.0746,2.0494,2.0045,1.9471,1.948,1.9221,1.8658,1.7834,1.7039,1.6711,1.5877,1.5337,1.5181,1.4792,1.4416,1.4409,1.3228,1.2541,1.2535,1.1939,1.1509,1.1629,1.1514,1.1514,1.1629,1.1514,1.1455,1.1455,1.0921,1.0209,2.0181,0.0,0.0,0.0,0.0,0.0,2.0805,2.1256,2.1468,2.1656,2.2124,2.2496,2.2385,2.2568,2.2783,2.3095,2.3289,2.3504,2.3806,2.4,2.4118,2.4118,2.4118,2.4118,2.4118,2.4172,2.4183,0.0,2.3683,2.3138,2.2647,2.1772,2.1225,2.1168,2.1168,2.1168,2.1168,2.1168,2.0788,2.0223,1.9851,1.9302,1.8744,1.8363,1.8176,1.8176,1.8176,1.8363,1.8744,1.8549,1.8363,1.8371,1.8363,1.8735,1.9108,1.8913,1.9108,1.9488,1.9116,1.8549,1.8176,1.7989,1.7989,1.8176,1.7989,1.7989,1.8176,1.7989,1.803,1.8094,1.8978,2.0251,2.1271,2.1499,2.1423,2.1348,2.1206,2.1263,2.1329,2.1263,2.13,2.0937,2.0499,2.0476,2.018,1.9296,1.9192,1.902,1.8461,1.811,1.7491,1.6717,1.6368,1.5768,1.4875,1.4778,1.4606,1.4132,1.3865,1.323,1.2414,1.2073,1.1827,1.1504,1.1471,1.1471,1.1504,1.1471,1.1455,1.1455,1.0565,0.9674,0.0,0.0,0.0,0.0,0.0,0.0,2.1052,2.1432,2.1754,2.2065,2.238,2.2732,2.2485,2.2468,2.2642,2.2708,2.2945,2.3214,2.3558,2.3731,2.3849,2.3946,2.3957,2.4,2.4107,2.3935,2.3751,2.3751,2.3199,2.2462,2.2093,2.1538,2.1168,2.1168,2.0983,2.0983,2.1168,2.0983,2.0603,2.0037,2.0037,1.9674,1.893,1.8557,1.8549,1.8549,1.8363,1.8549,1.9116,1.8744,1.8735,1.8922,1.9294,1.9488,1.9666,1.9851,1.9851,1.9674,1.9302,1.8735,1.8176,1.8176,1.8176,1.8176,1.8176,1.8176,1.8176,1.8176,1.8176,1.8208,1.9244,2.0109,2.0916,2.1376,2.1348,2.131,2.1196,2.1168,2.1168,2.1168,2.1168,2.1168,2.0788,2.0695,2.0358,1.932,1.9202,1.8861,1.8192,1.7925,1.7474,1.6642,1.6199,1.5752,1.4746,1.4821,1.4651,1.4381,1.3952,1.3344,1.2722,1.2235,1.181,1.1455,1.1455,1.1455,1.1099,1.1455,1.1455,1.1099,1.0565,0.9852,0.0,0.0,0.0,0.0,2.075,0.0,2.1586,2.1934,2.2404,2.2768,2.298,2.2899,2.2721,2.2777,2.2688,2.2425,2.2642,2.2956,2.3289,2.3386,2.3472,2.3688,2.3731,2.3828,2.4054,2.373,2.3383,2.3383,2.2462,2.1723,2.1353,2.1168,2.1168,2.1168,2.0603,2.0594,2.1168,2.0594,2.0037,1.9674,2.0037,1.9851,1.893,1.893,1.893,1.893,1.8549,1.8922,1.9674,1.9302,1.9108,1.9285,2.0603,2.0417,1.986,2.0612,2.0417,1.9674,1.9674,1.8922,1.8176,1.8176,1.8176,1.8176,1.8176,1.8176,1.8176,1.8176,1.8549,1.893,1.9488,2.0037,2.0408,2.0983,2.1168,2.1168,2.1168,2.1168,2.1168,2.1168,2.1168,2.1168,2.1168,2.0788,2.0223,1.986,1.9302,1.8744,1.8176,1.7652,1.6988,1.6604,1.5906,1.5258,1.4692,1.4706,1.4706,1.451,1.3681,1.3077,1.3059,1.205,1.1632,1.1455,1.1455,1.1277,1.0743,1.1277,1.1277,1.0565,1.0565,1.0387,0.0,0.0,0.0,0.0,0.0,0.0,2.2474,2.2525,2.2643,2.3372,2.3499,2.3478,2.3865,2.3657,2.3411,2.3499,2.3424,2.3201,2.302,2.3278,2.3418,2.3461,2.3634,2.3763,2.3817,2.4,2.3751,2.3383,2.2462,2.1908,2.1723,2.1353,2.1168,2.1168,2.0603,2.0408,2.0594,2.0037,1.9488,1.9116,1.9674,1.9488,1.893,1.893,1.9116,1.9488,1.893,1.9294,2.0223,2.0223,2.0037,2.0037,2.0046,1.986,1.9674,1.986,1.9674,1.9116,1.9116,1.8735,1.8176,1.8176,1.8176,1.8176,1.8176,1.8176,1.8176,1.8176,1.8363,1.8549,1.9488,1.986,2.0046,2.0983,2.1168,2.1168,2.1168,2.1168,2.1168,2.1168,2.1168,2.1168,2.1168,2.0788,2.0223,1.986,1.9302,1.8744,1.8176,1.8022,1.7309,1.6438,1.6092,1.5406,1.4394,1.4489,1.433,1.3859,1.3745,1.3207,1.2384,1.2183,1.181,1.1455,1.1455,1.1455,1.1277,1.1455,1.1099,1.0209,1.0209,0.9852,0.0,0.0,0.0,2.2046,0.0,0.0,0.0,2.2662,2.3067,2.3476,2.3455,2.3529,2.3785,2.3237,2.2851,2.2952,2.2636,2.2425,2.2255,2.2834,2.313,2.3192,2.3332,2.3494,2.372,2.3571,2.3081,2.2465,2.1644,2.1308,2.1529,2.1248,2.087,2.0788,2.0232,2.0037,2.0037,1.9488,1.9116,1.893,1.9488,1.9488,1.893,1.9116,1.9488,2.0037,1.9488,1.9851,2.0779,2.0223,2.0223,2.0408,2.0223,1.9851,1.9674,1.9674,1.9302,1.893,1.893,1.8549,1.8176,1.8176,1.8176,1.8176,1.8176,1.8176,1.8176,1.8176,1.8176,1.8363,1.948,1.9674,1.986,2.0983,2.1168,2.1168,2.1168,2.1168,2.1168,2.1168,2.1168,2.1168,2.1168,2.0603,2.0037,1.9674,1.9108,1.8524,1.8054,1.7973,1.7445,1.6273,1.5995,1.5527,1.4312,1.4367,1.4196,1.3951,1.3649,1.3121,1.2526,1.2165,1.181,1.1455,1.1455,1.1455,1.1099,1.1455,1.0921,1.003,1.003,0.9674,0.0,0.0,0.0,0.0,0.0,2.3049,0.0,0.0,0.0,2.3628,2.3559,2.3542,2.3561,2.3053,2.2496,2.221,2.1989,2.1912,2.1693,2.2263,2.2788,2.2815,2.2826,2.2866,2.3375,2.282,2.2179,2.1488,2.081,2.0686,2.0842,2.0913,2.0547,2.0159,1.9834,1.9674,1.9488,1.9116,1.8744,1.8744,1.9302,1.9488,1.9116,1.9674,2.0223,2.0779,2.0223,2.0408,2.1334,2.0417,2.0046,2.0223,2.0223,1.9851,1.9488,1.948,1.9116,1.8744,1.8744,1.8549,1.8176,1.8176,1.8176,1.8176,1.8176,1.8176,1.8176,1.8176,1.8363,1.8735,1.948,1.9851,2.0232,2.0983,2.1168,2.1168,2.1168,2.1168,2.1168,2.1168,2.1168,2.1168,2.1168,2.0417,1.9674,1.9674,1.8896,1.807,1.7932,1.7859,1.7333,1.6152,1.5913,1.549,1.4312,1.4299,1.4299,1.4122,1.3407,1.2875,1.2698,1.1988,1.1455,1.1455,1.1455,1.1277,1.0921,1.1277,1.0921,1.003,1.003,0.9674,0.0,0.0,0.0,0.0,2.3762,0.0,0.0,0.0,2.3846,2.4022,0.0,2.4255,2.4489,0.0,0.0,2.3252,2.2918,2.2428,2.193,2.207,2.2107,2.2044,2.1872,2.1842,2.218,2.1506,2.1235,2.1282,2.0734,2.0374,2.006,2.0571,2.0482,1.9585,1.9578,1.9488,1.893,1.8549,1.8363,1.8363,1.8744,1.9488,2.0223,2.0223,2.1149,2.2268,2.1334,2.1334,2.1714,2.1168,2.0603,1.9674,1.9302,1.9116,1.893,1.8549,1.8363,1.8363,1.8363,1.8176,1.8176,1.8176,1.8176,1.8176,1.8176,1.8176,1.8176,1.8176,1.8922,1.9488,1.9674,2.0408,2.1149,2.1168,2.1168,2.1168,2.1168,2.1168,2.1168,2.1168,2.1168,2.1168,2.1168,2.0417,1.9674,1.9674,1.8601,1.794,1.7916,1.764,1.7071,1.6129,1.5816,1.5374,1.4299,1.4299,1.4122,1.3768,1.323,1.2698,1.2343,1.181,1.1455,1.1455,1.1455,1.1455,1.1455,1.0921,1.0565,1.003,1.003,0.9674,0.0,0.0,0.0,0.0,0.0,0.0,2.3505,0.0,2.344,0.0,0.0,0.0,0.0,0.0,0.0,0.0,2.2924,2.2739,2.2708,2.2276,2.1905,2.1749,0.0,0.0,2.1097,2.0757,2.0588,2.0686,2.0346,1.9924,1.9624,1.9903,1.969,1.9001,1.9087,1.8954,1.84,1.8313,1.8127,1.803,1.8879,1.9674,2.0037,2.0594,2.1334,2.2073,2.1529,2.1529,2.1898,2.0973,2.0417,1.9674,1.9116,1.8744,1.8549,1.8557,1.8363,1.8176,1.8557,1.8557,1.8744,1.8922,1.8922,1.8557,1.8557,1.8363,1.8176,1.8176,1.8922,1.9674,2.0037,2.0594,2.1334,2.1538,2.1353,2.1168,2.1168,2.1168,2.1168,2.1168,2.1064,2.0795,2.0612,2.015,1.9595,1.9367,1.8451,1.7843,1.7632,1.7567,1.7274,1.6348,1.6001,1.5631,1.4829,1.4476,1.4299,1.3945,1.323,1.252,1.181,1.1632,1.1455,1.1455,1.1455,1.1455,1.1455,1.1277,1.0885,1.0293,0.9763,0.9202,2.5514,0.0,0.0,0.0,0.0,0.0,0.0,0.0,0.0,0.0,0.0,0.0,0.0,0.0,0.0,0.0,0.0,2.2789,2.2789,2.228,2.1762,2.1528,0.0,0.0,0.0,2.001,1.9952,1.9842,0.0,1.9149,1.8981,1.9052,1.8901,1.8375,1.8617,1.8467,1.7916,1.8038,1.8223,1.8284,1.8971,1.9436,2.0037,2.0779,2.1325,2.1694,2.1529,2.1353,2.1344,2.0779,2.0037,1.9488,1.9116,1.8557,1.8176,1.8744,1.8744,1.8363,1.8744,1.893,1.893,1.9302,1.9302,1.893,1.893,1.8557,1.8176,1.8176,1.9108,2.0037,2.0408,2.0964,2.1704,2.1898,2.1538,2.1168,2.1168,2.1121,2.1093,2.1159,2.0951,2.058,2.0034,1.9786,1.942,1.8957,1.8266,1.7681,1.7421,1.7453,1.7218,1.6424,1.6156,1.5653,1.5006,1.4646,1.4122,1.3945,1.323,1.2343,1.1455,1.1455,1.1455,1.1455,1.1455,1.1455,1.1455,1.1455,1.1218,1.057,0.9698,0.9131,0.0,0.0,0.0,2.5623,0.0,0.0,0.0,0.0,2.4804,0.0,0.0,0.0,0.0,0.0,0.0,0.0,0.0,0.0,0.0,2.1634,2.1391,2.1378,2.0275,0.0,0.0,1.8947,1.8808,0.0,1.8569,0.0,1.7543,1.8252,1.8345,1.764,1.8367,1.8467,1.7916,1.7924,1.8467,1.9376,1.8467,1.9113,2.0955,2.0594,2.0584,2.114,2.1714,2.1344,2.0408,2.0408,1.9851,1.893,1.893,1.8557,1.8176,1.8744,1.893,1.893,1.893,1.893,1.893,1.893,1.893,1.893,1.893,1.8557,1.8176,1.8176,1.9657,2.0955,2.0594,2.1519,2.2452,2.2093,2.1538,2.1168,2.1168,2.1007,2.0913,2.113,2.0837,2.0365,1.9815,1.9464,1.8931,1.8561,1.7869,1.7396,1.7388,1.7234,1.6944,1.6401,1.6057,1.5536,1.4999,1.4646,1.3945,1.3053,1.252,1.1988,1.1455,1.1455,1.1455,1.1455,1.1455,1.1455,1.1455,1.1455,1.1218,1.057,1.0049,0.9518,0.0,0.0,2.7162,2.7004,0.0,0.0,0.0,0.0,0.0,0.0,0.0,0.0,0.0,0.0,0.0,0.0,0.0,0.0,0.0,2.2504,2.125,2.0245,1.9293,0.0,0.0,0.0,0.0,0.0,1.8235,0.0,0.0,1.7562,1.7746,1.7283,1.7755,1.7862,1.7567,1.8342,1.8698,1.8639,1.9798,2.051,2.0951,2.0899,2.1149,2.1714,2.1529,2.0964,2.0408,2.0779,2.0037,1.893,1.893,1.8557,1.8176,1.8744,1.893,1.893,1.9302,1.9674,1.9851,1.9851,2.0037,2.0223,1.9674,1.9294,1.9108,1.8363,1.9657,2.114,2.0955,2.1704,2.2637,2.2452,2.1723,2.1168,2.1168,2.0998,2.0866,2.0941,2.062,1.9971,1.9249,1.8973,1.8531,1.8008,1.7704,1.7339,1.7218,1.7153,1.6936,1.6401,1.6057,1.5528,1.4992,1.4292,1.3413,1.252,1.2343,1.1988,1.1455,1.1455,1.1455,1.1455,1.1455,1.1455,1.1455,1.1455,1.1218,1.057,1.0049,0.966,2.8024,2.8202,0.0,2.7905,2.7909,0.0,2.6861,0.0,0.0,0.0,0.0,0.0,0.0,0.0,0.0,0.0,0.0,0.0,0.0,2.2448,2.0942,1.9856,1.9016,1.8407,1.7713,0.0,0.0,0.0,0.0,0.0,0.0,0.0,1.7379,1.7104,1.7396,1.7673,1.7915,1.8682,1.9077,1.9258,2.0231,2.0618,2.0584,2.0714,2.0594,2.0594,2.0779,2.0408,1.9666,2.0223,1.9666,1.8744,1.8744,1.8557,1.8549,1.8744,1.893,1.9302,2.0037,2.0223,2.0223,2.077,2.0594,2.0408,2.0408,2.0037,1.9488,1.8922,2.0214,2.151,2.114,2.1889,2.2637,2.2637,2.1898,2.1168,2.1168,2.0941,2.0752,2.0828,2.045,1.9785,1.8964,1.8638,1.8339,1.7647,1.7394,1.7242,1.7128,1.7112,1.6936,1.6753,1.6225,1.5697,1.4815,1.3938,1.3053,1.2165,1.1988,1.181,1.1455,1.1277,1.1277,1.1455,1.1277,1.1277,1.1455,1.1455,1.1213,1.075,1.0224,0.966]}]]